[[{"header":{"parameterUnit":"m.s-1","parameterCategory":1,"la1":30.6,"la2":28.766,"lo1":-90.7593,"lo2":-88.6598,"dy":0.0162,"dx":0.0183,"nx":116,"ny":114,"refTime":"2024-02-17T06:00:00:Z","depth":0,"parameterNumber":2,"parameterNumberName":"U-component_of_WINDS"},"data":[0.0,0.0,0.0,0.0,0.0,0.0,0.0,0.0,0.0,0.0,0.0,0.0,0.0,0.0,0.0,0.0,0.0,0.0,0.0,0.0,0.0,0.0,0.0,0.0,0.0,0.0,0.0,0.0,0.0,0.0,0.0,0.0,0.0,0.0,0.0,0.0,0.0,0.0,0.0,0.0,0.0,0.0,0.0,0.0,0.0,0.0,0.0,0.0,0.0,0.0,0.0,0.0,0.0,0.0,0.0,0.0,0.0,0.0,0.0,0.0,0.0,0.0,0.0,0.0,0.0,0.0,0.0,0.0,0.0,0.0,0.0,0.0,0.0,0.0,0.0,0.0,0.0,0.0,0.0,0.0,0.0,0.0,0.0,0.0,0.0,0.0,0.0,0.0,0.0,0.0,0.0,0.0,0.0,0.0,0.0,0.0,0.0,0.0,0.0,0.0,0.0,0.0,0.0,0.0,0.0,0.0,0.0,0.0,0.0,0.0,0.0,0.0,0.0,0.0,0.0,0.0,0.0,0.0,0.0,0.0,0.0,0.0,0.0,0.0,0.0,0.0,0.0,0.0,0.0,0.0,0.0,0.0,0.0,0.0,0.0,0.0,0.0,0.0,0.0,0.0,0.0,0.0,0.0,0.0,0.0,0.0,0.0,0.0,0.0,0.0,0.0,0.0,0.0,0.0,0.0,0.0,0.0,0.0,0.0,0.0,0.0,0.0,0.0,0.0,0.0,0.0,0.0,0.0,0.0,0.0,0.0,0.0,0.0,0.0,0.0,0.0,0.0,0.0,0.0,0.0,0.0,0.0,0.0,0.0,0.0,0.0,0.0,0.0,0.0,0.0,0.0,0.0,0.0,0.0,0.0,0.0,0.0,0.0,0.0,0.0,0.0,0.0,0.0,0.0,0.0,0.0,0.0,0.0,0.0,0.0,0.0,0.0,0.0,0.0,0.0,0.0,0.0,0.0,0.0,0.0,0.0,0.0,0.0,0.0,0.0,0.0,0.0,0.0,0.0,0.0,0.0,0.0,0.0,0.0,0.0,0.0,0.0,0.0,0.0,0.0,0.0,0.0,0.0,0.0,0.0,0.0,0.0,0.0,0.0,0.0,0.0,0.0,0.0,0.0,0.0,0.0,0.0,0.0,0.0,0.0,0.0,0.0,0.0,0.0,0.0,0.0,0.0,0.0,0.0,0.0,0.0,0.0,0.0,0.0,0.0,0.0,0.0,0.0,0.0,0.0,0.0,0.0,0.0,0.0,0.0,0.0,0.0,0.0,0.0,0.0,0.0,0.0,0.0,0.0,0.0,0.0,0.0,0.0,0.0,0.0,0.0,0.0,0.0,0.0,0.0,0.0,0.0,0.0,0.0,0.0,0.0,0.0,0.0,0.0,0.0,0.0,0.0,0.0,0.0,0.0,0.0,0.0,0.0,0.0,0.0,0.0,0.0,0.0,0.0,0.0,0.0,0.0,0.0,0.0,0.0,0.0,0.0,0.0,0.0,0.0,0.0,0.0,0.0,0.0,0.0,0.0,0.0,0.0,0.0,0.0,0.0,0.0,0.0,0.0,0.0,0.0,0.0,0.0,0.0,0.0,0.0,0.0,0.0,0.0,0.0,0.0,0.0,0.0,0.0,0.0,0.0,0.0,0.0,0.0,0.0,0.0,0.0,0.0,0.0,0.0,0.0,0.0,0.0,0.0,0.0,0.0,0.0,0.0,0.0,0.0,0.0,0.0,0.0,0.0,0.0,0.0,0.0,0.0,0.0,0.0,0.0,0.0,0.0,0.0,0.0,0.0,0.0,0.0,0.0,0.0,0.0,0.0,0.0,0.0,0.0,0.0,0.0,0.0,0.0,0.0,0.0,0.0,0.0,0.0,0.0,0.0,0.0,0.0,0.0,0.0,0.0,0.0,0.0,0.0,0.0,0.0,0.0,0.0,0.0,0.0,0.0,0.0,0.0,0.0,0.0,0.0,0.0,0.0,0.0,0.0,0.0,0.0,0.0,0.0,0.0,0.0,0.0,0.0,0.0,0.0,0.0,0.0,0.0,0.0,0.0,0.0,0.0,0.0,0.0,0.0,0.0,0.0,0.0,0.0,0.0,0.0,0.0,0.0,0.0,0.0,0.0,0.0,0.0,0.0,0.0,0.0,0.0,0.0,0.0,0.0,0.0,0.0,0.0,0.0,0.0,0.0,0.0,0.0,0.0,0.0,0.0,0.0,0.0,0.0,0.0,0.0,0.0,0.0,0.0,0.0,0.0,0.0,0.0,0.0,0.0,0.0,0.0,0.0,0.0,0.0,0.0,0.0,0.0,0.0,0.0,0.0,0.0,0.0,0.0,0.0,0.0,0.0,0.0,0.0,0.0,0.0,0.0,0.0,0.0,0.0,0.0,0.0,0.0,0.0,0.0,0.0,0.0,0.0,0.0,0.0,0.0,0.0,0.0,0.0,0.0,0.0,0.0,0.0,0.0,0.0,0.0,0.0,0.0,0.0,0.0,0.0,0.0,0.0,0.0,0.0,0.0,0.0,0.0,0.0,0.0,0.0,0.0,0.0,0.0,0.0,0.0,0.0,0.0,0.0,0.0,0.0,0.0,0.0,0.0,0.0,0.0,0.0,0.0,0.0,0.0,0.0,0.0,0.0,0.0,0.0,0.0,0.0,0.0,0.0,0.0,0.0,0.0,0.0,0.0,0.0,0.0,0.0,0.0,0.0,0.0,0.0,0.0,0.0,0.0,0.0,0.0,0.0,0.0,0.0,0.0,0.0,0.0,0.0,0.0,0.0,0.0,0.0,0.0,0.0,0.0,0.0,0.0,0.0,0.0,0.0,0.0,0.0,0.0,0.0,0.0,0.0,0.0,0.0,0.0,0.0,0.0,0.0,0.0,0.0,0.0,0.0,0.0,0.0,0.0,0.0,0.0,0.0,0.0,0.0,0.0,0.0,0.0,0.0,0.0,0.0,0.0,0.0,0.0,0.0,0.0,0.0,0.0,0.0,0.0,0.0,0.0,0.0,0.0,0.0,0.0,0.0,0.0,0.0,0.0,0.0,0.0,0.0,0.0,0.0,0.0,0.0,0.0,0.0,0.0,0.0,0.0,0.0,0.0,0.0,0.0,0.0,0.0,0.0,0.0,0.0,0.0,0.0,0.0,0.0,0.0,0.0,0.0,0.0,0.0,0.0,0.0,0.0,0.0,0.0,0.0,0.0,0.0,0.0,0.0,0.0,0.0,0.0,0.0,0.0,0.0,0.0,0.0,0.0,0.0,0.0,0.0,0.0,0.0,0.0,0.0,0.0,0.0,0.0,0.0,0.0,0.0,0.0,0.0,0.0,0.0,0.0,0.0,0.0,0.0,0.0,0.0,0.0,0.0,0.0,0.0,0.0,0.0,0.0,0.0,0.0,0.0,0.0,0.0,0.0,0.0,0.0,0.0,0.0,0.0,0.0,0.0,0.0,0.0,0.0,0.0,0.0,0.0,0.0,0.0,0.0,0.0,0.0,0.0,0.0,0.0,0.0,0.0,0.0,0.0,0.0,0.0,0.0,0.0,0.0,0.0,0.0,0.0,0.0,0.0,0.0,0.0,0.0,0.0,0.0,0.0,0.0,0.0,0.0,0.0,0.0,0.0,0.0,0.0,0.0,0.0,0.0,0.0,0.0,0.0,0.0,0.0,0.0,0.0,0.0,0.0,0.0,0.0,0.0,0.0,0.0,0.0,0.0,0.0,0.0,0.0,0.0,0.0,0.0,0.0,0.0,0.0,0.0,0.0,0.0,0.0,0.0,0.0,0.0,0.0,0.0,0.0,0.0,0.0,0.0,0.0,0.0,0.0,0.0,0.0,0.0,0.0,0.0,0.0,0.0,0.0,0.0,0.0,0.0,0.0,0.0,0.0,0.0,0.0,0.0,0.0,0.0,0.0,0.0,0.0,0.0,0.0,0.0,0.0,0.0,0.0,0.0,0.0,0.0,0.0,0.0,0.0,0.0,0.0,0.0,0.0,0.0,0.0,0.0,0.0,0.0,0.0,0.0,0.0,0.0,0.0,0.0,0.0,0.0,0.0,0.0,0.0,0.0,0.0,0.0,0.0,0.0,0.0,0.0,0.0,0.0,0.0,0.0,0.0,0.0,0.0,0.0,0.0,0.0,0.0,0.0,0.0,0.0,0.0,0.0,0.0,0.0,0.0,0.0,0.0,0.0,0.0,0.0,0.0,0.0,0.0,0.0,0.0,0.0,0.0,0.0,0.0,0.0,0.0,0.0,0.0,0.0,0.0,0.0,0.0,0.0,0.0,0.0,0.0,0.0,0.0,0.0,0.0,0.0,0.0,0.0,0.0,0.0,0.0,0.0,0.0,0.0,0.0,0.0,0.0,0.0,0.0,0.0,0.0,0.0,0.0,0.0,0.0,0.0,0.0,0.0,0.0,0.0,0.0,0.0,0.0,0.0,0.0,0.0,0.0,0.0,0.0,0.0,0.0,0.0,0.0,0.0,0.0,0.0,0.0,0.0,0.0,0.0,0.0,0.0,0.0,0.0,0.0,0.0,0.0,0.0,0.0,0.0,0.0,0.0,0.0,0.0,0.0,0.0,0.0,0.0,0.0,0.0,0.0,0.0,0.0,0.0,0.0,0.0,0.0,0.0,0.0,0.0,0.0,0.0,0.0,0.0,0.0,0.0,0.0,0.0,0.0,0.0,0.0,0.0,0.0,0.0,0.0,0.0,0.0,0.0,0.0,0.0,0.0,0.0,0.0,0.0,0.0,0.0,0.0,0.0,0.0,0.0,0.0,0.0,0.0,0.0,0.0,0.0,0.0,0.0,0.0,0.0,0.0,0.0,0.0,0.0,0.0,0.0,0.0,0.0,0.0,0.0,0.0,0.0,0.0,0.0,0.0,0.0,0.0,0.0,0.0,0.0,0.0,0.0,0.0,0.0,0.0,0.0,0.0,0.0,0.0,0.0,0.0,0.0,0.0,0.0,0.0,0.0,0.0,0.0,0.0,0.0,0.0,0.0,0.0,0.0,0.0,0.0,0.0,0.0,0.0,0.0,0.0,0.0,0.0,0.0,0.0,0.0,0.0,0.0,0.0,0.0,0.0,0.0,0.0,0.0,0.0,0.0,0.0,0.0,0.0,0.0,0.0,0.0,0.0,0.0,0.0,0.0,0.0,0.0,0.0,0.0,0.0,0.0,0.0,0.0,0.0,0.0,0.0,0.0,0.0,0.0,0.0,0.0,0.0,0.0,0.0,0.0,0.0,0.0,0.0,0.0,0.0,0.0,0.0,0.0,0.0,0.0,0.0,0.0,0.0,0.0,0.0,0.0,0.0,0.0,0.0,0.0,0.0,0.0,0.0,0.0,0.0,0.0,0.0,0.0,0.0,0.0,0.0,0.0,0.0,0.0,0.0,0.0,0.0,0.0,0.0,0.0,0.0,0.0,0.0,0.0,0.0,0.0,0.0,0.0,0.0,0.0,0.0,0.0,0.0,0.0,0.0,0.0,0.0,0.0,0.0,0.0,0.0,0.0,0.0,0.0,0.0,0.0,0.0,0.0,0.0,0.0,0.0,0.0,0.0,0.0,0.0,0.0,0.0,0.0,0.0,0.0,0.0,0.0,0.0,0.0,0.0,0.0,0.0,0.0,0.0,0.0,0.0,0.0,0.0,0.0,0.0,0.0,0.0,0.0,0.0,0.0,0.0,0.0,0.0,0.0,0.0,0.0,0.0,0.0,0.0,0.0,0.0,0.0,0.0,0.0,0.0,0.0,0.0,0.0,0.0,0.0,0.0,0.0,0.0,0.0,0.0,0.0,0.0,0.0,0.0,0.0,0.0,0.0,0.0,0.0,0.0,0.0,0.0,0.0,0.0,0.0,0.0,0.0,0.0,0.0,0.0,0.0,0.0,0.0,0.0,0.0,0.0,0.0,0.0,0.0,0.0,0.0,0.0,0.0,0.0,0.0,0.0,0.0,0.0,0.0,0.0,0.0,0.0,0.0,0.0,0.0,0.0,0.0,0.0,0.0,0.0,0.0,0.0,0.0,0.0,0.0,0.0,0.0,0.0,0.0,0.0,0.0,0.0,0.0,0.0,0.0,0.0,0.0,5.4123,0.0,0.0,0.0,0.0,0.0,0.0,0.0,0.0,0.0,0.0,0.0,0.0,0.0,0.0,0.0,0.0,0.0,0.0,0.0,0.0,0.0,0.0,0.0,0.0,0.0,0.0,0.0,4.6767,4.7035,4.6995,4.6984,4.7129,4.7507,4.7964,4.8354,4.8718,4.9595,5.0465,5.129,5.1687,5.2314,5.3131,5.4436,5.4357,5.3238,0.0,0.0,0.0,0.0,0.0,0.0,0.0,0.0,0.0,0.0,0.0,0.0,0.0,0.0,0.0,0.0,0.0,0.0,0.0,0.0,0.0,0.0,0.0,0.0,0.0,0.0,0.0,0.0,0.0,0.0,0.0,0.0,0.0,0.0,0.0,0.0,0.0,0.0,0.0,0.0,0.0,0.0,0.0,0.0,0.0,0.0,0.0,0.0,0.0,0.0,0.0,0.0,0.0,0.0,0.0,0.0,0.0,0.0,0.0,0.0,0.0,0.0,0.0,0.0,0.0,0.0,0.0,0.0,0.0,0.0,0.0,5.7971,0.0,0.0,0.0,0.0,0.0,0.0,0.0,0.0,0.0,0.0,0.0,0.0,0.0,0.0,0.0,0.0,0.0,0.0,0.0,0.0,0.0,0.0,0.0,4.6863,4.7421,4.7548,4.7998,4.8347,4.8462,4.8249,4.8161,4.8315,4.8469,4.897,4.9817,4.9971,5.0738,5.2118,5.2733,5.4391,5.7051,5.8209,5.7668,5.5745,5.6546,0.0,0.0,0.0,0.0,0.0,0.0,0.0,0.0,0.0,0.0,0.0,0.0,0.0,0.0,0.0,0.0,0.0,0.0,0.0,0.0,0.0,0.0,0.0,0.0,0.0,0.0,0.0,0.0,0.0,0.0,0.0,0.0,0.0,0.0,0.0,0.0,0.0,0.0,0.0,0.0,0.0,0.0,0.0,0.0,0.0,0.0,0.0,0.0,0.0,0.0,0.0,0.0,0.0,0.0,0.0,0.0,0.0,0.0,0.0,0.0,0.0,0.0,0.0,0.0,0.0,6.9591,7.0781,7.1396,7.1362,6.8837,6.5584,6.2169,0.0,0.0,0.0,0.0,0.0,0.0,0.0,0.0,0.0,0.0,0.0,0.0,0.0,0.0,0.0,0.0,0.0,0.0,0.0,0.0,0.0,0.0,4.7091,4.7797,4.9157,4.8586,4.8436,4.9208,4.8548,4.843,4.9203,4.9936,5.0742,5.1541,5.2314,5.2815,5.3045,5.6007,5.9123,6.2354,6.4669,6.5702,6.5338,5.9203,5.8302,6.1144,0.0,0.0,0.0,0.0,0.0,0.0,0.0,0.0,0.0,0.0,0.0,0.0,0.0,0.0,0.0,0.0,0.0,0.0,0.0,0.0,0.0,0.0,0.0,0.0,0.0,0.0,0.0,0.0,0.0,0.0,0.0,0.0,0.0,0.0,0.0,0.0,0.0,0.0,0.0,0.0,0.0,5.2313,5.4744,0.0,0.0,0.0,0.0,0.0,0.0,0.0,0.0,0.0,0.0,0.0,0.0,0.0,0.0,6.67,6.8512,6.9996,7.1257,7.4374,7.5311,7.4291,7.6612,7.8067,7.8798,7.974,0.0,6.7125,6.3669,0.0,0.0,0.0,0.0,0.0,0.0,0.0,0.0,0.0,0.0,0.0,0.0,0.0,0.0,0.0,0.0,0.0,0.0,0.0,0.0,0.0,4.9283,5.0859,5.0977,5.4128,5.5039,5.2532,5.3696,5.3624,5.1624,5.1432,5.1777,5.262,5.2087,5.3203,5.6085,6.0568,6.3967,6.6365,6.7144,6.8063,6.8868,6.4451,6.2558,6.2553,5.9902,0.0,0.0,0.0,0.0,0.0,0.0,0.0,0.0,0.0,0.0,0.0,0.0,0.0,0.0,0.0,0.0,0.0,0.0,0.0,0.0,0.0,0.0,0.0,0.0,0.0,0.0,0.0,0.0,0.0,0.0,0.0,0.0,0.0,0.0,0.0,0.0,0.0,0.0,0.0,5.3737,5.624,5.6401,5.739,5.7155,0.0,0.0,0.0,0.0,0.0,0.0,0.0,0.0,0.0,6.5818,6.6829,6.8874,7.2142,7.4746,7.6796,7.8204,8.1149,8.2177,8.157,8.3646,8.476,8.5127,8.5833,8.2987,7.7436,7.209,6.7439,6.3401,0.0,0.0,0.0,0.0,0.0,6.2898,0.0,0.0,0.0,0.0,0.0,0.0,0.0,0.0,0.0,0.0,0.0,0.0,4.8808,5.2096,5.4486,5.5272,5.9372,6.0488,5.7103,5.7734,5.6894,5.3971,5.3006,5.2851,5.3508,5.3359,5.5804,6.0946,6.5783,6.9125,7.102,7.1224,7.1914,7.29,7.1341,6.8654,6.5114,6.2252,5.9729,5.7433,0.0,0.0,0.0,0.0,0.0,0.0,0.0,0.0,0.0,0.0,0.0,0.0,0.0,0.0,0.0,0.0,0.0,0.0,0.0,0.0,0.0,0.0,0.0,0.0,0.0,0.0,0.0,0.0,0.0,0.0,0.0,0.0,0.0,0.0,0.0,0.0,0.0,5.7625,5.9707,5.8443,6.0921,6.1076,0.0,0.0,0.0,0.0,0.0,0.0,6.4598,6.6668,6.9358,7.2756,7.3791,7.5587,7.831,8.0797,8.292,8.4686,8.68,8.7928,8.8223,8.9467,9.0051,9.0055,8.9796,8.8387,8.5746,7.9322,7.3206,6.7686,6.5692,6.4059,0.0,6.5185,6.6225,6.7094,0.0,0.0,0.0,0.0,0.0,0.0,0.0,0.0,0.0,0.0,0.0,4.809,5.3719,5.5197,5.805,6.3655,6.2154,6.1432,6.2774,5.7778,5.5013,5.5552,5.4782,5.4396,5.4435,5.8283,6.2872,6.8174,7.1647,7.4705,7.7397,7.9798,8.0646,8.0158,8.0063,7.6881,7.1153,6.4887,6.2547,6.2728,5.8407,0.0,0.0,0.0,0.0,0.0,0.0,0.0,0.0,0.0,0.0,0.0,0.0,0.0,0.0,0.0,0.0,0.0,0.0,0.0,0.0,0.0,0.0,0.0,0.0,0.0,0.0,0.0,0.0,0.0,0.0,0.0,0.0,0.0,0.0,0.0,0.0,0.0,0.0,6.1866,6.5511,0.0,0.0,0.0,0.0,6.1781,6.6978,7.0682,7.181,7.4265,7.7233,8.0696,8.1686,8.3715,8.7033,8.7224,8.8205,9.0011,9.0909,9.1845,9.2767,9.2859,9.29,9.2845,9.1962,9.06,8.8469,8.1442,7.6499,7.3038,7.0409,6.8953,6.8424,6.9308,7.0287,7.1188,0.0,0.0,0.0,0.0,0.0,0.0,0.0,0.0,4.6337,4.6996,4.9259,5.2366,5.6567,6.1679,6.6051,6.9277,7.1154,7.1056,6.8356,6.4706,6.1787,5.9903,5.69,5.6283,5.8514,6.2834,6.7562,7.2764,7.6376,7.9472,8.1985,8.1975,8.2144,8.2418,8.1913,7.9934,7.6641,7.0649,6.6157,6.2702,5.8526,5.6067,0.0,0.0,0.0,0.0,0.0,0.0,0.0,0.0,0.0,0.0,0.0,0.0,0.0,0.0,0.0,0.0,0.0,0.0,0.0,0.0,0.0,0.0,0.0,0.0,0.0,0.0,0.0,0.0,0.0,0.0,0.0,0.0,0.0,0.0,0.0,0.0,0.0,7.0117,7.4037,0.0,0.0,6.8772,6.9235,6.9498,7.3054,7.6076,7.8092,8.0245,8.2943,8.6323,8.6786,8.8333,9.1157,9.1676,9.2018,9.214,9.2956,9.3242,9.3083,9.3116,9.3106,9.3065,9.2166,9.1131,8.9885,8.7313,8.3225,7.8389,7.5841,7.4355,7.3902,7.5812,7.6521,7.6737,0.0,0.0,0.0,0.0,0.0,0.0,0.0,0.0,4.646,4.7733,5.1364,5.5763,6.0731,6.7135,7.2305,7.5388,7.6752,7.6074,7.2912,6.7947,6.4221,6.2207,5.9365,5.9483,6.294,6.7861,7.2654,7.7282,8.0632,8.3252,8.5173,8.4252,8.4087,8.4596,8.4054,8.2924,8.1166,7.7407,7.1714,6.4928,6.0893,5.9278,5.8654,0.0,0.0,0.0,0.0,0.0,0.0,0.0,0.0,0.0,0.0,0.0,0.0,0.0,0.0,0.0,0.0,0.0,0.0,0.0,0.0,0.0,0.0,0.0,0.0,0.0,0.0,0.0,0.0,0.0,0.0,0.0,0.0,0.0,0.0,0.0,7.3765,7.5521,7.9736,8.0488,7.5365,7.547,7.608,7.6584,7.9867,8.2611,8.4343,8.6434,8.8629,9.0848,9.1015,9.1831,9.3492,9.4047,9.4153,9.3923,9.4446,9.4442,9.3886,9.3611,9.3354,9.306,9.2166,9.1515,9.0992,9.0621,8.8102,8.4248,8.166,7.9861,7.8906,8.0856,8.1217,8.0882,0.0,0.0,0.0,0.0,0.0,0.0,0.0,4.5831,4.6784,4.9296,5.2719,5.8058,6.6375,7.1352,7.6434,8.22,7.8295,7.5712,7.6263,6.6874,6.1526,6.2117,6.2173,6.3957,6.7618,7.3368,7.8136,8.1952,8.439,8.6084,8.7056,8.7075,8.7055,8.7055,8.7055,8.6211,8.4711,8.4678,7.9213,7.0227,6.6045,6.4283,6.3769,0.0,0.0,0.0,0.0,0.0,0.0,0.0,0.0,0.0,0.0,0.0,0.0,0.0,0.0,0.0,0.0,0.0,0.0,0.0,0.0,0.0,0.0,0.0,0.0,0.0,0.0,0.0,0.0,0.0,0.0,0.0,0.0,0.0,6.584,7.2802,7.7679,7.7794,8.2359,8.3489,7.8385,8.1004,8.3006,8.2826,8.7465,9.0367,9.0512,9.2789,9.4191,9.4332,9.4341,9.4341,9.4377,9.4377,9.474,9.5496,9.5533,9.5496,9.5423,9.4679,9.3876,9.3047,9.217,9.1808,9.1734,9.0955,9.062,9.0344,8.7631,8.5242,8.339,8.4149,8.4011,8.3348,0.0,0.0,0.0,0.0,0.0,0.0,0.0,4.5751,4.6942,5.0008,5.6614,6.3598,7.0217,7.8049,8.4016,8.6972,8.2755,7.9421,7.8183,6.867,6.3048,6.2955,6.4169,6.7947,7.4595,7.7043,8.0577,8.5334,8.6756,8.7914,8.8755,8.8757,8.8739,8.8739,8.8745,8.8178,8.7164,8.6576,8.4458,8.0836,7.3233,6.8795,6.6192,0.0,0.0,0.0,0.0,0.0,0.0,0.0,0.0,0.0,0.0,0.0,0.0,0.0,0.0,0.0,0.0,0.0,0.0,0.0,0.0,0.0,0.0,0.0,0.0,0.0,0.0,0.0,0.0,0.0,0.0,0.0,0.0,7.0222,7.2151,7.8492,8.3862,8.6519,9.0151,9.1441,8.8835,9.0031,9.0696,9.0003,9.1972,9.317,9.3218,9.3853,9.4522,9.5144,9.5176,9.5469,9.6025,9.6025,9.5873,9.5496,9.6088,9.5768,9.463,9.4395,9.3872,9.306,9.2166,9.1808,9.1771,9.1546,9.1138,9.0481,8.9137,8.8215,8.7609,8.7249,8.6268,8.5017,0.0,0.0,0.0,0.0,0.0,0.0,0.0,4.5671,4.7172,5.1206,5.8924,6.6594,7.3269,8.0843,8.6037,8.7442,8.2556,7.8316,7.5909,6.8782,6.4588,6.4386,6.8458,7.3203,7.8501,8.132,8.4408,8.7847,8.8738,8.9813,9.094,9.094,9.1141,9.1434,9.1449,9.1028,9.0195,8.9369,8.8349,8.6807,8.0934,7.686,7.3689,6.8104,6.6618,6.7106,6.4085,6.3833,6.4493,6.1542,0.0,0.0,0.0,0.0,0.0,0.0,0.0,0.0,0.0,0.0,0.0,0.0,0.0,0.0,0.0,0.0,0.0,0.0,0.0,0.0,0.0,0.0,0.0,0.0,7.2154,7.7333,8.0847,8.4456,8.8019,9.1532,9.3645,9.4587,9.3941,9.4062,9.4114,9.3916,9.4476,9.4813,9.4813,9.5442,9.5883,9.5983,9.6313,9.657,9.6685,9.6685,9.646,9.6015,9.6497,9.602,9.4813,9.4813,9.4363,0.0,9.2716,9.2354,9.2317,9.195,9.151,0.0,0.0,0.0,0.0,0.0,8.7908,8.6705,0.0,0.0,0.0,0.0,0.0,0.0,0.0,4.5592,4.7476,5.2669,6.0106,6.7764,7.5147,8.0953,8.4621,8.5436,7.9747,7.4726,7.1469,6.8068,6.6516,6.7287,7.4144,7.8963,8.1133,8.5859,8.8774,8.9657,9.0554,9.1792,9.3221,9.3254,9.3607,9.431,9.431,9.3906,9.3175,9.251,9.1349,8.9845,8.8413,8.6069,8.2761,7.6792,7.593,7.7353,7.2967,7.0437,6.8644,6.5386,0.0,0.0,0.0,0.0,0.0,0.0,0.0,0.0,0.0,0.0,0.0,0.0,0.0,0.0,0.0,0.0,0.0,0.0,0.0,0.0,0.0,0.0,0.0,0.0,7.8273,8.4177,9.0162,9.0484,9.1202,9.4152,9.4716,9.5115,9.5741,9.5242,9.5097,9.5758,9.587,9.59,9.59,0.0,0.0,0.0,0.0,9.7681,9.6979,9.6869,9.6832,9.6832,9.6722,9.6277,9.5496,9.5496,9.5066,9.4267,9.3455,9.3083,9.301,9.217,9.1808,9.173,9.1028,9.0248,8.9546,8.9546,8.8968,0.0,0.0,0.0,0.0,0.0,0.0,0.0,0.0,4.5592,4.7681,5.3484,6.1035,6.8048,7.3802,8.0364,8.4479,8.4787,7.947,7.4271,6.992,6.8573,7.0358,7.583,7.9571,8.3345,8.7196,8.9657,9.1021,9.1326,9.2868,9.3763,9.4085,9.4064,9.4147,9.4313,9.4313,9.4211,9.4105,9.4593,9.4229,9.335,9.3019,8.9083,8.312,8.0555,7.8683,7.7239,7.5629,7.6122,7.6957,7.3448,7.2342,7.1734,6.7562,0.0,0.0,0.0,0.0,0.0,0.0,0.0,0.0,0.0,0.0,0.0,0.0,0.0,0.0,0.0,0.0,0.0,0.0,0.0,0.0,7.8475,8.3957,8.9276,9.4561,9.5814,9.6445,9.7098,9.7746,9.8222,9.8368,9.8255,9.8226,9.8372,9.8398,9.8401,9.8401,9.8694,0.0,9.8621,9.8805,9.8805,9.8621,9.797,9.7686,9.7649,0.0,0.0,9.5496,9.5496,9.5066,9.4267,9.3455,9.3083,9.301,9.217,9.1808,9.1771,9.1624,9.1065,9.0363,9.0363,8.945,8.8169,0.0,0.0,0.0,0.0,0.0,0.0,0.0,4.5592,4.7577,5.3139,5.8959,6.4576,6.9791,7.4117,7.6335,7.5617,7.1882,6.9066,6.7872,7.0957,7.513,8.0285,8.4673,8.8028,9.0255,9.2055,9.3192,9.3648,9.4088,9.493,9.609,9.5702,9.5934,9.6722,9.7137,9.7303,9.7299,9.7312,9.7063,9.6637,9.5832,9.3083,8.9247,8.7206,8.5414,8.3805,8.2573,8.2181,8.1695,7.8281,7.6842,7.5708,7.1506,6.7523,6.3942,0.0,0.0,0.0,0.0,0.0,0.0,0.0,0.0,0.0,0.0,0.0,0.0,0.0,0.0,6.4508,6.8363,0.0,7.8538,8.4137,8.8651,9.2947,9.7194,9.8884,9.9411,9.8594,9.9213,9.9544,9.9135,9.947,9.9544,9.9135,9.947,9.9507,9.9135,9.947,9.969,9.969,10.0099,10.0099,9.969,9.9296,9.8714,9.7906,9.7503,9.6869,9.6088,9.6088,9.5873,9.5437,9.4226,9.3712,9.3607,9.2322,9.1808,9.1808,9.1808,9.1546,9.1216,9.1216,9.045,8.9392,0.0,0.0,0.0,0.0,0.0,0.0,0.0,4.5592,4.7316,5.2094,5.6032,6.0144,6.4767,6.6732,6.7083,6.5586,6.4585,6.5218,6.7905,7.4478,8.0203,8.4519,8.9542,9.2413,9.2816,9.4381,9.5552,9.6186,9.5872,9.669,9.8593,9.7945,9.831,9.9595,10.0215,10.0499,10.0495,9.9989,9.9606,9.9217,9.8093,9.7043,9.5978,9.3888,9.2324,9.1114,8.9651,8.7376,8.4679,8.223,8.0021,7.7693,7.461,7.2314,6.9918,6.5559,6.4482,0.0,0.0,0.0,0.0,0.0,0.0,0.0,0.0,0.0,6.3269,6.4993,6.8147,7.1949,7.6249,8.027,8.4406,8.8934,9.2642,9.6044,9.9115,10.099,10.1504,10.0204,10.0613,10.0686,9.9869,10.0498,10.0613,9.9654,10.0508,10.0603,9.9832,10.0613,10.0985,10.0985,10.1609,10.1693,10.0985,10.0691,9.9889,9.8604,9.8269,9.7791,9.7163,9.7016,9.6942,9.6832,9.5222,9.4451,9.4194,9.2689,9.2037,9.2056,9.1854,9.1808,9.1808,9.1808,9.1308,9.0612,0.0,0.0,0.0,0.0,0.0,0.0,0.0,0.0,4.6897,5.0493,5.379,5.6933,5.9799,6.214,6.2983,6.1724,6.5265,6.9396,7.3841,7.8978,8.5035,9.2218,9.4028,9.5595,9.708,9.8041,9.8626,9.8699,9.9984,10.0815,10.1113,10.1003,10.1083,10.1204,10.1287,10.1399,10.1404,10.2004,10.149,10.0187,10.0691,10.0111,9.8589,9.7584,9.5827,9.3782,9.2886,9.002,8.6783,8.7126,8.476,8.1713,8.1954,7.8955,7.4827,7.2148,6.7206,6.2175,6.0118,5.8231,5.7295,5.9274,6.0145,6.1562,0.0,0.0,7.0342,7.2309,7.5822,7.8995,8.0527,8.5308,8.9754,9.2012,9.5773,9.9101,10.1019,10.26,10.3596,10.3408,10.3403,10.3188,10.2406,10.2994,10.2899,10.1315,10.26,10.3104,10.2291,10.3114,10.3481,10.3481,10.3596,10.3596,10.3481,10.2096,10.1289,10.1105,9.9659,9.8915,9.8805,9.8085,9.776,9.7686,9.6057,9.4955,9.4231,9.3345,9.2955,9.2886,9.2101,9.1808,9.1808,9.1808,9.1308,9.0603,0.0,0.0,0.0,0.0,0.0,0.0,0.0,0.0,0.0,4.8881,5.0781,5.2508,5.4101,5.4953,5.5099,5.4378,6.1311,6.8137,7.3796,8.2071,8.9558,9.5817,9.7871,9.8973,9.9233,10.0517,10.1415,10.1898,10.2605,10.3402,10.4282,10.3785,10.3889,10.439,10.4387,10.4394,10.43,10.4216,10.341,10.2409,10.229,10.1002,9.9027,9.82,9.5816,9.2743,9.1422,8.8348,0.0,8.5298,8.3687,8.1705,8.3018,8.0049,7.5616,7.3226,6.8803,6.4202,6.1634,6.0768,6.0798,0.0,6.4588,6.775,7.0549,7.3051,7.5448,7.7782,8.1539,8.4972,8.6919,9.0477,9.3672,0.0,9.799,10.03,10.1995,10.2815,10.2999,10.261,10.2086,10.2191,10.3298,10.3701,10.3586,10.2894,10.3995,10.42,10.3398,10.3696,10.41,10.4609,10.4609,10.4609,10.4609,10.3481,10.238,10.1509,10.0319,9.9544,9.9061,9.8269,9.7388,9.646,9.5795,9.5029,9.4231,9.3441,9.3097,9.3056,9.2684,9.2262,9.1808,9.1808,9.1597,9.1308,0.0,0.0,0.0,0.0,0.0,0.0,0.0,0.0,0.0,0.0,4.7973,4.8767,4.9756,4.9795,4.9731,4.9654,5.8035,6.6131,7.2755,8.3058,9.1722,9.8117,10.0587,10.1788,10.1991,10.3287,10.4284,10.4913,10.5091,10.5904,10.7005,10.6386,10.649,10.7106,10.709,10.6885,10.6712,10.6093,10.5096,10.3789,10.3019,10.1305,9.8915,9.7202,9.3924,9.0042,8.8578,8.5041,8.1018,8.0814,7.9499,7.8328,8.0163,7.8434,7.5245,7.2606,6.876,6.4844,6.2606,6.3045,0.0,6.5607,6.9592,7.3738,7.5904,7.8629,8.1403,8.3763,8.7192,9.0268,9.1953,9.4328,9.6466,9.7905,9.9742,10.1415,10.2805,10.2585,10.1903,10.0701,9.9223,9.9181,10.1384,10.26,10.3298,10.3596,10.4493,10.4782,10.4289,10.4514,10.4913,10.5411,10.549,10.549,10.549,10.4604,10.3513,10.2207,10.1305,10.0498,9.9727,9.8704,9.7341,9.5832,9.5832,9.5506,9.4887,9.4106,9.3611,9.3428,9.3175,9.2565,9.1803,9.1804,9.1808,9.1808,0.0,0.0,0.0,0.0,0.0,0.0,0.0,0.0,0.0,0.0,0.0,0.0,0.0,4.8487,4.9267,5.0004,5.712,6.4674,7.1971,8.1193,9.0502,9.9716,10.1783,10.3801,10.6208,10.7011,10.7504,10.7498,10.8295,10.8694,10.8688,10.8685,10.8685,10.8705,10.8703,10.8293,10.7589,10.7505,10.6093,10.3789,10.3019,10.1305,9.8658,9.4735,9.0208,8.5889,8.5054,8.0604,7.5035,7.4271,7.2426,7.0851,7.3237,7.4441,0.0,7.1101,6.6491,6.2476,6.2702,0.0,6.6361,7.0654,7.4586,7.8313,8.1841,8.5716,8.9117,9.1064,9.3341,9.4835,9.4312,9.6128,9.8027,9.8926,10.1105,10.2884,10.3696,10.2495,10.0701,9.8273,9.5217,9.3964,0.0,9.9292,10.1908,10.27,10.42,10.5112,10.5117,10.5904,10.6308,10.6386,10.6386,10.6386,10.6386,10.549,10.4604,10.3812,10.2994,10.2191,10.1399,9.98,9.8185,9.6644,9.6644,9.6649,9.6566,9.5777,9.499,9.4205,9.3387,9.2582,9.1798,9.1817,9.1808,9.1808,0.0,0.0,0.0,0.0,0.0,0.0,0.0,0.0,0.0,0.0,0.0,0.0,0.0,0.0,0.0,0.0,5.5802,6.1962,6.8022,7.8043,8.6794,9.3557,9.9518,10.3287,10.4693,10.711,10.8705,10.9219,11.001,11.0408,11.0408,11.0393,11.0393,11.0414,10.9784,10.9103,10.8285,10.7287,10.539,10.2993,10.1587,9.9668,9.7194,9.4221,8.8388,8.1361,0.0,7.3107,6.8418,6.7584,6.6042,6.4904,6.7353,6.7534,6.6246,6.3028,6.3134,6.4386,6.4762,0.0,7.2775,7.7239,8.1119,8.4713,8.8052,9.0288,9.188,9.2542,9.2405,9.1936,9.1173,9.258,9.4452,9.6398,9.9622,10.2196,10.2999,10.2201,9.9815,9.5254,9.3749,0.0,0.0,0.0,0.0,10.1688,10.3403,10.4493,10.5117,10.6413,10.7199,10.7199,10.7199,10.7199,10.7199,10.5285,10.4215,10.389,10.2485,10.1499,10.0696,9.958,9.8516,9.7461,9.6942,9.6685,9.6639,9.5846,9.5349,9.5073,9.4806,9.3872,9.2725,9.3249,9.2762,9.1808,0.0,0.0,0.0,0.0,0.0,0.0,0.0,0.0,0.0,0.0,0.0,0.0,0.0,0.0,0.0,0.0,0.0,5.9021,6.3926,7.2405,8.021,8.69,9.1891,9.5694,9.8232,9.9218,10.0985,10.3486,10.4315,10.5789,10.7692,10.7993,10.8288,10.8603,10.8097,10.7402,10.6501,10.5206,10.3116,10.0314,9.7527,9.4621,9.1505,8.7321,8.1122,0.0,6.9405,6.4995,6.137,6.1129,6.0358,5.9728,6.1337,6.1294,6.0517,5.9899,6.2696,6.6563,6.9267,7.3971,7.9262,8.3698,8.7034,8.9853,9.2537,9.3345,9.3345,9.2753,9.1101,8.934,8.7936,8.8055,8.9564,9.3152,9.591,9.8599,10.1415,10.0182,9.7461,9.3561,9.2056,9.0922,0.0,0.0,0.0,10.0696,10.2312,10.3581,10.5002,10.6413,10.7199,10.7199,10.7199,10.7199,10.7199,10.5317,10.3985,10.3481,10.2086,10.0912,9.9842,9.9355,9.8516,9.7424,9.6906,9.6685,9.6644,9.6141,9.5597,9.5073,9.5064,9.4057,9.2684,9.3221,9.2721,9.1808,0.0,0.0,0.0,0.0,0.0,0.0,0.0,0.0,0.0,0.0,0.0,0.0,0.0,0.0,0.0,0.0,0.0,0.0,5.9772,6.471,7.1253,7.9774,7.9845,8.2194,8.7582,8.4894,8.6032,9.1441,9.2276,9.5401,10.0701,10.1502,10.2189,10.299,10.3013,10.2602,10.1819,10.1007,9.875,9.5479,9.0661,8.6416,8.2182,7.5186,6.9502,6.4801,6.0872,5.7285,5.4583,5.5288,5.5622,5.5732,5.5805,5.6458,5.7988,6.2022,6.5367,6.9168,7.5868,8.0971,8.5485,8.9775,9.2056,9.3629,9.5166,9.4809,9.3643,9.1808,8.9417,8.6885,0.0,0.0,8.3842,8.945,9.0698,9.3194,9.9512,9.7094,9.4304,0.0,0.0,0.0,0.0,0.0,0.0,9.9805,0.0,10.2485,10.5007,10.6014,10.6502,10.6502,10.6502,10.6502,10.6502,10.5605,10.431,10.27,10.1903,10.0686,9.9208,9.9135,9.8259,9.6832,9.6722,9.6685,9.6685,9.6685,9.5773,9.4361,9.4356,9.3327,9.1881,9.1881,9.184,9.1808,0.0,0.0,0.0,0.0,0.0,0.0,0.0,0.0,0.0,0.0,0.0,0.0,0.0,0.0,0.0,0.0,0.0,0.0,5.4822,6.0135,6.4757,6.8255,7.4548,7.8911,8.1012,8.2582,8.4417,8.6444,8.666,8.7509,8.8936,8.9743,9.0228,9.0448,9.103,9.121,9.0855,8.8882,8.6837,8.4672,8.099,7.8508,7.6743,7.3656,6.9489,6.5061,6.3437,5.9596,5.5215,5.4842,5.591,5.7598,5.8804,6.0603,6.3135,6.7787,7.1784,7.5908,8.1264,8.5779,8.9786,9.3373,9.4579,9.4987,9.5428,9.3932,9.1372,8.7293,8.3059,7.8797,0.0,0.0,0.0,8.6192,9.2106,0.0,10.1489,10.0691,0.0,9.5281,0.0,9.3414,9.2799,9.3648,0.0,0.0,10.0508,10.1893,10.4887,10.6491,10.731,10.731,10.731,10.731,10.731,10.5783,10.431,10.27,10.2485,10.1903,10.0801,9.9654,9.8878,9.8401,9.7231,9.6685,9.6685,9.6685,9.612,9.5184,9.5189,9.4207,9.2753,9.2771,9.2377,9.1808,0.0,0.0,0.0,0.0,0.0,0.0,0.0,0.0,0.0,0.0,0.0,0.0,0.0,0.0,0.0,0.0,0.0,0.0,0.0,5.5272,5.8342,6.0527,6.4528,6.7784,7.0029,7.047,7.2305,7.5619,7.5619,7.7047,7.9837,8.0268,8.0691,8.1049,8.1478,8.1678,8.1599,7.9867,7.8196,0.0,0.0,7.043,6.8826,6.6484,6.3693,6.0925,6.014,5.8911,5.7816,5.844,0.0,6.1156,6.3833,6.6336,6.9272,7.414,0.0,8.166,8.6913,9.0734,9.3818,9.5983,9.6534,9.58,9.2937,9.0707,8.7334,8.0645,7.5979,0.0,6.7647,0.0,0.0,0.0,0.0,0.0,10.0907,10.0985,9.9884,0.0,9.7818,0.0,9.6465,9.7131,9.8641,0.0,10.1007,10.2113,10.4887,10.6386,10.7095,10.7095,10.7095,10.69,10.6491,10.56,10.4493,10.3214,10.3214,10.2595,10.1509,10.0586,9.9585,9.8521,0.0,9.7016,9.6685,9.6685,9.6231,9.5478,9.5111,9.4198,9.307,9.2666,9.2235,9.1808,0.0,0.0,0.0,0.0,0.0,0.0,0.0,0.0,0.0,0.0,0.0,0.0,0.0,0.0,0.0,0.0,0.0,0.0,0.0,0.0,5.2826,5.5281,5.3998,5.4826,5.8346,5.5865,5.7302,6.2961,6.2961,6.5825,7.1291,7.1402,7.1814,7.2508,7.2602,7.2719,7.2759,7.1857,7.0652,6.9041,6.5355,6.2558,6.0341,0.0,5.6174,5.5665,5.5107,5.7036,6.045,6.3913,6.5271,6.6225,7.0153,7.3127,7.61,8.1008,8.3981,8.6917,9.2281,9.5322,9.7163,9.776,9.7649,9.574,8.9348,8.6228,8.2154,7.3373,0.0,6.5711,6.2432,6.5622,7.095,7.7675,0.0,9.14,9.9627,9.9989,9.9984,10.1614,10.1095,10.0393,9.98,10.0393,10.1415,10.3109,10.2506,10.3099,10.5196,10.6082,10.6491,10.6386,10.6386,10.6004,10.5301,10.5306,10.4902,10.4105,10.4105,10.3188,10.1698,10.1499,10.0293,9.82,0.0,0.0,9.6832,9.6722,9.616,9.5255,9.4584,9.3749,9.284,9.2092,9.1808,9.1808,0.0,0.0,0.0,0.0,0.0,0.0,0.0,0.0,0.0,0.0,4.8445,0.0,0.0,0.0,0.0,0.0,0.0,0.0,0.0,0.0,0.0,5.1163,5.2454,5.3544,5.4239,5.4989,5.5952,5.7053,5.7053,5.7641,5.8742,5.9428,5.9822,5.9961,6.0615,6.1312,6.1832,6.0364,5.9572,5.913,5.7091,5.603,5.56,5.5042,0.0,0.0,5.7195,5.7387,5.8722,6.72,7.1384,7.3626,7.7055,8.0249,8.3654,8.85,9.0739,9.2423,9.6066,9.786,9.8552,9.8012,9.6401,9.3391,8.7554,8.2366,0.0,0.0,6.3937,6.0676,5.7452,6.2925,7.0487,7.8307,8.5567,9.323,10.2008,10.2013,10.1688,0.0,0.0,0.0,0.0,0.0,0.0,0.0,0.0,0.0,10.6203,10.69,10.7089,10.6418,10.6386,10.6308,10.6198,10.6198,10.571,10.4897,10.4897,10.4011,10.2485,10.1793,10.0917,9.981,0.0,0.0,9.7649,9.6979,9.5832,9.4496,9.4363,9.3386,9.2019,9.184,9.1808,9.1808,0.0,0.0,0.0,0.0,0.0,0.0,0.0,0.0,0.0,0.0,5.4197,5.2621,0.0,0.0,0.0,0.0,0.0,0.0,0.0,0.0,0.0,0.0,0.0,0.0,5.2561,5.334,5.415,5.4992,0.0,5.4583,5.4955,5.4944,5.4946,5.495,5.5339,5.5711,5.6032,5.5246,5.4917,5.4872,5.4086,5.3794,0.0,0.0,0.0,0.0,0.0,5.7852,6.0207,6.6185,7.2855,7.9323,8.2998,8.6705,9.0188,9.2937,9.4593,9.6213,9.9008,10.0114,10.0182,9.9333,9.6396,9.151,8.3247,0.0,0.0,0.0,5.8654,5.6672,5.4727,6.0645,0.0,7.3233,7.9874,8.7912,9.809,9.8494,0.0,10.4582,10.4918,0.0,0.0,0.0,0.0,0.0,0.0,0.0,10.7587,10.7603,10.7194,10.6418,10.6386,10.6386,10.6386,10.6386,10.6198,10.5789,10.5789,10.4902,10.3293,10.2894,10.1908,10.0204,0.0,0.0,9.7833,9.7016,9.6245,9.5474,9.4638,9.3799,9.2983,9.2138,9.1808,9.1808,0.0,0.0,0.0,0.0,0.0,0.0,0.0,5.1781,5.3734,5.9942,6.0482,5.8917,5.5232,5.1207,4.8543,0.0,0.0,0.0,0.0,0.0,0.0,0.0,0.0,0.0,0.0,0.0,0.0,0.0,5.3437,0.0,0.0,0.0,0.0,0.0,0.0,5.3214,5.3214,5.3214,5.3214,0.0,0.0,0.0,0.0,0.0,0.0,0.0,0.0,5.7536,6.06,6.412,7.1468,7.9845,8.4246,8.9716,9.4593,9.4914,9.6612,9.8861,10.0917,10.1614,10.1499,10.0503,9.613,8.9413,7.9348,7.2786,0.0,5.72,5.4696,5.399,5.3547,5.8584,6.4203,0.0,7.4034,8.1823,9.3359,9.4896,9.7571,0.0,10.6203,0.0,0.0,0.0,0.0,0.0,0.0,0.0,10.9098,10.8007,10.7084,10.6685,10.6497,10.6386,10.6386,10.6386,10.6386,10.6386,10.6386,10.561,10.4184,10.3995,10.2789,10.0801,0.0,0.0,0.0,9.7089,9.6607,9.6313,9.5034,9.4341,9.3864,9.2579,9.1955,9.1808,0.0,0.0,0.0,0.0,0.0,0.0,0.0,5.3294,5.7643,6.7362,6.5322,6.2214,6.0328,5.6967,5.2754,0.0,0.0,0.0,0.0,0.0,0.0,0.0,0.0,0.0,0.0,0.0,0.0,0.0,0.0,0.0,0.0,0.0,0.0,0.0,0.0,0.0,0.0,5.3214,0.0,0.0,0.0,0.0,0.0,0.0,0.0,0.0,0.0,5.5367,5.6121,6.2992,6.6953,6.9973,7.5469,8.5596,9.5134,9.3744,0.0,0.0,10.121,10.2008,10.2186,10.0691,9.4446,8.6481,7.8193,0.0,6.2704,5.5907,5.388,5.351,5.4179,5.6638,6.1083,6.8755,7.2933,7.9462,9.1615,9.5144,9.8374,10.3518,0.0,0.0,10.6386,0.0,0.0,0.0,0.0,0.0,0.0,10.7703,10.679,10.7498,10.6796,10.6386,10.6386,10.6386,10.6386,10.6386,10.6386,10.5899,10.5013,10.4205,10.3408,10.2412,0.0,0.0,0.0,9.7341,9.6277,9.5611,9.546,9.451,9.3194,9.3051,9.2464,9.1808,0.0,0.0,0.0,0.0,0.0,0.0,0.0,5.3731,5.7916,6.9682,6.9256,6.7451,6.6265,6.2637,5.6467,0.0,0.0,0.0,0.0,0.0,0.0,0.0,0.0,0.0,0.0,0.0,0.0,0.0,0.0,0.0,0.0,0.0,0.0,0.0,0.0,0.0,0.0,0.0,0.0,0.0,0.0,0.0,0.0,0.0,0.0,0.0,0.0,0.0,5.549,5.7909,6.2105,6.6289,6.6583,7.4548,8.4678,0.0,9.3932,9.8741,10.1499,10.2815,10.2994,10.1389,9.3827,8.4907,7.7749,0.0,6.1049,5.5537,5.3767,5.3287,5.362,5.4876,5.7516,6.2689,6.4194,6.8822,8.049,8.3393,8.8096,9.8337,10.1384,0.0,0.0,0.0,0.0,0.0,0.0,0.0,0.0,10.8414,10.7514,10.69,10.6607,10.6386,10.6386,10.6386,10.6386,10.6386,10.6386,10.5893,10.5117,10.4284,10.3519,10.259,0.0,0.0,0.0,9.7341,9.6497,9.6167,9.5685,9.5098,9.4478,9.4011,9.3309,9.257,0.0,0.0,0.0,0.0,0.0,0.0,5.3426,5.477,5.9017,7.0017,7.0716,6.9958,6.9396,6.4147,5.7327,4.8942,0.0,0.0,0.0,0.0,0.0,0.0,0.0,0.0,0.0,0.0,0.0,0.0,0.0,0.0,0.0,0.0,0.0,0.0,0.0,0.0,0.0,0.0,0.0,0.0,0.0,0.0,0.0,0.0,0.0,0.0,0.0,0.0,0.0,0.0,0.0,6.2068,5.9973,6.5224,7.385,8.2476,8.9707,9.5763,9.9837,10.2008,10.2904,10.1504,9.3244,8.3805,0.0,0.0,5.9945,5.5356,5.3767,5.3214,5.3214,5.3843,5.539,5.8355,5.9165,6.3056,7.3435,7.6236,8.1415,9.2831,0.0,0.0,0.0,0.0,0.0,0.0,0.0,0.0,0.0,10.8697,10.8196,10.6811,10.6486,10.6386,10.6386,10.6386,10.6386,10.6386,10.6386,10.5893,10.5117,10.431,10.3288,10.2186,0.0,0.0,0.0,9.7273,9.6685,9.6649,9.6093,9.5702,9.5395,9.4617,9.3772,9.3047,0.0,0.0,0.0,0.0,0.0,0.0,0.0,5.6897,6.1925,6.882,6.8986,6.8422,6.8429,6.013,5.455,5.4438,0.0,0.0,0.0,0.0,0.0,0.0,0.0,0.0,0.0,0.0,0.0,0.0,0.0,0.0,0.0,0.0,0.0,0.0,0.0,0.0,0.0,0.0,0.0,0.0,0.0,0.0,0.0,0.0,0.0,0.0,0.0,0.0,0.0,0.0,0.0,0.0,0.0,5.9636,6.4845,7.4569,8.3711,9.1542,9.5658,9.9076,10.1284,10.0508,9.2391,8.31,0.0,6.7977,5.9278,5.5244,5.3767,5.3214,5.3214,5.3843,5.5207,5.7632,6.067,6.5579,7.3733,7.7712,8.1868,0.0,0.0,0.0,0.0,0.0,0.0,0.0,0.0,0.0,0.0,10.8411,10.8406,10.7581,10.6806,10.6386,10.6386,10.6386,10.6386,10.6386,10.6386,10.5893,10.5117,10.4284,10.3004,0.0,0.0,0.0,0.0,9.7057,9.6685,9.6685,9.6681,9.6183,9.5409,9.4604,9.3808,9.2973,0.0,0.0,0.0,0.0,0.0,0.0,0.0,5.1076,5.5025,6.1823,6.1992,6.261,6.5488,5.9045,5.4516,5.4497,0.0,0.0,0.0,0.0,0.0,0.0,0.0,0.0,0.0,0.0,0.0,0.0,0.0,0.0,0.0,0.0,0.0,0.0,0.0,0.0,0.0,0.0,0.0,0.0,0.0,0.0,0.0,0.0,0.0,0.0,0.0,0.0,0.0,0.0,0.0,0.0,0.0,0.0,0.0,6.4933,7.4478,8.3842,8.6803,8.9555,9.0991,8.8536,8.2484,7.595,7.1402,6.4784,5.8572,5.5131,5.3767,5.3214,5.3214,5.3398,5.5091,5.9725,6.1303,6.405,6.9956,0.0,0.0,8.755,9.7475,0.0,0.0,0.0,0.0,0.0,0.0,0.0,0.0,10.7801,10.7599,10.6811,10.6486,10.6386,10.6386,10.6386,10.6386,10.6386,10.6386,10.5893,10.5081,10.4293,0.0,0.0,0.0,0.0,0.0,9.7043,9.6685,9.6685,9.6685,9.6224,9.5455,9.5221,9.4253,9.3065,0.0,0.0,0.0,0.0,0.0,0.0,0.0,4.8432,5.1516,5.6035,5.5947,5.7295,6.2143,5.5771,5.2039,5.4318,0.0,0.0,0.0,0.0,0.0,0.0,0.0,0.0,0.0,0.0,0.0,0.0,0.0,0.0,0.0,0.0,0.0,0.0,0.0,0.0,0.0,0.0,0.0,0.0,0.0,0.0,5.3343,0.0,0.0,0.0,0.0,0.0,0.0,0.0,0.0,0.0,0.0,0.0,0.0,0.0,6.5818,7.3678,7.9172,8.2655,8.416,8.186,7.7014,7.1835,6.8101,6.2615,5.7545,5.495,5.3767,5.3214,5.3214,5.3437,5.4798,5.8327,5.9905,6.2398,0.0,0.0,0.0,8.8683,0.0,0.0,0.0,0.0,0.0,0.0,0.0,0.0,0.0,0.0,10.7211,10.6386,10.6386,10.6386,10.6386,10.6088,10.6088,10.6386,10.5799,10.5207,10.4609,10.3485,0.0,0.0,0.0,0.0,0.0,9.6896,9.6685,9.6685,9.6685,9.639,9.5926,9.5597,9.4659,9.3515,0.0,0.0,0.0,0.0,0.0,0.0,0.0,0.0,0.0,0.0,5.0843,5.248,5.7926,5.078,4.7813,0.0,0.0,0.0,0.0,0.0,0.0,0.0,0.0,0.0,0.0,0.0,0.0,5.6813,5.8535,6.0624,6.3089,0.0,0.0,0.0,0.0,0.0,0.0,0.0,0.0,0.0,0.0,5.2998,0.0,0.0,0.0,0.0,0.0,0.0,0.0,0.0,0.0,0.0,0.0,0.0,0.0,0.0,0.0,0.0,0.0,7.7117,7.9393,7.856,7.4294,6.9545,6.6439,6.104,0.0,5.4656,5.3733,5.3214,5.3361,5.388,5.4436,5.484,0.0,0.0,0.0,7.2781,0.0,0.0,0.0,0.0,0.0,0.0,0.0,0.0,0.0,0.0,0.0,0.0,10.7095,10.6313,10.6313,10.6313,10.6308,10.549,10.5484,10.6313,10.4698,10.388,10.3801,10.2186,0.0,0.0,0.0,0.0,0.0,9.6685,9.6685,9.6685,9.6685,9.6681,9.6526,9.5723,9.4913,9.4111,0.0,0.0,0.0,0.0,0.0,0.0,0.0,0.0,0.0,0.0,4.7519,4.8089,4.8801,4.6901,4.6147,0.0,0.0,0.0,0.0,0.0,0.0,0.0,0.0,0.0,0.0,0.0,0.0,5.6813,5.9645,6.2622,6.5628,6.6032,0.0,0.0,0.0,0.0,0.0,0.0,0.0,0.0,5.3112,5.3314,0.0,0.0,0.0,0.0,5.3449,5.3697,0.0,0.0,0.0,0.0,0.0,0.0,0.0,0.0,5.5797,5.7412,6.049,0.0,6.5818,6.4414,6.2579,6.0603,0.0,5.6977,5.5433,0.0,0.0,5.3584,5.4806,5.4176,5.4905,0.0,0.0,0.0,6.8571,0.0,0.0,0.0,0.0,0.0,0.0,0.0,0.0,0.0,0.0,0.0,0.0,0.0,10.6308,10.5385,10.539,10.5406,10.5411,10.5191,10.5191,10.5411,10.4399,10.3603,10.2892,10.2012,0.0,0.0,0.0,0.0,9.6685,9.6685,9.6685,9.6685,9.6685,9.6307,9.5695,9.4883,9.406,9.3274,0.0,0.0,0.0,0.0,0.0,0.0,0.0,0.0,0.0,0.0,0.0,0.0,0.0,0.0,0.0,0.0,0.0,0.0,0.0,0.0,0.0,0.0,0.0,0.0,0.0,0.0,0.0,0.0,0.0,6.479,0.0,0.0,0.0,0.0,0.0,0.0,0.0,0.0,0.0,0.0,5.3067,0.0,0.0,0.0,0.0,0.0,5.3543,5.3651,0.0,5.5055,5.5336,5.5308,0.0,0.0,0.0,0.0,5.4176,5.4656,5.5461,5.8327,6.0676,5.9055,5.8327,5.7562,5.5989,5.5029,5.425,0.0,0.0,5.3474,5.4326,5.41,0.0,0.0,6.1291,0.0,0.0,0.0,0.0,0.0,0.0,0.0,0.0,0.0,0.0,0.0,0.0,0.0,0.0,0.0,10.5993,10.5101,10.5086,10.4918,10.4614,10.42,10.42,10.4493,10.3004,10.2194,10.2097,10.0614,0.0,0.0,0.0,0.0,9.6685,9.6685,9.6685,9.6644,9.6307,9.5892,9.5395,9.4603,9.3775,9.3027,0.0,0.0,0.0,0.0,0.0,0.0,0.0,0.0,0.0,0.0,0.0,0.0,0.0,0.0,0.0,0.0,0.0,0.0,0.0,0.0,0.0,0.0,0.0,0.0,0.0,0.0,0.0,0.0,0.0,0.0,0.0,0.0,6.8781,0.0,0.0,0.0,0.0,0.0,0.0,0.0,5.2923,0.0,0.0,0.0,0.0,0.0,0.0,0.0,0.0,5.6379,5.6531,5.5808,5.6895,0.0,0.0,0.0,0.0,0.0,5.4764,5.781,6.0089,5.7997,5.7449,5.7045,5.5582,5.4176,5.3214,5.3214,0.0,5.3324,5.3691,5.4504,0.0,0.0,0.0,0.0,0.0,0.0,0.0,0.0,0.0,0.0,0.0,0.0,0.0,0.0,0.0,0.0,0.0,0.0,0.0,10.4907,10.4913,10.4504,10.3513,10.2999,10.2989,10.3492,10.129,10.0613,10.1109,9.8876,0.0,0.0,0.0,0.0,9.6685,9.6685,9.6685,9.6639,9.5809,9.5516,9.5407,9.445,9.3693,9.3093,0.0,0.0,0.0,0.0,0.0,0.0,0.0,0.0,0.0,0.0,0.0,0.0,0.0,0.0,0.0,0.0,0.0,0.0,0.0,0.0,0.0,0.0,0.0,0.0,0.0,0.0,0.0,0.0,0.0,0.0,7.2419,7.6574,7.32,0.0,0.0,0.0,0.0,0.0,0.0,5.3033,5.3141,0.0,0.0,0.0,0.0,0.0,0.0,0.0,0.0,5.3987,5.4693,5.5399,5.4286,0.0,0.0,0.0,0.0,0.0,5.7505,5.9899,6.0388,5.6054,5.495,5.4727,0.0,0.0,5.3214,5.3214,5.3214,5.3835,5.5859,5.7471,5.9456,0.0,0.0,0.0,0.0,0.0,0.0,0.0,0.0,0.0,0.0,0.0,0.0,0.0,0.0,0.0,0.0,0.0,0.0,10.411,10.4105,10.3413,10.1913,10.2406,10.2392,10.1897,10.0781,9.9982,9.9416,9.8372,9.7537,0.0,0.0,9.6685,9.6685,9.6685,9.6685,9.6639,9.5809,9.5494,9.5318,9.3828,9.3203,9.2973,0.0,0.0,0.0,0.0,0.0,0.0,0.0,0.0,0.0,0.0,0.0,0.0,0.0,0.0,0.0,0.0,0.0,0.0,0.0,0.0,0.0,0.0,0.0,0.0,0.0,0.0,0.0,0.0,0.0,7.3413,7.7043,7.4448,6.9496,6.2518,0.0,0.0,0.0,0.0,0.0,5.3177,0.0,0.0,0.0,0.0,0.0,0.0,0.0,0.0,0.0,0.0,5.528,5.6124,5.5382,0.0,0.0,0.0,0.0,0.0,5.545,5.6816,5.7485,5.6568,5.7663,0.0,0.0,0.0,0.0,0.0,0.0,0.0,0.0,0.0,0.0,0.0,0.0,0.0,0.0,0.0,0.0,0.0,0.0,0.0,0.0,0.0,0.0,0.0,0.0,0.0,0.0,0.0,0.0,0.0,10.3315,10.27,10.1509,10.1412,10.1209,10.0787,9.9593,9.8799,9.8421,9.7614,9.7041,9.6685,0.0,9.6685,9.6685,9.6685,9.6685,9.6598,9.5349,9.4832,9.4632,9.301,9.2684,9.2973,0.0,0.0,0.0,0.0,0.0,0.0,0.0,0.0,0.0,0.0,0.0,0.0,0.0,0.0,0.0,0.0,0.0,0.0,0.0,0.0,0.0,0.0,0.0,0.0,0.0,0.0,6.1999,6.8986,7.3677,7.8185,8.2215,7.3454,6.692,0.0,0.0,0.0,0.0,0.0,5.3214,5.3151,0.0,0.0,0.0,0.0,0.0,0.0,0.0,0.0,0.0,0.0,0.0,0.0,0.0,0.0,0.0,5.4284,5.3623,5.3694,5.4645,5.5348,5.6232,5.811,0.0,0.0,0.0,0.0,0.0,0.0,0.0,0.0,0.0,6.6106,0.0,0.0,0.0,0.0,0.0,0.0,0.0,0.0,0.0,0.0,0.0,0.0,0.0,0.0,0.0,0.0,0.0,0.0,0.0,0.0,10.2703,10.2214,10.1217,10.0388,10.0007,10.0007,9.8585,9.7798,9.7587,9.6992,9.6685,9.6685,9.6685,9.6685,9.6685,9.6685,9.6685,9.6556,9.4934,9.4046,9.3552,9.2266,9.2225,9.2707,0.0,0.0,0.0,0.0,0.0,0.0,0.0,0.0,0.0,0.0,0.0,0.0,0.0,0.0,0.0,0.0,0.0,0.0,0.0,0.0,0.0,0.0,0.0,0.0,0.0,6.3014,6.6018,7.4349,7.9959,8.4046,8.6395,7.821,7.1053,6.4814,0.0,0.0,0.0,0.0,5.3214,5.3146,5.2663,0.0,0.0,0.0,0.0,0.0,0.0,0.0,0.0,0.0,0.0,0.0,0.0,0.0,5.5658,5.5475,5.4916,5.5131,5.8875,5.9936,6.0009,6.0193,5.759,0.0,6.2261,6.1184,0.0,6.3894,0.0,0.0,0.0,0.0,0.0,0.0,0.0,0.0,0.0,0.0,0.0,0.0,0.0,0.0,0.0,0.0,0.0,0.0,0.0,0.0,0.0,0.0,0.0,0.0,0.0,10.1996,10.0383,9.9596,9.9179,9.9179,9.8315,9.7522,9.6767,9.6749,9.6685,9.6685,9.6685,9.6685,9.6685,9.6685,9.6685,9.6556,9.4934,9.3338,9.1973,9.1849,9.1849,9.1877,0.0,0.0,0.0,0.0,0.0,0.0,0.0,0.0,0.0,0.0,0.0,0.0,0.0,0.0,0.0,0.0,0.0,0.0,0.0,0.0,0.0,0.0,0.0,5.8285,6.5561,6.9348,7.5082,8.2878,8.6733,8.7284,8.456,7.5421,0.0,0.0,0.0,0.0,0.0,0.0,0.0,5.4568,5.2853,5.1823,0.0,0.0,0.0,0.0,0.0,0.0,0.0,0.0,5.2307,5.3883,5.3487,5.4732,5.6161,5.5139,5.4622,5.473,5.6271,5.8138,5.9896,6.0896,6.0792,0.0,0.0,6.5038,6.6503,7.1094,0.0,0.0,0.0,0.0,0.0,0.0,0.0,0.0,0.0,0.0,0.0,0.0,0.0,0.0,0.0,0.0,0.0,0.0,0.0,0.0,0.0,0.0,0.0,0.0,0.0,10.0886,10.0304,9.9017,9.8359,9.8322,9.7533,9.6988,9.6685,9.6685,9.6685,9.6685,9.6685,9.6685,9.6685,9.6685,9.6395,9.5792,9.4198,9.2827,9.1808,9.1808,9.2143,9.2533,0.0,0.0,0.0,0.0,0.0,0.0,0.0,0.0,0.0,0.0,0.0,0.0,0.0,0.0,0.0,0.0,0.0,0.0,0.0,0.0,0.0,0.0,0.0,5.8451,6.5253,7.3822,8.0915,8.6347,9.0024,8.8647,8.2468,0.0,0.0,0.0,0.0,0.0,0.0,0.0,0.0,0.0,5.2997,5.1751,0.0,0.0,0.0,0.0,0.0,0.0,0.0,0.0,5.1287,5.29,5.3088,5.4475,5.5935,5.5314,5.4987,5.4732,5.4475,5.6195,5.8431,6.0055,0.0,0.0,6.8374,7.0173,7.2745,7.8365,0.0,0.0,0.0,0.0,0.0,0.0,0.0,0.0,0.0,0.0,0.0,0.0,0.0,0.0,0.0,0.0,0.0,0.0,0.0,0.0,0.0,0.0,0.0,0.0,0.0,0.0,9.9541,9.8452,9.7765,9.7511,9.6971,9.6685,9.6681,9.6432,9.6473,9.6681,9.6432,9.6307,9.6307,9.6058,9.5471,9.4634,9.352,9.2556,9.1808,9.1808,9.2184,9.2597,0.0,0.0,0.0,0.0,0.0,0.0,0.0,0.0,0.0,0.0,0.0,0.0,0.0,0.0,0.0,0.0,0.0,0.0,0.0,0.0,0.0,0.0,0.0,5.8889,6.4929,7.5853,8.2099,8.3454,8.9014,8.8023,8.0747,7.4283,0.0,0.0,0.0,0.0,0.0,0.0,0.0,0.0,5.3051,5.2305,5.1862,0.0,0.0,0.0,0.0,0.0,0.0,0.0,5.0259,5.0306,5.43,5.5031,5.4727,5.6339,5.6237,5.5435,5.4622,5.4995,5.6025,5.7672,0.0,0.0,7.556,7.6742,7.8259,8.5559,0.0,0.0,0.0,0.0,0.0,0.0,0.0,0.0,0.0,0.0,0.0,0.0,0.0,0.0,0.0,0.0,0.0,0.0,0.0,0.0,0.0,0.0,0.0,0.0,0.0,0.0,9.7922,9.7885,9.7474,9.6681,9.6681,9.6685,9.6649,9.5856,9.5934,9.6639,9.5846,9.5482,9.5441,9.4608,9.3825,9.3097,9.3097,9.2556,9.1808,9.1808,9.1808,9.1808,0.0,0.0,0.0,0.0,0.0,0.0,0.0,0.0,0.0,0.0,0.0,0.0,0.0,0.0,0.0,0.0,0.0,0.0,0.0,0.0,0.0,0.0,0.0,0.0,0.0,6.5795,7.6184,8.677,8.6738,8.215,0.0,0.0,0.0,6.0569,0.0,0.0,0.0,0.0,0.0,0.0,5.4705,5.3205,5.1681,0.0,0.0,0.0,0.0,0.0,0.0,0.0,0.0,0.0,5.2498,5.4848,5.6785,5.6167,5.6607,5.6864,5.4913,5.6636,0.0,6.2435,0.0,0.0,0.0,8.1782,0.0,0.0,0.0,0.0,0.0,0.0,0.0,0.0,0.0,0.0,0.0,0.0,0.0,0.0,0.0,0.0,0.0,0.0,0.0,0.0,0.0,0.0,0.0,0.0,0.0,0.0,0.0,0.0,9.789,9.7345,9.6644,9.5851,9.527,9.5304,9.5843,9.5616,9.5312,9.5017,9.4768,9.4655,9.4605,9.3777,9.3313,9.3051,9.2432,9.2019,9.1808,9.1808,9.1808,9.189,0.0,0.0,0.0,0.0,0.0,0.0,0.0,0.0,0.0,0.0,4.5592,4.5592,0.0,0.0,0.0,0.0,0.0,0.0,0.0,0.0,4.6128,4.7312,5.0759,5.4016,5.6916,6.4493,7.1758,7.8633,0.0,0.0,0.0,0.0,0.0,6.2955,0.0,6.5481,0.0,0.0,0.0,5.6743,5.661,5.5282,5.341,0.0,0.0,0.0,0.0,0.0,0.0,0.0,0.0,0.0,5.1172,5.3413,5.5543,5.5212,5.5577,5.5972,5.5495,5.7587,0.0,6.5995,7.1567,7.8031,8.6343,0.0,0.0,0.0,0.0,0.0,0.0,0.0,0.0,0.0,0.0,0.0,0.0,0.0,0.0,0.0,0.0,0.0,0.0,0.0,0.0,0.0,0.0,0.0,0.0,0.0,0.0,0.0,0.0,0.0,9.6934,9.6473,9.5809,9.5022,9.4531,9.4383,9.454,9.4567,9.445,9.4285,9.3953,9.3643,9.3262,9.2767,9.2597,9.2514,9.2014,9.1808,9.1808,9.1808,9.1808,9.189,0.0,0.0,4.5752,4.5632,0.0,0.0,0.0,0.0,0.0,0.0,4.5592,4.5592,0.0,0.0,0.0,0.0,0.0,0.0,0.0,0.0,4.6398,4.8122,5.0522,5.5741,6.4178,6.8149,6.7827,6.3218,6.8862,0.0,0.0,0.0,7.0543,6.9966,0.0,7.2753,6.7183,6.6222,6.2512,5.7331,5.8221,5.7517,5.5907,5.5391,0.0,0.0,0.0,0.0,0.0,0.0,0.0,0.0,5.0359,5.1502,5.2498,5.3959,5.403,5.4134,5.6407,5.8352,6.1542,6.8895,7.4764,0.0,9.0344,9.5951,9.9663,0.0,0.0,0.0,0.0,0.0,0.0,0.0,0.0,0.0,0.0,0.0,0.0,0.0,0.0,0.0,0.0,0.0,0.0,0.0,0.0,0.0,0.0,0.0,0.0,0.0,0.0,0.0,9.5395,9.5392,9.4992,0.0,9.4195,9.3763,9.2973,9.3056,9.3469,9.4048,9.3304,9.2514,9.1808,9.1808,9.1808,9.1808,9.1808,9.1808,9.1808,9.1808,9.1808,9.1808,0.0,0.0,4.583,4.5632,0.0,0.0,0.0,0.0,0.0,0.0,0.0,0.0,0.0,0.0,0.0,0.0,0.0,0.0,0.0,0.0,4.6667,4.9011,5.3881,5.8213,6.1786,6.1221,5.9428,5.6494,6.2138,0.0,0.0,0.0,0.0,6.7507,0.0,7.0947,6.3713,6.1658,5.8389,5.4739,5.6225,5.545,5.3504,5.468,5.2914,0.0,0.0,0.0,0.0,0.0,0.0,0.0,5.1025,5.2713,5.3961,5.4289,5.5611,5.7226,5.8352,6.1285,6.5875,7.3766,8.2798,9.0918,9.5557,9.8379,10.0304,10.1287,0.0,0.0,0.0,0.0,0.0,0.0,0.0,0.0,0.0,0.0,0.0,0.0,0.0,0.0,0.0,0.0,0.0,0.0,0.0,0.0,0.0,0.0,0.0,0.0,0.0,9.4727,9.4561,9.4571,9.4159,0.0,9.3345,9.2927,9.2101,9.2803,9.2808,9.2344,9.2143,9.1973,9.1808,9.1808,9.1808,9.1808,9.1808,9.1808,9.1808,9.1808,9.1808,9.189,0.0,0.0,0.0,0.0,0.0,0.0,0.0,0.0,0.0,0.0,0.0,0.0,0.0,0.0,0.0,0.0,0.0,0.0,0.0,0.0,0.0,0.0,5.5384,5.7983,5.7891,5.6825,5.4919,5.2095,0.0,0.0,0.0,0.0,0.0,6.9522,0.0,7.0833,6.3857,6.1799,5.888,5.5764,5.7401,5.6841,5.5077,5.5968,5.3749,5.011,4.973,0.0,0.0,0.0,0.0,0.0,0.0,0.0,5.2821,5.3589,5.4984,5.6969,6.0077,6.419,7.0176,8.0963,0.0,9.4882,9.7351,9.8856,9.9952,10.0806,0.0,0.0,0.0,0.0,0.0,0.0,0.0,0.0,0.0,0.0,0.0,0.0,0.0,0.0,0.0,0.0,0.0,0.0,0.0,0.0,0.0,0.0,0.0,0.0,9.4502,9.4125,9.3711,9.3731,9.3304,9.2473,9.2473,9.2225,9.1808,9.2266,9.2225,9.1808,9.1808,9.1808,9.1808,9.1808,9.1808,9.1808,9.1808,9.1808,9.1808,9.1808,9.1808,9.1849,0.0,0.0,0.0,0.0,0.0,0.0,0.0,0.0,0.0,0.0,0.0,0.0,0.0,0.0,0.0,0.0,0.0,0.0,0.0,0.0,0.0,0.0,5.559,5.6708,5.4861,5.4397,5.2826,0.0,0.0,0.0,0.0,0.0,0.0,7.2565,0.0,7.08,6.5145,6.2612,5.9658,5.6752,5.8375,5.8,5.6422,0.0,0.0,0.0,4.9671,4.8906,4.8335,4.8477,0.0,0.0,0.0,0.0,5.1313,5.2774,5.377,5.5534,6.0774,6.6763,7.4625,8.7394,9.2969,0.0,9.7503,9.8415,9.9103,9.9916,0.0,0.0,0.0,0.0,0.0,0.0,0.0,0.0,0.0,0.0,0.0,0.0,0.0,0.0,0.0,0.0,0.0,0.0,0.0,0.0,9.5334,9.4547,9.4092,9.408,9.3965,9.3552,9.2886,9.2886,9.2514,9.1808,9.1808,9.1808,9.1808,9.1808,9.1808,9.1808,9.1808,9.1808,9.1808,9.1808,9.1808,9.1808,9.1808,9.1808,9.1808,9.1808,9.1808,9.1808,0.0,0.0,0.0,0.0,0.0,0.0,0.0,0.0,0.0,0.0,4.5592,4.5592,0.0,4.5592,4.5592,4.5592,4.6394,4.6888,4.6888,0.0,0.0,5.2811,5.4592,5.5798,5.6463,5.4428,5.2818,0.0,0.0,0.0,0.0,0.0,0.0,7.2455,0.0,0.0,6.4924,5.9064,5.508,5.2885,5.4504,5.3765,0.0,0.0,0.0,0.0,0.0,0.0,0.0,4.9153,4.9429,0.0,0.0,0.0,5.2018,5.2923,5.377,5.5167,5.8719,6.8378,7.958,8.8385,9.2537,9.5075,0.0,0.0,9.8305,0.0,0.0,0.0,0.0,0.0,0.0,0.0,0.0,0.0,0.0,0.0,0.0,0.0,0.0,0.0,0.0,0.0,0.0,0.0,0.0,0.0,9.4485,9.3713,9.3244,9.3258,9.2514,9.2097,9.1973,9.1973,9.1932,9.1808,9.1808,9.1808,9.1808,9.1808,9.1808,9.1808,9.1808,9.1808,9.1808,9.1808,9.1808,9.1808,9.1808,9.1808,9.1808,9.1808,9.1808,9.1808,0.0,0.0,0.0,0.0,0.0,0.0,0.0,0.0,0.0,0.0,0.0,4.5592,4.5592,4.5592,4.5592,4.5592,4.6817,4.7775,4.8277,4.9834,5.1054,5.1719,5.2569,5.3173,5.3413,5.1977,5.0993,0.0,0.0,0.0,0.0,6.5818,6.9115,0.0,0.0,0.0,0.0,0.0,5.323,5.2745,5.344,0.0,0.0,0.0,0.0,0.0,0.0,0.0,0.0,0.0,0.0,0.0,5.1617,0.0,0.0,0.0,5.41,5.6864,6.5078,7.2492,8.0159,8.9629,9.2831,9.4267,9.669,9.7241,9.7346,0.0,0.0,0.0,0.0,0.0,0.0,0.0,0.0,0.0,0.0,0.0,0.0,0.0,0.0,0.0,0.0,0.0,0.0,0.0,0.0,9.4011,9.3662,9.2845,9.2386,9.2386,9.2014,9.1808,9.1808,9.1808,9.1808,9.1808,9.1808,9.1808,9.1808,9.1808,9.1808,9.1808,9.1808,9.1808,9.1808,9.1808,9.1808,9.1808,9.1808,9.1808,9.1808,9.1808,9.1808,9.1808,0.0,0.0,0.0,0.0,0.0,0.0,0.0,0.0,0.0,0.0,0.0,4.5592,4.5592,0.0,0.0,0.0,4.7278,4.8469,4.9357,5.0108,5.04,5.0097,5.0226,5.0259,5.0185,4.9596,0.0,0.0,0.0,0.0,6.6512,6.7357,7.1171,0.0,6.9783,0.0,0.0,0.0,0.0,0.0,0.0,0.0,0.0,0.0,0.0,0.0,0.0,0.0,0.0,0.0,0.0,0.0,0.0,0.0,0.0,0.0,0.0,5.7231,6.7547,7.2672,7.7509,8.7284,9.0955,9.2785,9.5212,0.0,9.6387,0.0,0.0,0.0,0.0,0.0,0.0,0.0,0.0,0.0,0.0,0.0,0.0,0.0,0.0,0.0,0.0,0.0,0.0,0.0,0.0,9.301,9.2767,9.2143,9.1808,9.1808,9.1808,9.1808,9.1808,9.1808,9.1808,9.1808,9.1808,9.1808,9.1808,9.1808,9.1808,9.1808,9.1808,9.1808,9.1808,9.1808,9.1808,9.1808,9.1808,9.1808,9.1808,9.1808,9.1808,9.1808,0.0,0.0,0.0,0.0,0.0,0.0,0.0,0.0,0.0,0.0,0.0,4.5592,4.5592,4.5592,4.5935,4.6775,4.7621,4.8469,4.9357,4.8805,4.841,4.8311,4.7683,0.0,4.8409,0.0,0.0,0.0,0.0,0.0,6.6552,6.9622,7.5715,8.376,7.6468,7.1075,6.7146,0.0,0.0,0.0,0.0,0.0,0.0,0.0,0.0,0.0,0.0,0.0,0.0,0.0,0.0,0.0,0.0,0.0,0.0,0.0,0.0,0.0,5.9679,6.5114,7.1134,7.8633,8.5082,9.0244,9.2712,0.0,0.0,0.0,0.0,0.0,0.0,0.0,0.0,0.0,0.0,0.0,0.0,0.0,0.0,0.0,0.0,0.0,0.0,0.0,0.0,0.0,0.0,9.2725,9.1895,9.1808,9.1808,9.1808,9.1808,9.1808,9.1808,9.1808,9.1808,9.1808,9.1808,9.1808,9.1808,9.1808,9.1808,9.1808,9.1808,9.1808,9.1808,9.1808,9.1808,9.1808,9.1808,9.1808,9.1808,9.1808,9.1808,9.1808,0.0,0.0,0.0,0.0,0.0,0.0,0.0,0.0,0.0,0.0,0.0,0.0,0.0,4.6431,4.6777,4.7583,4.8431,4.9318,5.0168,4.9497,4.9053,4.9038,4.8299,4.8005,4.8299,0.0,0.0,0.0,0.0,5.598,6.5772,6.7981,7.2606,7.8879,7.3153,7.0113,6.8615,5.8731,0.0,0.0,0.0,0.0,0.0,0.0,0.0,0.0,0.0,0.0,0.0,0.0,0.0,0.0,0.0,0.0,0.0,0.0,0.0,5.4352,5.9722,6.2661,6.6332,7.5216,8.1122,8.5559,8.8491,9.2056,9.474,0.0,0.0,0.0,0.0,0.0,0.0,0.0,0.0,0.0,0.0,0.0,0.0,0.0,0.0,0.0,0.0,0.0,0.0,0.0,0.0,0.0,9.1808,9.1808,9.1808,9.1808,9.1808,9.1808,9.1808,9.1808,9.1808,9.1808,9.1808,9.1808,9.1808,9.1808,9.1808,9.1808,9.1808,9.1808,9.1808,9.1808,9.1808,9.1808,9.1808,9.1808,9.1808,9.1808,9.2143,9.2638,0.0,0.0,0.0,0.0,0.0,4.5871,0.0,0.0,0.0,0.0,0.0,0.0,0.0,0.0,4.7621,4.847,4.9318,4.9788,4.967,4.9541,4.9172,4.8506,4.8362,4.8299,4.8299,0.0,0.0,0.0,0.0,0.0,0.0,6.5888,7.0187,7.5832,6.9926,6.8935,0.0,0.0,0.0,5.7474,0.0,0.0,5.5611,0.0,0.0,0.0,0.0,0.0,0.0,0.0,0.0,0.0,0.0,0.0,0.0,0.0,0.0,0.0,5.8107,5.9982,6.3059,7.2532,7.6717,8.0017,8.5702,8.9083,9.1367,0.0,0.0,0.0,0.0,0.0,0.0,0.0,0.0,0.0,0.0,0.0,0.0,0.0,0.0,0.0,0.0,0.0,0.0,0.0,0.0,0.0,9.1808,9.1808,9.1808,9.1808,9.1808,9.1808,9.1808,9.1519,9.1395,9.1395,9.1395,9.1395,9.1395,9.1684,9.1808,9.1808,9.1808,9.1808,9.1808,9.1808,9.1808,9.1808,9.1808,9.1808,9.1808,9.1808,9.2358,9.3111,0.0,4.6099,4.6108,4.6108,4.6017,4.5948,0.0,0.0,0.0,0.0,0.0,0.0,0.0,0.0,0.0,4.9472,5.0315,4.9905,4.7798,4.8796,4.8587,4.6542,4.7621,4.8301,4.8338,0.0,0.0,0.0,0.0,0.0,0.0,0.0,6.8892,7.5359,6.7657,6.8058,7.4393,0.0,6.9072,6.5962,0.0,5.8759,5.855,0.0,0.0,0.0,6.1377,6.0168,0.0,0.0,0.0,0.0,0.0,0.0,0.0,0.0,0.0,0.0,0.0,0.0,0.0,6.9846,7.1571,7.3766,8.4082,8.5302,8.5229,0.0,0.0,0.0,0.0,0.0,0.0,0.0,0.0,0.0,0.0,0.0,0.0,0.0,0.0,0.0,0.0,0.0,0.0,0.0,0.0,9.1808,9.1808,9.1808,9.1808,9.1808,9.1808,9.1808,9.1808,9.0988,9.0612,9.0644,9.0575,9.0575,9.0644,9.1404,9.1771,9.1808,9.1808,9.1808,9.1808,9.1808,9.1808,9.1808,9.1808,9.1808,9.1808,9.1808,9.2377,9.3148,4.625,4.6235,4.6197,4.6119,4.6516,4.6814,0.0,0.0,0.0,0.0,0.0,0.0,0.0,0.0,0.0,5.3127,5.3021,5.1757,4.8737,4.886,4.8558,4.7388,4.7972,4.86,0.0,0.0,0.0,0.0,0.0,0.0,0.0,0.0,0.0,0.0,6.6626,6.6853,6.6699,6.074,0.0,0.0,5.8547,5.9281,0.0,0.0,0.0,0.0,0.0,6.2832,0.0,0.0,6.0202,5.8177,0.0,0.0,0.0,0.0,0.0,0.0,5.3474,0.0,0.0,0.0,0.0,0.0,7.1985,7.4962,7.8483,0.0,0.0,0.0,0.0,0.0,0.0,0.0,0.0,0.0,0.0,0.0,0.0,0.0,0.0,0.0,0.0,0.0,0.0,0.0,9.1932,9.1808,9.1808,9.1808,9.1808,9.1808,9.1808,9.1808,9.1808,9.0987,9.09,9.1441,9.0286,9.0351,9.1478,9.1082,9.1238,9.1808,9.1808,9.1808,9.1808,9.1808,9.1808,9.1808,9.1808,9.1808,9.1808,9.1808,9.2721,9.3951,4.6289,4.6254,4.6319,4.6575,4.7494,4.8185,0.0,0.0,0.0,0.0,0.0,0.0,0.0,0.0,0.0,0.0,5.4137,5.2568,4.9383,4.9013,4.8614,4.797,4.8536,4.9229,0.0,0.0,0.0,0.0,0.0,0.0,0.0,0.0,0.0,0.0,6.1597,6.2114,0.0,0.0,0.0,0.0,6.0603,0.0,0.0,6.438,6.5408,0.0,0.0,0.0,6.7063,6.5601,6.3025,0.0,0.0,0.0,0.0,0.0,0.0,0.0,0.0,0.0,0.0,0.0,0.0,0.0,6.8351,7.0227,7.2753,0.0,0.0,0.0,0.0,0.0,0.0,0.0,0.0,0.0,0.0,0.0,0.0,0.0,0.0,0.0,0.0,0.0,0.0,9.1808,9.1808,9.1808,9.1808,9.1808,9.1808,9.1808,9.1808,9.1808,9.1808,9.1007,9.0841,9.1307,9.0346,9.0383,9.1307,9.1174,9.1376,9.1808,9.1808,9.1808,9.1808,9.1808,9.1808,9.1808,9.1808,9.1808,9.1849,9.2221,9.318,9.4352,0.0,4.6188,4.6411,4.7474,4.8873,0.0,0.0,0.0,0.0,0.0,0.0,0.0,0.0,0.0,0.0,0.0,5.4721,5.2946,4.9938,4.9332,0.0,0.0,0.0,0.0,0.0,0.0,0.0,0.0,0.0,0.0,0.0,0.0,0.0,0.0,5.4874,5.5862,0.0,0.0,0.0,6.0743,6.4564,6.6105,0.0,0.0,7.1831,0.0,7.2419,7.2055,7.0517,6.8017,6.4494,0.0,0.0,0.0,0.0,0.0,5.5108,0.0,0.0,0.0,0.0,0.0,0.0,0.0,6.8858,6.8348,6.7944,7.494,0.0,0.0,0.0,0.0,0.0,0.0,0.0,0.0,0.0,0.0,0.0,0.0,0.0,0.0,0.0,9.1734,9.173,9.1542,9.1528,9.1602,9.1808,9.1725,9.1725,9.1808,9.1808,9.1808,9.1808,9.0992,9.0625,9.0736,9.0542,9.0551,9.0736,9.1371,9.1707,9.1808,9.1808,9.1808,9.1808,9.1808,9.1808,9.1808,9.1808,9.1808,9.1895,9.2767,9.3607,9.4421,4.6154,4.6034,4.6601,4.8787,0.0,0.0,0.0,0.0,0.0,0.0,0.0,0.0,0.0,0.0,0.0,0.0,0.0,5.4737,5.0831,0.0,0.0,0.0,0.0,0.0,0.0,0.0,0.0,0.0,0.0,0.0,0.0,0.0,0.0,0.0,5.3293,5.3765,0.0,0.0,0.0,6.0597,6.2686,0.0,7.1207,7.2125,7.3916,7.5858,7.5539,7.5608,7.5417,0.0,6.9085,6.5605,0.0,0.0,0.0,0.0,0.0,0.0,0.0,0.0,0.0,0.0,0.0,0.0,6.112,6.1707,6.4056,0.0,0.0,0.0,0.0,0.0,0.0,0.0,0.0,0.0,0.0,0.0,0.0,0.0,0.0,0.0,0.0,9.1436,9.1271,8.9979,8.9875,9.0434,9.1725,9.1185,9.1143,9.1767,9.1808,9.1808,9.1808,9.1009,9.0945,9.1537,9.0244,9.0317,9.1537,9.1072,9.1206,9.1808,9.1808,9.1808,9.1808,9.1808,9.1808,9.1808,9.1808,9.1808,9.1895,9.2767,9.3621,9.4428,4.6182,4.6957,4.8391,5.0475,0.0,0.0,0.0,0.0,0.0,0.0,0.0,0.0,0.0,0.0,0.0,0.0,0.0,0.0,0.0,0.0,0.0,0.0,0.0,0.0,0.0,0.0,0.0,0.0,0.0,0.0,0.0,0.0,0.0,0.0,0.0,0.0,0.0,0.0,5.7113,5.9092,6.4774,0.0,7.3307,7.5363,7.7125,7.8475,7.8079,7.8185,7.7741,7.2488,7.0697,0.0,0.0,6.2181,6.2291,0.0,5.887,5.8942,0.0,0.0,0.0,6.0346,0.0,0.0,0.0,6.0385,6.1306,6.6619,6.6736,0.0,0.0,0.0,0.0,0.0,0.0,0.0,0.0,0.0,0.0,0.0,0.0,0.0,0.0,9.0363,9.0253,8.945,8.9416,8.9732,9.057,9.0217,9.0186,9.0598,9.0596,9.0811,9.1189,9.0394,9.06,9.1808,9.0583,9.062,9.1771,9.1371,9.1404,9.1808,9.1808,9.1808,9.1808,9.1808,9.1808,9.1808,9.1808,9.1808,9.1936,9.3221,9.3942,9.4474,4.643,4.785,4.9945,5.1968,0.0,0.0,0.0,0.0,0.0,0.0,0.0,0.0,0.0,0.0,0.0,0.0,0.0,0.0,0.0,0.0,0.0,0.0,5.2315,5.2936,0.0,0.0,0.0,0.0,0.0,0.0,0.0,0.0,0.0,0.0,0.0,0.0,0.0,0.0,0.0,5.9422,0.0,7.1608,7.2613,7.7455,7.9221,7.9188,7.9812,8.0028,7.9074,7.2863,0.0,7.2943,6.5895,6.5304,0.0,0.0,0.0,0.0,0.0,0.0,0.0,0.0,0.0,6.1416,0.0,0.0,0.0,6.4233,0.0,0.0,0.0,0.0,0.0,0.0,0.0,0.0,0.0,0.0,0.0,0.0,0.0,0.0,0.0,8.7936,8.799,8.9075,8.8325,8.8196,8.9129,8.9185,8.9225,8.9394,8.9387,8.9725,9.0355,8.9862,9.022,9.1344,9.1,9.1106,9.1588,9.173,9.1808,9.1808,9.1808,9.1808,9.1808,9.1808,9.1808,9.1808,9.1808,9.1808,9.1973,9.351,9.4153,9.4515,4.7057,4.7621,4.9273,5.2501,0.0,0.0,0.0,0.0,0.0,0.0,0.0,0.0,0.0,0.0,0.0,0.0,0.0,0.0,6.197,0.0,0.0,0.0,0.0,0.0,5.2315,5.2779,0.0,0.0,0.0,0.0,0.0,0.0,0.0,0.0,5.238,0.0,0.0,0.0,5.9324,0.0,6.9696,6.9252,0.0,7.4683,7.7146,7.69,7.9833,8.0861,8.053,0.0,7.6754,7.5285,0.0,7.055,0.0,0.0,0.0,0.0,0.0,0.0,0.0,0.0,6.8568,0.0,0.0,0.0,6.1838,6.0331,0.0,0.0,0.0,0.0,0.0,0.0,0.0,0.0,0.0,0.0,0.0,0.0,0.0,0.0,0.0,0.0,8.2969,8.7958,8.4353,8.3809,8.8121,8.8323,8.8659,8.9367,8.9387,8.9424,8.9527,9.0152,9.0212,8.9704,9.1018,9.1326,9.0771,9.1473,9.1808,9.1808,9.1808,9.1808,9.1808,9.1808,9.1808,9.1808,9.1808,9.1808,9.1932,9.2886,9.3693,9.4432,4.7083,4.8394,5.0512,5.3433,0.0,0.0,0.0,0.0,0.0,0.0,0.0,0.0,0.0,0.0,0.0,0.0,0.0,0.0,0.0,0.0,0.0,0.0,0.0,0.0,0.0,5.4433,5.3959,0.0,5.3154,0.0,0.0,0.0,0.0,0.0,5.3117,0.0,5.5732,0.0,0.0,0.0,0.0,0.0,0.0,7.7038,8.0633,8.0563,8.2439,8.2806,8.1871,0.0,7.7956,0.0,0.0,0.0,0.0,0.0,0.0,0.0,0.0,0.0,0.0,0.0,0.0,0.0,0.0,0.0,6.0701,0.0,0.0,0.0,0.0,0.0,0.0,0.0,0.0,0.0,0.0,0.0,0.0,0.0,0.0,0.0,0.0,0.0,0.0,0.0,0.0,8.2291,8.5243,8.6287,8.7187,8.798,8.8012,8.8238,8.8705,8.9031,8.9523,9.0102,9.0774,9.1187,9.1326,9.1661,9.1808,9.1808,9.1808,9.1808,9.1808,9.1808,9.1808,9.1808,9.1808,9.1808,9.1959,9.329,9.3996,9.4485,4.766,0.0,0.0,0.0,0.0,0.0,0.0,0.0,0.0,0.0,0.0,0.0,7.9311,7.6444,0.0,0.0,0.0,6.5906,0.0,0.0,0.0,0.0,0.0,0.0,0.0,0.0,0.0,5.5252,5.4103,0.0,0.0,0.0,0.0,0.0,0.0,5.6091,5.7457,0.0,0.0,6.5079,6.9459,7.1453,7.2538,7.9189,8.2562,8.3795,8.414,8.3888,8.2847,7.9286,7.9675,0.0,7.6257,0.0,0.0,0.0,0.0,0.0,7.1314,0.0,0.0,0.0,0.0,0.0,0.0,0.0,0.0,0.0,0.0,0.0,0.0,0.0,0.0,0.0,0.0,0.0,0.0,0.0,0.0,0.0,0.0,0.0,0.0,0.0,0.0,0.0,0.0,0.0,8.225,8.3946,8.5396,8.6613,8.6895,8.7277,8.7867,8.8092,8.879,8.9939,9.0385,9.0898,9.1491,9.1702,9.1808,9.1808,9.1808,9.1808,9.1808,9.1808,9.1808,9.1808,9.1808,9.1808,9.1991,9.3414,9.4102,9.4501,4.9165,5.0053,0.0,0.0,0.0,0.0,0.0,0.0,0.0,0.0,0.0,0.0,0.0,0.0,0.0,0.0,0.0,7.2026,7.4283,0.0,6.0092,0.0,0.0,0.0,0.0,0.0,5.5178,5.4439,5.4399,0.0,0.0,0.0,0.0,0.0,0.0,5.9214,6.1637,6.4901,6.9889,7.5685,7.6644,8.031,8.4634,0.0,8.0438,8.4468,8.3692,0.0,0.0,8.3228,8.3247,0.0,0.0,0.0,0.0,0.0,0.0,0.0,0.0,0.0,0.0,0.0,0.0,0.0,0.0,0.0,6.5852,0.0,0.0,0.0,0.0,0.0,0.0,0.0,0.0,0.0,0.0,0.0,0.0,0.0,0.0,0.0,0.0,0.0,0.0,0.0,0.0,0.0,7.958,8.1452,8.3393,8.5748,8.6604,8.7019,8.7051,8.7807,8.8224,8.8308,8.9862,9.0602,9.0646,9.1454,9.1808,9.1808,9.1808,9.1808,9.1808,9.1808,9.1808,9.1808,9.1808,9.1808,9.1913,9.2803,9.3615,9.443,0.0,0.0,0.0,0.0,0.0,0.0,0.0,6.4477,0.0,0.0,0.0,0.0,0.0,0.0,8.7426,0.0,0.0,8.0109,7.824,7.3294,0.0,0.0,0.0,6.2729,0.0,0.0,5.7876,5.5998,0.0,5.5345,5.5574,5.4501,5.4851,0.0,0.0,6.074,0.0,0.0,0.0,0.0,0.0,8.2348,8.7059,0.0,0.0,8.543,8.569,8.5428,0.0,8.4986,8.4644,8.3903,8.2293,8.1228,8.0279,7.8633,7.9112,0.0,0.0,0.0,8.2557,7.5763,0.0,0.0,0.0,0.0,0.0,0.0,0.0,0.0,0.0,0.0,0.0,0.0,0.0,0.0,0.0,0.0,0.0,0.0,0.0,0.0,0.0,0.0,0.0,0.0,0.0,0.0,0.0,7.9404,8.1733,8.4141,8.5512,8.6444,8.6982,8.7783,8.8457,8.9017,9.0107,9.0878,9.1386,9.1666,9.1808,9.1808,9.1808,9.1808,9.1808,9.1808,9.1808,9.1808,9.1808,9.1808,9.1955,9.3377,9.4065,9.4491,5.2313,0.0,0.0,0.0,0.0,0.0,0.0,0.0,0.0,0.0,8.3376,0.0,9.4954,0.0,9.2928,0.0,9.1278,8.6908,8.1446,7.9366,0.0,7.2261,6.9855,0.0,0.0,0.0,0.0,0.0,0.0,5.76,5.7269,5.5611,5.5846,5.7749,0.0,6.2725,6.6105,0.0,7.5174,0.0,0.0,8.4343,0.0,0.0,8.598,0.0,0.0,8.6247,8.5822,8.6121,8.5899,8.523,8.39,8.2934,8.1968,8.0348,8.0823,8.1614,8.0518,8.2757,0.0,0.0,7.7635,0.0,0.0,0.0,0.0,0.0,0.0,0.0,0.0,0.0,0.0,0.0,0.0,0.0,0.0,0.0,0.0,0.0,0.0,0.0,0.0,0.0,0.0,0.0,0.0,0.0,0.0,0.0,7.9133,8.2438,8.4377,8.5883,8.6982,8.752,8.8185,8.8971,8.98,9.0598,9.1391,9.1684,9.1808,9.1808,9.1808,9.1808,9.1808,9.1808,9.1808,9.1808,9.1808,9.1808,9.1991,9.368,9.4671,9.529,0.0,0.0,0.0,0.0,5.7308,0.0,0.0,0.0,7.6354,0.0,8.621,9.1418,9.6684,9.6534,9.6931,9.9136,9.7185,0.0,8.4694,8.4779,0.0,0.0,7.2872,7.2012,6.9551,0.0,0.0,0.0,0.0,0.0,6.0447,5.722,5.6949,5.9305,6.2607,0.0,6.7103,7.5179,8.0061,8.2668,8.5742,8.6587,8.5902,8.5865,0.0,8.6941,8.6108,8.5812,8.5903,8.6731,8.6982,8.6859,8.6063,8.5275,8.4355,8.2737,8.2876,8.3169,8.1664,8.3001,8.4062,8.0946,0.0,0.0,0.0,0.0,7.9551,0.0,0.0,0.0,0.0,0.0,0.0,0.0,0.0,0.0,0.0,0.0,0.0,0.0,0.0,0.0,0.0,0.0,0.0,0.0,0.0,0.0,0.0,0.0,7.5804,8.0669,8.3243,8.532,8.6986,8.6982,8.7438,8.8267,8.9031,8.983,9.0685,9.1437,9.1808,9.1808,9.1808,9.1808,9.1808,9.1808,9.1808,9.1808,9.1808,9.1845,9.2102,9.3717,9.5332,9.6685,5.4319,5.5508,5.6657,0.0,5.7756,6.005,0.0,0.0,0.0,0.0,9.2072,9.7694,10.4114,10.411,10.3308,10.2698,10.1601,0.0,0.0,0.0,0.0,8.767,8.4216,8.098,7.7954,7.3528,0.0,6.7614,0.0,0.0,6.2128,5.8891,5.7715,5.8483,6.2364,6.5314,6.7881,7.5399,8.1016,8.498,8.644,8.7243,0.0,0.0,8.7176,8.7729,8.6313,8.5812,8.5903,8.6731,8.6982,8.6859,8.6063,8.5644,8.5193,8.3569,8.4097,8.5102,8.4674,8.6323,8.7667,8.5641,8.4421,8.2884,0.0,0.0,0.0,0.0,0.0,0.0,0.0,0.0,0.0,0.0,0.0,0.0,0.0,0.0,0.0,0.0,0.0,0.0,0.0,0.0,0.0,0.0,0.0,0.0,0.0,0.0,0.0,7.811,8.1786,8.477,8.6986,8.6982,8.7688,8.9098,8.9286,9.0113,9.1515,9.1725,9.1808,9.1808,9.1808,9.1808,9.1808,9.1808,9.1808,9.1808,9.1808,9.2542,9.3717,9.4125,9.5332,9.6685,5.567,0.0,0.0,5.9894,0.0,0.0,6.9023,0.0,0.0,8.8169,9.4211,0.0,10.2903,10.5511,10.6486,10.5589,10.4394,0.0,0.0,0.0,0.0,9.2708,9.0608,8.7659,8.3707,7.8776,0.0,7.1154,0.0,0.0,6.2736,5.9526,5.8179,5.8699,6.2432,6.5437,6.8206,7.6254,8.1819,8.5347,8.6151,0.0,0.0,8.6664,8.6548,8.6541,8.6006,8.6037,8.6399,8.6854,8.6982,8.6936,8.6481,8.6317,8.6231,8.5653,8.6149,8.6917,8.729,8.8605,8.97,8.8783,8.8141,8.7105,8.4715,8.5192,8.5563,0.0,0.0,0.0,0.0,0.0,0.0,0.0,0.0,0.0,0.0,0.0,0.0,0.0,0.0,0.0,0.0,0.0,0.0,0.0,0.0,0.0,0.0,0.0,0.0,7.5657,8.1056,8.4891,8.6986,8.8062,8.8852,8.9386,8.9747,9.0412,9.1308,9.1643,9.1808,9.1808,9.1808,9.1808,9.1808,9.1808,9.1808,9.1808,9.1808,9.2817,9.4303,9.4303,9.5304,9.6685,0.0,0.0,0.0,0.0,0.0,0.0,0.0,7.7575,0.0,8.9436,0.0,9.9265,9.9448,10.4404,10.7818,0.0,0.0,10.3887,10.0385,10.1883,9.9974,9.3507,9.4217,9.2619,8.8043,8.3589,0.0,0.0,0.0,0.0,6.272,5.961,5.8458,5.9203,6.247,6.5586,0.0,7.7169,8.206,8.4363,8.538,8.5865,8.5971,8.5971,8.5531,8.5013,8.5699,8.6351,8.6844,8.6949,8.6982,8.7019,8.7116,8.7165,8.7314,8.8103,8.8356,8.8522,8.9349,9.0056,9.0628,9.0747,9.128,9.1257,8.9165,8.8601,8.8294,8.7465,8.5484,0.0,0.0,0.0,0.0,0.0,0.0,0.0,0.0,0.0,0.0,0.0,0.0,0.0,0.0,0.0,0.0,0.0,0.0,0.0,0.0,0.0,0.0,7.3503,8.032,0.0,8.7153,0.0,9.0099,8.972,9.0317,9.0644,9.0768,9.1478,9.1808,9.1808,9.1808,9.1808,9.1808,9.1808,9.1808,9.1808,9.1932,9.2927,9.4307,9.443,9.5417,9.6685,0.0,0.0,0.0,0.0,0.0,7.6417,8.1917,8.7357,9.2554,9.7372,10.2603,0.0,10.7708,10.829,10.8615,10.861,10.7708,0.0,0.0,0.0,0.0,10.0913,9.8515,9.5931,9.309,8.6429,8.1191,0.0,0.0,0.0,0.0,6.0202,5.8707,5.8333,6.1601,6.6226,7.197,7.6915,0.0,8.2812,8.4938,8.6187,8.6803,8.6803,8.6693,8.6619,8.6734,8.6457,8.6103,8.6775,8.6982,8.7116,8.7766,8.8001,8.8144,8.8934,8.9191,8.9381,9.0172,9.0506,9.0768,9.1432,9.1702,9.1698,9.1257,9.0648,8.9943,8.9166,8.76,8.5241,8.1531,0.0,0.0,0.0,0.0,0.0,0.0,0.0,0.0,0.0,0.0,0.0,0.0,0.0,0.0,0.0,0.0,0.0,0.0,0.0,0.0,0.0,7.7861,0.0,0.0,0.0,8.9545,9.1376,9.0845,9.0937,9.1597,9.1725,9.1808,9.1808,9.1808,9.1808,9.1808,9.1808,9.1808,9.1854,9.2597,9.3451,9.4388,9.5063,9.5875,9.6685,0.0,0.0,0.0,0.0,0.0,0.0,0.0,9.5727,0.0,9.8992,10.1388,10.3481,10.4289,10.7,10.8799,10.8799,10.808,10.7588,10.7594,10.5715,10.3808,10.2098,10.0194,0.0,9.4386,0.0,8.2422,7.7924,0.0,0.0,0.0,0.0,0.0,5.8115,6.0921,6.5574,0.0,0.0,0.0,8.1848,8.5119,8.6656,8.7096,8.7936,8.7716,8.7092,8.7936,8.7468,8.6494,8.688,8.6982,8.7088,8.7443,8.7568,8.7829,8.9056,8.9389,8.9683,9.0891,9.1226,9.1313,9.1684,9.1808,9.1808,9.1808,9.1185,9.0379,8.9568,8.8446,8.6037,8.0781,7.5197,0.0,0.0,0.0,0.0,0.0,0.0,0.0,0.0,0.0,0.0,0.0,0.0,0.0,0.0,0.0,0.0,0.0,0.0,0.0,0.0,0.0,0.0,0.0,0.0,0.0,9.1808,9.1395,9.1432,9.1808,9.1808,9.1808,9.1808,9.1808,9.1808,9.1808,9.1808,9.1808,9.189,9.2762,9.3607,9.441,9.5196,9.6017,9.6685,0.0,7.0228,0.0,0.0,8.3507,0.0,0.0,10.1389,10.4986,10.0508,10.0691,10.119,10.1415,10.5783,10.8914,10.9019,10.8191,10.7609,10.7609,10.5888,10.398,10.2112,10.09,9.8672,9.5137,8.9829,8.3945,0.0,0.0,0.0,0.0,0.0,0.0,0.0,0.0,0.0,0.0,0.0,7.7663,8.1603,8.545,8.7114,8.742,8.8854,8.8605,8.7679,8.8959,8.8597,8.7496,8.7496,8.739,8.7243,8.7243,8.7385,8.7801,8.9216,8.9669,8.9976,9.1395,9.1808,9.1808,9.1808,9.1808,9.1808,9.1808,9.1185,9.0378,8.9582,8.8507,8.6178,8.1213,7.7681,0.0,0.0,0.0,0.0,0.0,0.0,0.0,0.0,0.0,0.0,0.0,0.0,0.0,0.0,0.0,0.0,0.0,0.0,0.0,0.0,0.0,8.1277,8.55,0.0,9.1544,0.0,9.189,9.1808,9.1808,9.1808,9.1808,9.1808,9.1808,9.1808,9.1808,9.1808,9.1808,9.1854,9.2556,9.3433,9.438,9.5001,9.5851,9.6685,0.0,0.0,0.0,0.0,0.0,0.0,0.0,10.2285,10.7315,10.6801,10.7414,10.818,10.8919,10.8919,10.9098,10.9795,10.849,10.7609,10.7609,10.5301,10.3917,10.369,10.1496,9.9427,9.7594,9.3414,8.7068,0.0,0.0,0.0,0.0,0.0,0.0,0.0,0.0,0.0,0.0,7.4765,7.9036,8.2381,8.5683,8.7431,8.8167,8.905,8.9302,8.9216,8.9363,8.929,8.9179,8.9179,8.8674,8.8096,8.8096,8.86,8.9349,9.0214,9.0501,9.0685,9.156,9.1808,9.1808,9.1808,9.1808,9.1808,9.1808,9.1185,9.0382,8.957,8.7617,8.5217,8.2471,8.1668,7.9945,0.0,0.0,0.0,0.0,0.0,0.0,0.0,0.0,0.0,0.0,0.0,0.0,0.0,0.0,0.0,0.0,0.0,0.0,6.6662,0.0,7.9835,8.4688,8.7991,0.0,9.2973,9.2184,9.1808,9.1808,9.1808,9.1808,9.1808,9.1808,9.1808,9.1808,9.1808,9.1808,9.1808,9.189,9.2885,9.43,9.4396,9.539,9.6685,0.0,0.0,0.0,0.0,0.0,0.0,0.0,10.4881,10.7383,10.69,10.7603,10.8406,10.9208,10.8101,10.7886,10.9213,10.7818,10.7089,10.7609,10.5689,10.4184,10.3198,10.1798,9.9803,9.7224,9.3689,8.7961,0.0,0.0,0.0,0.0,0.0,0.0,0.0,0.0,6.7226,7.276,7.6472,8.0504,8.4653,8.7865,8.905,8.907,9.0331,9.0234,8.9546,9.0473,9.0216,8.94,8.94,8.8858,8.8275,8.8785,8.8801,8.8927,9.0224,9.0592,9.0799,9.1583,9.1808,9.1808,9.1808,9.1808,9.1808,9.1808,9.1185,9.0525,9.0193,8.8591,8.6813,8.5358,8.3496,8.1879,0.0,0.0,0.0,0.0,0.0,0.0,0.0,0.0,0.0,0.0,0.0,0.0,0.0,0.0,0.0,0.0,0.0,0.0,6.6405,0.0,7.7719,8.3108,8.7303,9.0396,9.2308,9.1973,9.1808,9.1808,9.1808,9.1808,9.1808,9.1808,9.1808,9.1808,9.1808,9.1808,9.1849,9.239,9.3281,9.4341,9.4827,9.5726,9.6685,8.7565,0.0,8.9493,0.0,9.7708,9.9292,10.4682,10.6491,10.7011,10.6502,10.6906,10.7609,10.8406,10.7409,10.7194,10.8285,10.7194,10.6601,10.7199,10.5899,10.4488,10.3083,10.229,0.0,9.7477,9.4943,9.019,8.3112,7.8485,0.0,0.0,0.0,0.0,0.0,6.6831,7.0874,7.6547,7.9471,8.2961,8.6753,8.95,9.0242,8.9894,9.1267,9.1106,9.0253,9.14,9.1065,9.0101,9.0101,8.9555,8.8904,8.9005,8.8821,8.8821,9.0184,9.0417,9.0472,9.1519,9.1808,9.1808,9.1808,9.1808,9.1808,9.1808,9.1354,9.0891,9.0644,8.9506,8.8394,8.7794,8.5651,8.4098,0.0,0.0,0.0,0.0,0.0,0.0,0.0,0.0,6.2765,5.9061,0.0,0.0,0.0,0.0,0.0,0.0,0.0,0.0,0.0,0.0,0.0,0.0,8.6982,9.0221,9.1808,9.1808,9.1808,9.1808,9.1808,9.1808,9.1808,9.1808,9.1808,9.1808,9.1808,9.1808,9.1849,9.2473,9.3386,9.437,9.4935,9.5809,9.6685,9.2534,9.3986,9.6227,10.2715,10.4383,10.5306,10.6192,10.6386,10.6386,10.6386,10.6386,10.6717,10.7493,10.7609,10.7609,10.7603,10.6906,10.6386,10.6386,10.56,10.4708,0.0,0.0,10.1606,9.9109,9.8239,9.4651,8.8103,0.0,0.0,7.3522,0.0,6.9243,7.0186,7.418,7.7367,7.9987,8.4023,8.6648,8.8317,8.9944,9.0603,9.0685,9.1478,9.1808,9.1771,9.1808,9.1808,9.1771,9.1771,9.1253,9.0289,8.872,8.8748,8.9546,9.0363,9.0028,8.9767,9.1363,9.1808,9.1808,9.1808,9.1808,9.1808,9.1808,9.1808,9.156,9.0768,8.9939,8.9377,8.9364,8.8704,8.7355,8.4985,0.0,0.0,0.0,0.0,0.0,0.0,6.8615,6.5711,6.0854,0.0,0.0,0.0,0.0,0.0,0.0,0.0,0.0,6.5242,7.2323,0.0,8.2149,8.6986,9.0212,9.1808,9.1808,9.1808,9.1808,9.1808,9.1808,9.1808,9.1808,9.1808,9.1808,9.1808,9.1808,9.1808,9.1808,9.2845,9.4287,9.431,9.5349,9.6685,9.6133,9.847,10.0791,10.3403,10.5096,10.6088,10.6386,10.6386,10.6386,10.6386,10.6386,10.6497,10.6796,10.7315,10.7609,0.0,10.7388,10.7199,0.0,10.6413,10.539,10.4,10.3701,10.2081,9.9151,9.8308,9.5237,8.9846,0.0,0.0,0.0,7.5721,7.5959,7.6818,7.9182,8.2205,8.5663,8.7472,8.9185,9.0685,9.1226,9.1432,9.1437,9.1684,9.1808,9.1808,9.1808,9.1808,9.1734,9.1179,9.1179,9.1216,9.0184,8.9996,9.04,9.1179,9.1253,9.1143,9.1661,9.1808,9.1808,9.1808,9.1808,9.1808,9.1808,9.1808,9.1725,9.1473,9.0768,9.0205,9.0222,8.9129,8.7943,8.7185,0.0,0.0,0.0,0.0,0.0,0.0,6.4861,6.2515,0.0,6.1073,0.0,0.0,0.0,0.0,0.0,0.0,0.0,0.0,7.4579,0.0,8.3812,8.7533,9.0221,9.1808,9.1808,9.1808,9.1808,9.1808,9.1808,9.1808,9.1808,9.1808,9.1808,9.1808,9.2143,9.2684,9.2684,9.3676,9.5115,9.5101,9.5805,9.6685,9.8526,10.0691,10.2595,10.3701,10.5018,10.6009,10.6392,10.6386,10.6386,10.6386,10.6386,10.6386,10.6386,10.7084,0.0,10.7609,10.7609,0.0,10.7609,10.6785,10.5794,10.4389,10.4105,10.269,10.0118,0.0,0.0,9.2892,8.9545,8.5349,8.0515,8.1057,8.1711,8.2568,8.42,8.6472,8.9144,8.9976,9.0891,9.1808,9.1808,9.1808,9.1808,9.1808,9.1808,9.1808,9.1808,9.1808,9.1734,9.1212,9.1363,9.1698,9.1216,9.1065,9.1143,9.1661,9.1583,9.1436,9.1734,9.1808,9.1808,9.1808,9.1808,9.1808,9.1808,9.1808,9.1808,9.1808,9.1395,9.1056,9.1056,8.9976,8.8992,8.87,0.0,8.279,0.0,0.0,0.0,0.0,0.0,0.0,0.0,6.3562,0.0,0.0,0.0,0.0,0.0,0.0,0.0,7.0929,7.6528,0.0,8.5447,8.8379,9.0524,9.1808,9.1808,9.1808,9.1808,9.1808,9.1808,9.1808,9.1808,9.1808,9.1808,9.1808,9.2308,9.3116,9.3083,9.4094,9.5515,9.5495,9.6017,9.6685,9.992,10.11,0.0,0.0,10.4682,0.0,10.6386,10.6497,10.6497,10.6497,10.6418,10.6386,10.6386,10.7084,10.7609,10.7609,0.0,0.0,0.0,10.679,10.6014,10.5081,10.432,0.0,10.1509,9.9896,9.8244,9.6529,9.1927,8.8477,8.622,8.622,8.6634,8.7391,8.8893,8.9976,9.0727,9.1478,9.1808,9.1808,9.1808,9.1808,9.1808,9.1808,9.1808,9.1808,9.1808,9.1808,9.1808,9.1808,9.1808,9.1808,9.1808,9.1808,9.1808,9.1808,9.1253,9.0844,9.1588,9.1808,9.1808,9.1808,9.1808,9.1808,9.1808,9.1808,9.1808,9.1808,9.1808,9.1808,9.1808,9.1143,9.0313,8.9451,8.6514,8.2924,7.8902,0.0,0.0,0.0,0.0,0.0,0.0,6.7353,6.9122,0.0,0.0,0.0,0.0,0.0,6.9788,7.2911,7.8374,8.3174,8.7204,8.949,9.1015,9.1808,9.1808,9.1808,9.1808,9.1808,9.1808,9.1808,9.1808,9.1808,9.1808,9.1808,9.2308,9.3097,9.3102,9.4084,9.5514,9.5487,9.6021,9.6685,0.0,0.0,10.3586,10.4604,10.6004,10.7089,10.731,10.731,10.731,10.731,10.6796,10.6386,10.6386,10.7084,10.7609,10.7609,10.7609,10.731,10.6717,10.6491,10.5715,10.4205,10.3995,10.2899,10.0613,9.9595,9.7699,9.4857,9.3102,9.1597,9.0392,9.0392,9.0479,9.0685,9.1061,9.135,9.1519,9.1725,9.1808,9.1808,9.1808,9.1808,9.1808,9.1808,9.1808,9.1808,9.1808,9.1808,9.1808,9.1808,9.1808,9.1808,9.1808,9.1808,9.1808,9.1808,9.1657,9.1546,9.1734,9.1808,9.1808,9.1808,9.1808,9.1808,9.1808,9.1808,9.1808,9.1808,9.1808,9.1808,9.1808,9.1143,9.0136,8.8695,8.4736,8.0429,7.636,7.265,0.0,0.0,6.7732,6.8304,6.753,6.8488,6.9192,0.0,0.0,0.0,0.0,7.3572,7.5964,7.8007,8.1748,8.568,8.9697,9.0323,9.1015,9.1808,9.1808,9.1808,9.1808,9.1808,9.1808,9.1808,9.1808,9.1808,9.1808,9.1808,9.2308,9.3088,9.3107,9.4069,9.5492,9.5514,9.6025,9.6685,10.1793,10.3287,10.4609,10.5002,10.6491,10.7498,10.7084,10.7388,10.7609,10.7609,10.69,10.6491,10.69,10.7016,10.7095,10.7095,10.7388,10.7383,10.7016,10.6607,10.5983,10.5096,10.4289,10.3298,10.2018,10.0099,9.7689,9.4835,9.442,9.3786,9.2932,9.2932,9.2762,9.239,9.239,9.2179,9.1808,9.1808,9.1808,9.1808,9.1808,9.1808,9.1808,9.1808,9.1808,9.1808,9.1808,9.1808,9.1808,9.1808,9.1808,9.1808,9.1808,9.1808,9.1808,9.1808,9.1808,9.1808,9.1808,9.1808,9.1808,9.1808,9.1808,9.1808,9.1808,9.1808,9.1808,9.1808,9.1808,9.1808,9.1808,9.1143,8.9811,8.7473,8.337,7.8788,7.3929,7.1117,0.0,6.7231,6.9781,7.1641,7.1641,7.3006,7.345,7.2382,0.0,0.0,7.346,7.7323,7.9791,8.0332,8.4174,8.7647,9.057,9.095,9.1354,9.1808,9.1808,9.1808,9.1808,9.1808,9.1808,9.1808,9.1808,9.1808,9.1808,9.1808,9.2308,9.3097,9.3097,9.4076,9.55,9.5498,9.6016,9.6685,10.2705,10.3985,10.5007,10.5306,10.6607,10.7388,10.6717,10.7205,10.7609,10.7609,10.69,10.6685,10.731,10.679,10.6386,10.6386,10.7011,10.7383,10.7383,10.6796,10.6308,10.6198,10.4687,10.3812,10.3513,10.0498,9.7814,9.5496,9.5503,9.5078,9.4292,9.4301,9.3952,9.329,9.3152,9.2762,9.2179,9.2056,9.2014,9.2014,9.2014,9.1932,9.1808,9.1808,9.1808,9.1808,9.1808,9.1808,9.1808,9.1808,9.1808,9.1808,9.1808,9.1808,9.1808,9.1808,9.1808,9.1808,9.1808,9.1808,9.1808,9.1808,9.1808,9.1808,9.1808,9.1808,9.1808,9.1808,9.1808,9.1808,9.1808,9.1056,8.9413,8.6306,8.2109,7.7411,7.222,0.0,6.8949,6.8643,7.2644,7.5649,7.6121,7.8391,7.8799,7.6371,7.7105,7.7492,0.0,8.067,8.2476,8.1905,8.6123,8.9163,9.0773,9.1473,9.1808,9.1808,9.1808,9.1808,9.1808,9.1808,9.1808,9.1808,9.1808,9.1808,9.1808,9.1808,9.2225,9.2891,9.2891,9.3883,9.5338,9.5338,9.5902,9.6685,10.3298,10.388,10.4504,10.5983,10.7016,10.7609,10.7383,10.7493,10.7609,10.7609,10.69,10.6413,10.6607,10.6502,10.6386,10.6386,10.6491,10.6607,10.6607,10.6502,10.6088,10.5296,10.4394,10.3303,10.1908,9.9375,9.7236,9.5496,9.5518,9.5096,9.4309,9.4292,9.4243,9.4092,9.3391,9.3386,9.3883,9.318,9.2891,9.2891,9.2891,9.2473,9.1808,9.1808,9.1808,9.1808,9.1808,9.1808,9.1808,9.1808,9.1808,9.1808,9.1808,9.1808,9.1808,9.1808,9.1808,9.1808,9.1808,9.1808,9.1808,9.1808,9.1808,9.1808,9.1808,9.1808,9.1808,9.1808,9.1808,9.1808,9.1808,9.0598,8.8764,8.6201,8.068,7.5638,7.2736,0.0,7.0607,7.2538,7.5874,7.909,8.1818,8.0689,8.0426,8.197,8.0424,7.9961,8.1181,8.3775,8.5513,8.6035,8.8097,9.0009,9.161,9.1739,9.1808,9.1808,9.1808,9.1808,9.1808,9.1808,9.1808,9.1808,9.1808,9.1808,9.1808,9.1808,9.189,9.2014,9.2014,9.3038,9.4497,9.4497,9.5447,9.6685,10.3591,10.42,10.4902,10.6198,10.7095,10.7504,10.7011,10.731,10.7797,10.8185,10.7488,10.7194,10.7587,10.7304,10.6906,10.6418,10.6386,10.6386,10.6386,10.6014,10.5484,10.5112,10.3911,10.2485,10.0917,9.9328,9.797,9.6795,9.6349,9.5945,9.5584,9.5604,9.5353,9.4939,9.4564,9.437,9.4246,9.3427,9.3113,9.3059,9.2588,9.2143,9.1808,9.1808,9.1808,9.1808,9.1808,9.1808,9.1808,9.1808,9.1808,9.1808,9.1808,9.1808,9.1877,9.2354,9.2175,9.1808,9.1808,9.1808,9.1808,9.1808,9.1808,9.1913,9.2391,9.2134,9.1918,9.2391,9.2134,9.1808,9.1808,9.0141,8.8241,8.6688,8.0249,0.0,0.0,7.2684,7.2634,7.5938,7.9591,8.2926,8.5731,8.4606,8.4145,8.5277,8.3492,8.2888,8.4092,8.601,8.7444,8.8262,8.9859,9.1038,9.1771,9.1808,9.1808,9.1808,9.1808,9.2056,9.2473,9.2014,9.206,9.2473,9.2014,9.1808,9.1808,9.1808,9.2097,9.2505,9.251,9.3506,9.494,9.4956,9.569,9.6685,10.399,10.4682,10.5416,10.6192,10.69,10.7084,10.6497,10.69,10.7488,10.818,10.7708,10.7609,10.818,10.7708,10.7095,10.6502,10.6386,10.6308,10.6082,10.5306,10.4897,10.5112,10.3398,10.1714,10.0104,9.9213,9.8447,9.7608,9.7016,9.6685,9.6685,9.6685,9.6353,9.5768,9.5597,9.5161,9.454,9.3707,9.328,9.3037,9.2377,9.1973,9.1808,9.1808,9.1808,9.1808,9.1808,9.1808,9.1849,9.2019,9.1973,9.1849,9.2056,9.1973,9.195,9.2827,9.2767,9.234,9.2138,9.2097,9.2097,9.2097,9.195,9.2024,9.29,9.2427,9.1991,9.2648,9.2281,9.1808,9.1808,8.9976,8.8032,8.6651,0.0,0.0,0.0,7.4788,7.5129,7.9248,8.2957,8.6123,8.8533,8.803,8.7651,8.7823,8.6527,8.5984,8.6618,8.7995,8.9111,8.9926,9.1143,9.1808,9.1808,9.1808,9.1808,9.1808,9.2014,9.2349,9.2762,9.2326,9.2372,9.2762,9.2097,9.1808,9.1808,9.1808,9.2308,9.3111,9.3091,9.406,9.5505,9.5512,9.6025,9.6685,10.4708,10.5081,10.5416,10.6192,10.6413,10.6502,10.6386,10.6502,10.6491,10.6607,10.6491,10.6491,10.6607,10.6491,10.6502,10.6386,10.6386,10.6093,10.518,10.4389,10.4315,10.5117,10.2815,10.0801,9.9208,9.8411,9.7571,9.6795,9.6722,9.6685,9.6685,9.6685,9.6681,9.6598,9.5846,9.5455,9.5355,9.4534,9.3796,9.3093,9.3038,9.2514,9.1808,9.1808,9.1808,9.1808,9.1808,9.1808,9.1932,9.2725,9.2473,9.1932,9.2762,9.2432,9.195,9.2827,9.357,9.3942,9.3212,9.301,9.301,9.301,9.2391,9.2024,9.29,9.2427,9.1808,9.1881,9.184,9.1808,9.1808,9.0438,8.8331,8.5259,0.0,0.0,7.734,7.7063,7.847,8.2556,8.5296,8.775,9.0177,8.9688,8.9546,9.0273,8.952,8.9074,8.9135,8.9938,9.0801,9.1615,9.1725,9.1808,9.1808,9.1808,9.1808,9.1808,9.2638,9.2601,9.1918,9.2671,9.2585,9.189,9.1849,9.1808,9.1808,9.1808,9.2308,9.3093,9.3088,9.4089,9.5484,9.5515,9.6016,9.6685,10.4095,10.4792,10.5416,10.6192,10.6386,10.6386,10.6386,10.6386,10.6607,10.7089,10.7084,10.7084,10.7084,10.7084,10.69,10.6418,10.6386,10.6004,10.5191,10.4787,10.4095,10.2889,10.249,10.1494,9.9879,9.9071,9.8264,9.7424,9.6942,9.6685,9.6685,9.6685,9.6685,9.6681,9.639,9.6224,9.616,9.4851,9.4108,9.3758,9.2721,9.2101,9.1849,9.239,9.2266,9.1932,9.2973,9.3014,9.2725,9.3552,9.3621,9.342,9.3726,9.363,9.3511,9.4341,9.5158,9.5617,9.4813,9.3864,9.3203,9.3731,9.3235,9.2937,9.4295,9.3969,9.3496,9.4001,9.3304,9.2611,9.2611,9.0841,8.9313,8.9103,0.0,8.2168,8.3838,8.2767,8.2963,8.5997,8.8075,8.9807,9.1226,9.1061,9.102,9.1313,9.1047,9.0876,9.0874,9.1172,9.1476,9.1771,9.1808,9.206,9.2597,9.206,9.206,9.2597,9.239,9.2413,9.2607,9.2963,9.2937,9.2601,9.2601,9.2601,9.2601,9.2601,9.3386,9.4586,9.4604,9.5266,9.6234,9.6245,9.6438,9.6685,10.4514,10.4902,10.5301,10.5899,10.6014,10.6014,10.6014,10.6192,10.6607,10.7205,10.7199,10.7199,10.7199,10.7199,10.7016,10.6413,10.6119,10.56,10.4792,10.4493,10.3618,10.1898,10.2406,10.1888,10.0319,9.9764,9.9066,9.8269,9.7713,9.7305,9.7089,9.7089,9.6942,9.6685,9.6685,9.6556,9.6243,9.5132,9.4384,9.3804,9.2679,9.2056,9.1854,9.2473,9.2473,9.2367,9.3502,9.3718,9.3598,9.4425,9.4519,9.4337,9.4614,9.4685,9.4778,9.5351,9.6061,9.657,9.6015,9.4906,9.3998,9.4543,9.4079,9.3818,9.5208,9.4887,9.4451,9.5029,9.4263,9.3391,9.3166,9.1707,9.0598,9.0644,8.7426,8.5578,8.7558,8.6616,8.6516,8.8714,9.0145,9.1185,9.1767,9.1808,9.1808,9.1808,9.1808,9.1808,9.1808,9.206,9.2097,9.1808,9.2308,9.2886,9.3469,9.2625,9.2505,9.3097,9.3014,9.2859,9.2735,9.3497,9.3561,9.3106,9.3368,9.3469,9.3497,9.3488,9.4264,9.5515,9.5509,9.5975,9.6685,9.6685,9.6685,9.6685,10.6098,10.571,10.5112,10.5112,10.5112,10.5112,10.5112,10.5783,10.6386,10.6386,10.6386,10.6386,10.6386,10.6386,10.6386,10.6386,10.56,10.4792,10.4,10.3188,10.27,10.27,10.27,10.1888,10.0319,10.0283,9.9916,9.9098,9.9098,9.8699,9.7906,9.7906,9.7461,9.6722,9.6722,9.6266,9.5514,9.5514,9.4565,9.3134,9.3097,9.2597,9.1808,9.1849,9.2366,9.312,9.3107,9.3643,9.4432,9.5229,9.4976,9.4474,9.5266,9.5495,9.5526,9.5526,9.6085,9.6685,9.6685,9.6122,9.5512,9.5511,9.4882,9.4524,9.5318,9.4882,9.4304,9.4304,9.4304,9.408,9.3263,9.3093,9.2056,8.8769,8.8267,8.7975,8.7177,8.7724,8.881,9.0434,9.1308,9.1808,9.1808,9.1808,9.1808,9.1808,9.1808,9.1808,9.1808,9.2638,9.2721,9.1845,9.3428,9.4301,9.4296,9.3493,9.3116,9.3134,9.4715,9.4213,9.1886,9.4379,9.4604,9.3128,9.3942,9.4296,9.4301,9.4324,9.4768,9.5514,9.5514,9.6017,9.6685,9.6685,9.6685,9.6685,10.4394,10.4902,10.5112,10.5112,10.5595,10.5783,10.5191,10.5783,10.6386,10.6386,10.6386,10.6386,10.6386,10.6386,10.6386,10.6386,10.56,10.4792,10.4,10.3701,10.3293,10.2695,10.27,10.1888,10.0319,10.0283,9.9916,9.9098,9.9098,9.8988,9.8736,9.8736,9.83,9.7534,9.7534,9.7111,9.6317,9.5749,9.523,9.4739,9.4177,9.38,9.3634,9.4177,9.4219,9.4085,9.5232,9.5422,9.5266,9.6058,9.6183,9.6017,9.6266,9.6336,9.6333,9.6333,9.6507,9.6685,9.6685,9.6507,9.6328,9.6355,9.5726,9.5354,9.6167,9.6171,9.5988,9.5988,9.5543,9.507,9.4846,9.431,9.3603,9.2624,9.2473,9.2184,9.1391,9.1478,9.1597,9.1473,9.1643,9.1808,9.1808,9.2349,9.2721,9.2721,9.2721,9.2721,9.2721,9.2969,9.3244,9.3557,9.4058,9.4568,9.5139,9.4334,9.421,9.4766,9.4697,9.3975,9.2771,9.4655,9.4273,9.2309,9.4281,9.4803,9.4333,9.4909,9.5602,9.6349,9.6349,9.6478,9.6685,9.6685,9.6685,9.6685,10.421,10.432,10.4389,10.5002,10.5311,10.5311,10.5112,10.5783,10.6386,10.6386,10.6386,10.6386,10.6386,10.6386,10.6386,10.6386,10.5311,10.432,10.3518,10.3109,10.271,10.2186,10.2191,10.1793,10.0801,10.0806,10.0503,9.9984,9.9984,9.9727,9.9098,9.9098,9.8516,9.7424,9.7424,9.7167,9.6685,9.6191,9.5803,9.5455,9.4975,9.4586,9.4337,9.4834,9.4917,9.4884,9.5864,9.6104,9.6058,9.6556,9.6685,9.6685,9.6685,9.6685,9.6685,9.6685,9.6685,9.6685,9.6685,9.6685,9.6685,9.6685,9.6313,9.6088,9.6575,9.6685,9.6685,9.6685,9.6313,9.5868,9.557,9.5107,9.4667,9.4356,9.4287,9.4126,9.3629,9.3571,9.3386,9.2849,9.2803,9.2803,9.2803,9.3262,9.3566,9.3556,9.358,9.3556,9.3556,9.3887,9.4128,9.4276,9.4906,9.5329,9.5482,9.5349,9.5349,9.5482,9.5329,9.4652,9.3614,9.5226,9.4977,9.3361,9.5198,9.5718,9.5307,9.5768,9.6266,9.6685,9.6685,9.6685,9.6685,9.6685,9.6685,9.6685,10.4604,10.3686,10.3214,10.4598,10.4389,10.4205,10.4897,10.5789,10.6386,10.6308,10.6386,10.6386,10.6308,10.6386,10.6386,10.6308,10.4803,10.3513,10.271,10.2018,10.1582,10.1509,10.1509,10.1509,10.1509,10.1509,10.1509,10.1509,10.1509,10.0806,9.9318,9.9318,9.8442,9.6901,9.6901,9.6832,9.6685,9.6685,9.6266,9.5602,9.5602,9.5183,9.4515,9.4515,9.4976,9.5602,9.5602,9.61,9.6685,9.6685,9.6685,9.6685,9.6685,9.6685,9.6685,9.6685,9.6685,9.6685,9.6685,9.6685,9.6685,9.6685,9.6685,9.6685,9.6685,9.6685,9.6685,9.6685,9.6685,9.6497,9.5758,9.5618,9.5355,9.4618,9.4523,9.4479,9.4432,9.441,9.4366,9.4324,9.4283,9.4283,9.4283,9.4366,9.4411,9.442,9.4397,9.4407,9.4407,9.5112,9.5188,9.4557,9.5934,9.6349,9.5602,9.6349,9.6349,9.5602,9.6349,9.5892,9.4452,9.6013,9.6224,9.5455,9.6312,9.6671,9.6598,9.6681,9.6685,9.6685,9.6685,9.6685,9.6685,9.6685,9.6685,9.6685,10.2989,10.2915,10.2805,10.3214,10.4085,10.4719,10.4205,10.5385,10.6203,10.549,10.6014,10.6119,10.549,10.6014,10.6119,10.5406,10.4504,10.3303,10.1913,10.2191,10.2201,10.1504,10.1509,10.1509,10.1509,10.1509,10.1509,10.1509,10.1509,10.1284,10.099,10.099,10.0099,9.8589,9.8589,9.7892,9.6685,9.6685,9.6598,9.6432,9.6432,9.6349,9.6183,9.6183,9.6307,9.6432,9.6432,9.6556,9.6685,9.6685,9.6685,9.6685,9.6685,9.6685,9.6685,9.6685,9.6685,9.6685,9.6685,9.6685,9.6685,9.6685,9.6685,9.6685,9.6685,9.6685,9.6685,9.6685,9.6685,9.6649,9.646,9.6446,9.6363,9.6226,9.6165,9.5975,9.5349,9.5227,9.4995,9.4369,9.4291,9.4291,9.4291,9.487,9.5247,9.5234,9.5232,9.5243,9.5243,9.5401,9.5722,9.6183,9.6515,9.6639,9.6432,9.6602,9.6602,9.6432,9.6639,9.6183,9.527,9.6242,9.59,9.4644,9.6076,9.6352,9.5809,9.6432,9.6685,9.6685,9.6685,9.6685,9.6685,9.6685,9.6685,9.6685,10.2517,10.2412,10.2485,10.3607,10.42,10.4687,10.4981,10.5789,10.6088,10.5186,10.5904,10.6088,10.5191,10.5899,10.6198,10.5789,10.4614,10.3513,10.2715,10.2307,10.1903,10.1504,10.1509,10.1693,10.2086,10.1688,10.1509,10.1509,10.1509,10.11,10.0398,10.0398,9.9512,9.7965,9.7965,9.7488,9.6685,9.6685,9.6685,9.6685,9.6685,9.6685,9.6685,9.6685,9.6685,9.6685,9.6685,9.6685,9.6685,9.6685,9.6685,9.6685,9.6685,9.6685,9.6685,9.6685,9.6685,9.6685,9.6685,9.6685,9.6685,9.6685,9.6685,9.6685,9.6685,9.6685,9.6685,9.6685,9.6685,9.6685,9.6685,9.6685,9.6685,9.6685,9.6685,9.6556,9.6141,9.6058,9.5934,9.5478,9.5436,9.5436,9.5436,9.5846,9.6058,9.6058,9.6058,9.6058,9.6058,9.6058,9.6266,9.6681,9.6685,9.6685,9.6685,9.6685,9.6685,9.6685,9.6685,9.6473,9.61,9.6515,9.6224,9.5478,9.6349,9.6473,9.61,9.6519,9.6685,9.6685,9.6685,9.6685,9.6685,9.6685,9.6685,9.6685,10.2595,10.2312,10.2485,10.4488,10.4504,10.4582,10.6014,10.6198,10.5904,10.5007,10.549,10.5605,10.4787,10.5306,10.5799,10.5799,10.4404,10.3481,10.3481,10.2196,10.1509,10.1509,10.1509,10.1793,10.2485,10.1793,10.1582,10.1688,10.1582,10.0686,9.9318,9.9318,9.8442,9.6906,9.6906,9.6832,9.6685,9.6685,9.6685,9.6685,9.6685,9.6685,9.6685,9.6685,9.6685,9.6685,9.6685,9.6685,9.6685,9.6685,9.6685,9.6685,9.6685,9.6685,9.6722,9.6851,9.6805,9.6722,9.6888,9.6805,9.6685,9.6685,9.6685,9.6685,9.6685,9.6685,9.6685,9.6685,9.6685,9.6685,9.6685,9.6685,9.6685,9.6685,9.6685,9.6685,9.6685,9.6685,9.6685,9.6685,9.6685,9.6685,9.6685,9.6685,9.6685,9.6685,9.6685,9.6685,9.6685,9.6685,9.6685,9.6685,9.6685,9.6685,9.6685,9.6685,9.6685,9.6685,9.6685,9.6685,9.6685,9.6685,9.6685,9.6685,9.6685,9.6685,9.6685,9.6685,9.6685,9.6685,9.6685,9.6685,9.6685,9.6685,9.6685,9.6685,10.27,10.3188,10.3701,10.399,10.4493,10.5002,10.5186,10.5306,10.5013,10.4215,10.4184,10.3917,10.3099,10.3099,10.3214,10.3214,10.2385,10.1798,10.1798,10.1614,10.1509,10.1509,10.1509,10.1587,10.1693,10.1587,10.1793,10.2517,10.1793,10.0985,10.0094,10.0094,9.9296,9.776,9.776,9.7351,9.6685,9.6685,9.6685,9.6685,9.6685,9.6685,9.6685,9.6685,9.6685,9.6685,9.6685,9.6685,9.6685,9.6685,9.6685,9.6685,9.6685,9.6685,9.6847,9.7516,9.7262,9.6847,9.7553,9.7225,9.6685,9.6685,9.6685,9.6685,9.6685,9.6685,9.6685,9.6685,9.6685,9.6685,9.6685,9.6685,9.6685,9.6685,9.6685,9.6685,9.6685,9.6685,9.6685,9.6685,9.6685,9.6685,9.6685,9.6685,9.6685,9.6685,9.6685,9.6685,9.6685,9.6685,9.6685,9.6685,9.6685,9.6685,9.6685,9.6685,9.6685,9.6685,9.6685,9.6685,9.6685,9.6685,9.6685,9.6685,9.6685,9.6685,9.6685,9.6685,9.6685,9.6685,9.6685,9.6685,9.6685,9.6685,9.6685,9.6685,10.27,10.3287,10.399,10.4499,10.4902,10.5306,10.5789,10.5783,10.539,10.411,10.4284,10.4095,10.2805,10.3109,10.3408,10.3408,10.2595,10.2196,10.2196,10.1682,10.1509,10.1509,10.1509,10.1688,10.2196,10.1682,10.1908,10.27,10.1908,10.0917,9.9654,10.0099,9.9443,9.7906,9.7906,9.7461,9.6685,9.6685,9.6685,9.6685,9.6685,9.6685,9.6685,9.6685,9.6685,9.6685,9.6685,9.6685,9.6685,9.6685,9.6685,9.6786,9.7242,9.7373,9.7516,9.8342,9.8012,9.7464,9.7786,9.7308,9.6685,9.6685,9.6685,9.6685,9.6685,9.6685,9.6685,9.6685,9.6685,9.6685,9.6685,9.6685,9.6685,9.6685,9.6685,9.6685,9.6685,9.6685,9.6685,9.6685,9.6685,9.6685,9.6685,9.6685,9.6685,9.6685,9.6685,9.6685,9.6685,9.6685,9.6685,9.6685,9.6685,9.6685,9.6685,9.6685,9.6685,9.6685,9.6685,9.6685,9.6685,9.6685,9.6685,9.6685,9.6685,9.6685,9.6685,9.6685,9.6685,9.6685,9.6685,9.6685,9.6685,9.6685,9.6685,9.6685]},{"header":{"parameterUnit":"m.s-1","parameterCategory":1,"la1":30.6,"la2":28.766,"lo1":-90.7593,"lo2":-88.6598,"dy":0.0162,"dx":0.0183,"nx":116,"ny":114,"refTime":"2024-02-17T06:00:00:Z","depth":0,"parameterNumber":3,"parameterNumberName":"V-component_of_WINDS"},"data":[0.0,0.0,0.0,0.0,0.0,0.0,0.0,0.0,0.0,0.0,0.0,0.0,0.0,0.0,0.0,0.0,0.0,0.0,0.0,0.0,0.0,0.0,0.0,0.0,0.0,0.0,0.0,0.0,0.0,0.0,0.0,0.0,0.0,0.0,0.0,0.0,0.0,0.0,0.0,0.0,0.0,0.0,0.0,0.0,0.0,0.0,0.0,0.0,0.0,0.0,0.0,0.0,0.0,0.0,0.0,0.0,0.0,0.0,0.0,0.0,0.0,0.0,0.0,0.0,0.0,0.0,0.0,0.0,0.0,0.0,0.0,0.0,0.0,0.0,0.0,0.0,0.0,0.0,0.0,0.0,0.0,0.0,0.0,0.0,0.0,0.0,0.0,0.0,0.0,0.0,0.0,0.0,0.0,0.0,0.0,0.0,0.0,0.0,0.0,0.0,0.0,0.0,0.0,0.0,0.0,0.0,0.0,0.0,0.0,0.0,0.0,0.0,0.0,0.0,0.0,0.0,0.0,0.0,0.0,0.0,0.0,0.0,0.0,0.0,0.0,0.0,0.0,0.0,0.0,0.0,0.0,0.0,0.0,0.0,0.0,0.0,0.0,0.0,0.0,0.0,0.0,0.0,0.0,0.0,0.0,0.0,0.0,0.0,0.0,0.0,0.0,0.0,0.0,0.0,0.0,0.0,0.0,0.0,0.0,0.0,0.0,0.0,0.0,0.0,0.0,0.0,0.0,0.0,0.0,0.0,0.0,0.0,0.0,0.0,0.0,0.0,0.0,0.0,0.0,0.0,0.0,0.0,0.0,0.0,0.0,0.0,0.0,0.0,0.0,0.0,0.0,0.0,0.0,0.0,0.0,0.0,0.0,0.0,0.0,0.0,0.0,0.0,0.0,0.0,0.0,0.0,0.0,0.0,0.0,0.0,0.0,0.0,0.0,0.0,0.0,0.0,0.0,0.0,0.0,0.0,0.0,0.0,0.0,0.0,0.0,0.0,0.0,0.0,0.0,0.0,0.0,0.0,0.0,0.0,0.0,0.0,0.0,0.0,0.0,0.0,0.0,0.0,0.0,0.0,0.0,0.0,0.0,0.0,0.0,0.0,0.0,0.0,0.0,0.0,0.0,0.0,0.0,0.0,0.0,0.0,0.0,0.0,0.0,0.0,0.0,0.0,0.0,0.0,0.0,0.0,0.0,0.0,0.0,0.0,0.0,0.0,0.0,0.0,0.0,0.0,0.0,0.0,0.0,0.0,0.0,0.0,0.0,0.0,0.0,0.0,0.0,0.0,0.0,0.0,0.0,0.0,0.0,0.0,0.0,0.0,0.0,0.0,0.0,0.0,0.0,0.0,0.0,0.0,0.0,0.0,0.0,0.0,0.0,0.0,0.0,0.0,0.0,0.0,0.0,0.0,0.0,0.0,0.0,0.0,0.0,0.0,0.0,0.0,0.0,0.0,0.0,0.0,0.0,0.0,0.0,0.0,0.0,0.0,0.0,0.0,0.0,0.0,0.0,0.0,0.0,0.0,0.0,0.0,0.0,0.0,0.0,0.0,0.0,0.0,0.0,0.0,0.0,0.0,0.0,0.0,0.0,0.0,0.0,0.0,0.0,0.0,0.0,0.0,0.0,0.0,0.0,0.0,0.0,0.0,0.0,0.0,0.0,0.0,0.0,0.0,0.0,0.0,0.0,0.0,0.0,0.0,0.0,0.0,0.0,0.0,0.0,0.0,0.0,0.0,0.0,0.0,0.0,0.0,0.0,0.0,0.0,0.0,0.0,0.0,0.0,0.0,0.0,0.0,0.0,0.0,0.0,0.0,0.0,0.0,0.0,0.0,0.0,0.0,0.0,0.0,0.0,0.0,0.0,0.0,0.0,0.0,0.0,0.0,0.0,0.0,0.0,0.0,0.0,0.0,0.0,0.0,0.0,0.0,0.0,0.0,0.0,0.0,0.0,0.0,0.0,0.0,0.0,0.0,0.0,0.0,0.0,0.0,0.0,0.0,0.0,0.0,0.0,0.0,0.0,0.0,0.0,0.0,0.0,0.0,0.0,0.0,0.0,0.0,0.0,0.0,0.0,0.0,0.0,0.0,0.0,0.0,0.0,0.0,0.0,0.0,0.0,0.0,0.0,0.0,0.0,0.0,0.0,0.0,0.0,0.0,0.0,0.0,0.0,0.0,0.0,0.0,0.0,0.0,0.0,0.0,0.0,0.0,0.0,0.0,0.0,0.0,0.0,0.0,0.0,0.0,0.0,0.0,0.0,0.0,0.0,0.0,0.0,0.0,0.0,0.0,0.0,0.0,0.0,0.0,0.0,0.0,0.0,0.0,0.0,0.0,0.0,0.0,0.0,0.0,0.0,0.0,0.0,0.0,0.0,0.0,0.0,0.0,0.0,0.0,0.0,0.0,0.0,0.0,0.0,0.0,0.0,0.0,0.0,0.0,0.0,0.0,0.0,0.0,0.0,0.0,0.0,0.0,0.0,0.0,0.0,0.0,0.0,0.0,0.0,0.0,0.0,0.0,0.0,0.0,0.0,0.0,0.0,0.0,0.0,0.0,0.0,0.0,0.0,0.0,0.0,0.0,0.0,0.0,0.0,0.0,0.0,0.0,0.0,0.0,0.0,0.0,0.0,0.0,0.0,0.0,0.0,0.0,0.0,0.0,0.0,0.0,0.0,0.0,0.0,0.0,0.0,0.0,0.0,0.0,0.0,0.0,0.0,0.0,0.0,0.0,0.0,0.0,0.0,0.0,0.0,0.0,0.0,0.0,0.0,0.0,0.0,0.0,0.0,0.0,0.0,0.0,0.0,0.0,0.0,0.0,0.0,0.0,0.0,0.0,0.0,0.0,0.0,0.0,0.0,0.0,0.0,0.0,0.0,0.0,0.0,0.0,0.0,0.0,0.0,0.0,0.0,0.0,0.0,0.0,0.0,0.0,0.0,0.0,0.0,0.0,0.0,0.0,0.0,0.0,0.0,0.0,0.0,0.0,0.0,0.0,0.0,0.0,0.0,0.0,0.0,0.0,0.0,0.0,0.0,0.0,0.0,0.0,0.0,0.0,0.0,0.0,0.0,0.0,0.0,0.0,0.0,0.0,0.0,0.0,0.0,0.0,0.0,0.0,0.0,0.0,0.0,0.0,0.0,0.0,0.0,0.0,0.0,0.0,0.0,0.0,0.0,0.0,0.0,0.0,0.0,0.0,0.0,0.0,0.0,0.0,0.0,0.0,0.0,0.0,0.0,0.0,0.0,0.0,0.0,0.0,0.0,0.0,0.0,0.0,0.0,0.0,0.0,0.0,0.0,0.0,0.0,0.0,0.0,0.0,0.0,0.0,0.0,0.0,0.0,0.0,0.0,0.0,0.0,0.0,0.0,0.0,0.0,0.0,0.0,0.0,0.0,0.0,0.0,0.0,0.0,0.0,0.0,0.0,0.0,0.0,0.0,0.0,0.0,0.0,0.0,0.0,0.0,0.0,0.0,0.0,0.0,0.0,0.0,0.0,0.0,0.0,0.0,0.0,0.0,0.0,0.0,0.0,0.0,0.0,0.0,0.0,0.0,0.0,0.0,0.0,0.0,0.0,0.0,0.0,0.0,0.0,0.0,0.0,0.0,0.0,0.0,0.0,0.0,0.0,0.0,0.0,0.0,0.0,0.0,0.0,0.0,0.0,0.0,0.0,0.0,0.0,0.0,0.0,0.0,0.0,0.0,0.0,0.0,0.0,0.0,0.0,0.0,0.0,0.0,0.0,0.0,0.0,0.0,0.0,0.0,0.0,0.0,0.0,0.0,0.0,0.0,0.0,0.0,0.0,0.0,0.0,0.0,0.0,0.0,0.0,0.0,0.0,0.0,0.0,0.0,0.0,0.0,0.0,0.0,0.0,0.0,0.0,0.0,0.0,0.0,0.0,0.0,0.0,0.0,0.0,0.0,0.0,0.0,0.0,0.0,0.0,0.0,0.0,0.0,0.0,0.0,0.0,0.0,0.0,0.0,0.0,0.0,0.0,0.0,0.0,0.0,0.0,0.0,0.0,0.0,0.0,0.0,0.0,0.0,0.0,0.0,0.0,0.0,0.0,0.0,0.0,0.0,0.0,0.0,0.0,0.0,0.0,0.0,0.0,0.0,0.0,0.0,0.0,0.0,0.0,0.0,0.0,0.0,0.0,0.0,0.0,0.0,0.0,0.0,0.0,0.0,0.0,0.0,0.0,0.0,0.0,0.0,0.0,0.0,0.0,0.0,0.0,0.0,0.0,0.0,0.0,0.0,0.0,0.0,0.0,0.0,0.0,0.0,0.0,0.0,0.0,0.0,0.0,0.0,0.0,0.0,0.0,0.0,0.0,0.0,0.0,0.0,0.0,0.0,0.0,0.0,0.0,0.0,0.0,0.0,0.0,0.0,0.0,0.0,0.0,0.0,0.0,0.0,0.0,0.0,0.0,0.0,0.0,0.0,0.0,0.0,0.0,0.0,0.0,0.0,0.0,0.0,0.0,0.0,0.0,0.0,0.0,0.0,0.0,0.0,0.0,0.0,0.0,0.0,0.0,0.0,0.0,0.0,0.0,0.0,0.0,0.0,0.0,0.0,0.0,0.0,0.0,0.0,0.0,0.0,0.0,0.0,0.0,0.0,0.0,0.0,0.0,0.0,0.0,0.0,0.0,0.0,0.0,0.0,0.0,0.0,0.0,0.0,0.0,0.0,0.0,0.0,0.0,0.0,0.0,0.0,0.0,0.0,0.0,0.0,0.0,0.0,0.0,0.0,0.0,0.0,0.0,0.0,0.0,0.0,0.0,0.0,0.0,0.0,0.0,0.0,0.0,0.0,0.0,0.0,0.0,0.0,0.0,0.0,0.0,0.0,0.0,0.0,0.0,0.0,0.0,0.0,0.0,0.0,0.0,0.0,0.0,0.0,0.0,0.0,0.0,0.0,0.0,0.0,0.0,0.0,0.0,0.0,0.0,0.0,0.0,0.0,0.0,0.0,0.0,0.0,0.0,0.0,0.0,0.0,0.0,0.0,0.0,0.0,0.0,0.0,0.0,0.0,0.0,0.0,0.0,0.0,0.0,0.0,0.0,0.0,0.0,0.0,0.0,0.0,0.0,0.0,0.0,0.0,0.0,0.0,0.0,0.0,0.0,0.0,0.0,0.0,0.0,0.0,0.0,0.0,0.0,0.0,0.0,0.0,0.0,0.0,0.0,0.0,0.0,0.0,0.0,0.0,0.0,0.0,0.0,0.0,0.0,0.0,0.0,0.0,0.0,0.0,0.0,0.0,0.0,0.0,0.0,0.0,0.0,0.0,0.0,0.0,0.0,0.0,0.0,0.0,0.0,0.0,0.0,0.0,0.0,0.0,0.0,0.0,0.0,0.0,0.0,0.0,0.0,0.0,0.0,0.0,0.0,0.0,0.0,0.0,0.0,0.0,0.0,0.0,0.0,0.0,0.0,0.0,0.0,0.0,0.0,0.0,0.0,0.0,0.0,0.0,0.0,0.0,0.0,0.0,0.0,0.0,0.0,0.0,0.0,0.0,0.0,0.0,0.0,0.0,0.0,0.0,0.0,0.0,0.0,0.0,0.0,0.0,0.0,0.0,0.0,0.0,0.0,0.0,0.0,0.0,0.0,0.0,0.0,0.0,0.0,0.0,0.0,0.0,0.0,0.0,0.0,0.0,0.0,0.0,0.0,0.0,0.0,0.0,0.0,0.0,0.0,0.0,0.0,0.0,0.0,0.0,0.0,0.0,0.0,0.0,0.0,0.0,0.0,0.0,0.0,0.0,0.0,0.0,0.0,0.0,0.0,0.0,0.0,0.0,0.0,0.0,0.0,0.0,0.0,0.0,0.0,0.0,0.0,0.0,0.0,0.0,0.0,0.0,0.0,0.0,0.0,0.0,0.0,0.0,0.0,0.0,0.0,0.0,0.0,0.0,0.0,0.0,0.0,0.0,0.0,0.0,0.0,0.0,0.0,0.0,0.0,0.0,0.0,0.0,0.0,0.0,0.0,0.0,0.0,0.0,0.0,0.0,0.0,0.0,0.0,0.0,0.0,0.0,0.0,0.0,0.0,0.0,0.0,0.0,0.0,0.0,0.0,0.9559,0.0,0.0,0.0,0.0,0.0,0.0,0.0,0.0,0.0,0.0,0.0,0.0,0.0,0.0,0.0,0.0,0.0,0.0,0.0,0.0,0.0,0.0,0.0,0.0,0.0,0.0,0.0,0.8088,0.8142,0.8141,0.8205,0.8284,0.839,0.8498,0.8533,0.8494,0.8696,0.8934,0.9203,0.9201,0.9246,0.9339,0.9583,0.9585,0.9402,0.0,0.0,0.0,0.0,0.0,0.0,0.0,0.0,0.0,0.0,0.0,0.0,0.0,0.0,0.0,0.0,0.0,0.0,0.0,0.0,0.0,0.0,0.0,0.0,0.0,0.0,0.0,0.0,0.0,0.0,0.0,0.0,0.0,0.0,0.0,0.0,0.0,0.0,0.0,0.0,0.0,0.0,0.0,0.0,0.0,0.0,0.0,0.0,0.0,0.0,0.0,0.0,0.0,0.0,0.0,0.0,0.0,0.0,0.0,0.0,0.0,0.0,0.0,0.0,0.0,0.0,0.0,0.0,0.0,0.0,0.0,1.023,0.0,0.0,0.0,0.0,0.0,0.0,0.0,0.0,0.0,0.0,0.0,0.0,0.0,0.0,0.0,0.0,0.0,0.0,0.0,0.0,0.0,0.0,0.0,0.673,0.7969,0.7677,0.8072,0.8348,0.8368,0.8453,0.8506,0.8533,0.856,0.8642,0.8784,0.8811,0.8961,0.9234,0.9343,0.9614,1.0052,1.0231,1.0371,1.0465,1.0432,0.0,0.0,0.0,0.0,0.0,0.0,0.0,0.0,0.0,0.0,0.0,0.0,0.0,0.0,0.0,0.0,0.0,0.0,0.0,0.0,0.0,0.0,0.0,0.0,0.0,0.0,0.0,0.0,0.0,0.0,0.0,0.0,0.0,0.0,0.0,0.0,0.0,0.0,0.0,0.0,0.0,0.0,0.0,0.0,0.0,0.0,0.0,0.0,0.0,0.0,0.0,0.0,0.0,0.0,0.0,0.0,0.0,0.0,0.0,0.0,0.0,0.0,0.0,0.0,0.0,1.3754,1.3979,1.409,1.4063,1.3128,1.2035,1.0945,0.0,0.0,0.0,0.0,0.0,0.0,0.0,0.0,0.0,0.0,0.0,0.0,0.0,0.0,0.0,0.0,0.0,0.0,0.0,0.0,0.0,0.0,0.8045,0.7851,0.639,0.7621,0.852,0.8642,0.856,0.8553,0.8669,0.8784,0.894,0.9132,0.9246,0.9328,0.9376,0.9899,1.045,1.1021,1.1385,1.2678,1.4616,1.2871,1.2784,1.3862,0.0,0.0,0.0,0.0,0.0,0.0,0.0,0.0,0.0,0.0,0.0,0.0,0.0,0.0,0.0,0.0,0.0,0.0,0.0,0.0,0.0,0.0,0.0,0.0,0.0,0.0,0.0,0.0,0.0,0.0,0.0,0.0,0.0,0.0,0.0,0.0,0.0,0.0,0.0,0.0,0.0,0.9254,0.9637,0.0,0.0,0.0,0.0,0.0,0.0,0.0,0.0,0.0,0.0,0.0,0.0,0.0,0.0,1.1789,1.209,1.3517,1.6073,1.6808,1.8287,2.0363,2.0909,2.1215,2.1206,1.8914,0.0,1.1855,1.1209,0.0,0.0,0.0,0.0,0.0,0.0,0.0,0.0,0.0,0.0,0.0,0.0,0.0,0.0,0.0,0.0,0.0,0.0,0.0,0.0,0.0,0.7455,0.7204,0.7747,0.9301,0.9984,0.9359,0.9506,0.9463,0.911,0.9076,0.9144,0.9308,0.9184,0.9381,0.9905,1.2065,1.3378,1.3936,1.5309,1.6684,1.7961,1.7694,1.7064,1.6168,1.5187,0.0,0.0,0.0,0.0,0.0,0.0,0.0,0.0,0.0,0.0,0.0,0.0,0.0,0.0,0.0,0.0,0.0,0.0,0.0,0.0,0.0,0.0,0.0,0.0,0.0,0.0,0.0,0.0,0.0,0.0,0.0,0.0,0.0,0.0,0.0,0.0,0.0,0.0,0.0,0.9498,0.9925,0.9913,1.0152,1.0134,0.0,0.0,0.0,0.0,0.0,0.0,0.0,0.0,0.0,1.3878,1.5458,1.6654,1.7434,1.7966,1.8958,2.0396,2.1022,2.1875,2.2909,2.332,2.3543,2.3533,2.241,2.0607,1.8134,1.4003,1.1872,1.1153,0.0,0.0,0.0,0.0,0.0,1.2958,0.0,0.0,0.0,0.0,0.0,0.0,0.0,0.0,0.0,0.0,0.0,0.0,0.8661,0.7662,0.7779,0.9793,1.0828,1.1023,1.0205,1.0229,1.004,0.9524,0.9369,0.9349,0.945,0.9394,1.0146,1.176,1.4414,1.6277,1.7419,1.9136,2.0451,2.14,2.2237,2.1276,1.894,1.7869,1.703,1.6249,0.0,0.0,0.0,0.0,0.0,0.0,0.0,0.0,0.0,0.0,0.0,0.0,0.0,0.0,0.0,0.0,0.0,0.0,0.0,0.0,0.0,0.0,0.0,0.0,0.0,0.0,0.0,0.0,0.0,0.0,0.0,0.0,0.0,0.0,0.0,0.0,0.0,1.0169,1.0511,1.0256,1.0596,1.0615,0.0,0.0,0.0,0.0,0.0,0.0,1.242,1.457,1.6481,1.8045,2.0118,2.1529,2.2236,2.2775,2.3593,2.4659,2.5082,2.5681,2.6473,2.6674,2.6768,2.6756,2.6665,2.5919,2.4221,1.7415,1.3992,1.2908,1.1879,1.1692,0.0,1.2468,1.4218,1.6205,0.0,0.0,0.0,0.0,0.0,0.0,0.0,0.0,0.0,0.0,0.0,0.8459,0.9601,0.9989,1.0677,1.1941,1.1248,1.0849,1.1113,1.0204,0.9685,0.978,0.9644,0.9584,0.9591,1.0261,1.2292,1.571,1.6469,1.8302,2.1146,2.1697,2.3161,2.5322,2.5364,2.4541,2.2958,2.0624,1.9862,1.9938,1.6679,0.0,0.0,0.0,0.0,0.0,0.0,0.0,0.0,0.0,0.0,0.0,0.0,0.0,0.0,0.0,0.0,0.0,0.0,0.0,0.0,0.0,0.0,0.0,0.0,0.0,0.0,0.0,0.0,0.0,0.0,0.0,0.0,0.0,0.0,0.0,0.0,0.0,0.0,1.0865,1.1101,0.0,0.0,0.0,0.0,1.0894,1.1791,1.3669,1.663,1.7284,1.9144,2.2557,2.293,2.3364,2.397,2.401,2.5566,2.8624,2.8895,3.0564,3.3392,3.3483,3.3483,3.3406,3.3089,3.1196,2.7801,2.0826,1.7507,1.6516,1.3437,1.3559,1.5493,1.5832,1.7616,1.9857,0.0,0.0,0.0,0.0,0.0,0.0,0.0,0.0,0.1675,0.6337,0.8575,0.9831,1.0094,1.1023,1.187,1.2469,1.2626,1.2509,1.2072,1.14,1.086,1.052,1.0009,0.9908,1.0301,1.2686,1.4872,1.6841,2.0733,2.3423,2.4968,2.6438,2.7672,2.8681,2.8467,2.7853,2.6858,2.4704,2.3113,2.1868,1.9716,1.8939,0.0,0.0,0.0,0.0,0.0,0.0,0.0,0.0,0.0,0.0,0.0,0.0,0.0,0.0,0.0,0.0,0.0,0.0,0.0,0.0,0.0,0.0,0.0,0.0,0.0,0.0,0.0,0.0,0.0,0.0,0.0,0.0,0.0,0.0,0.0,0.0,0.0,1.4884,1.4014,0.0,0.0,1.3865,1.5627,1.6565,1.7982,1.942,2.0822,2.2714,2.463,2.6546,2.8316,2.961,3.0404,3.0577,3.1152,3.212,3.239,3.299,3.3894,3.392,3.3945,3.3945,3.356,3.2747,3.1348,2.6916,2.3374,2.0615,1.9074,1.8895,1.9554,1.9971,2.1671,2.3564,0.0,0.0,0.0,0.0,0.0,0.0,0.0,0.0,0.4097,0.7995,0.9665,1.0579,1.0777,1.267,1.4126,1.4643,1.5594,1.5596,1.4276,1.3208,1.2102,1.0951,1.0426,1.0874,1.235,1.4967,1.7642,2.0369,2.3908,2.6549,2.8344,2.9822,3.0631,3.083,3.0606,3.0169,2.9517,2.8198,2.6135,2.3652,2.2173,2.1585,2.1357,0.0,0.0,0.0,0.0,0.0,0.0,0.0,0.0,0.0,0.0,0.0,0.0,0.0,0.0,0.0,0.0,0.0,0.0,0.0,0.0,0.0,0.0,0.0,0.0,0.0,0.0,0.0,0.0,0.0,0.0,0.0,0.0,0.0,0.0,0.0,1.5186,1.7403,1.7529,1.6627,1.4554,1.7272,1.9245,1.9483,2.1739,2.3676,2.4996,2.6981,2.8838,3.0466,3.2258,3.3452,3.4028,3.4216,3.4269,3.4214,3.4376,3.4388,3.4201,3.4158,3.4065,3.3957,3.356,3.3408,3.3245,3.1134,2.8692,2.5983,2.3452,2.2782,2.3268,2.3699,2.534,2.7136,0.0,0.0,0.0,0.0,0.0,0.0,0.0,0.7997,0.8216,0.8817,0.9644,1.063,1.1834,1.5085,1.7613,1.8683,2.0044,1.9889,1.7661,1.5439,1.3218,1.1014,1.0919,1.2441,1.5688,1.7002,2.0503,2.6381,2.5788,2.7439,3.1149,3.1558,3.1726,3.1726,3.1726,3.1418,3.0858,3.0833,2.8831,2.5539,2.4008,2.3367,2.318,0.0,0.0,0.0,0.0,0.0,0.0,0.0,0.0,0.0,0.0,0.0,0.0,0.0,0.0,0.0,0.0,0.0,0.0,0.0,0.0,0.0,0.0,0.0,0.0,0.0,0.0,0.0,0.0,0.0,0.0,0.0,0.0,0.0,1.172,1.5402,1.8123,1.8318,2.1491,2.2261,1.8706,2.1421,2.2254,1.9443,2.2811,2.6246,2.9109,2.9814,3.143,3.4232,3.4323,3.4323,3.4336,3.4336,3.4482,3.4802,3.4816,3.4802,3.4775,3.465,3.4342,3.3881,3.3547,3.3401,3.3374,3.3119,3.3011,3.2395,2.627,2.4985,2.6631,2.6949,2.8492,3.0375,0.0,0.0,0.0,0.0,0.0,0.0,0.0,0.8003,0.8218,0.8825,1.0493,1.265,1.5346,1.756,1.9844,2.2379,2.1981,2.0528,1.8027,1.5647,1.3383,1.1207,1.1297,1.3208,1.7072,1.9578,2.2547,2.6038,2.866,3.0714,3.2195,3.2305,3.2353,3.2353,3.2451,3.2408,3.2224,3.1672,3.0753,2.9397,2.6643,2.5018,2.4061,0.0,0.0,0.0,0.0,0.0,0.0,0.0,0.0,0.0,0.0,0.0,0.0,0.0,0.0,0.0,0.0,0.0,0.0,0.0,0.0,0.0,0.0,0.0,0.0,0.0,0.0,0.0,0.0,0.0,0.0,0.0,0.0,1.5508,1.583,1.7727,2.0812,2.5487,2.5584,2.5614,2.6472,2.7512,2.7742,2.6793,2.98,3.201,3.2824,3.3019,3.3588,3.4629,3.4656,3.4763,3.495,3.495,3.491,3.4802,3.5003,3.4857,3.4442,3.4401,3.4239,3.3957,3.356,3.3401,3.3388,3.332,3.3186,3.2821,3.0883,3.0442,3.0876,3.0722,3.0801,3.093,0.0,0.0,0.0,0.0,0.0,0.0,0.0,0.8002,0.8265,0.9007,1.1721,1.4545,1.7084,2.0485,2.3318,2.5112,2.4699,2.2781,1.9124,1.5327,1.2674,1.1416,1.3239,1.5957,1.955,2.2935,2.5995,2.8716,3.0961,3.2371,3.2931,3.2931,3.2948,3.2941,3.3017,3.3146,3.3261,3.2679,3.217,3.1609,2.947,2.7987,2.6764,2.4284,2.2735,2.1764,2.0822,1.9544,1.798,1.571,0.0,0.0,0.0,0.0,0.0,0.0,0.0,0.0,0.0,0.0,0.0,0.0,0.0,0.0,0.0,0.0,0.0,0.0,0.0,0.0,0.0,0.0,0.0,0.0,1.5996,1.8901,2.2006,2.3025,2.4941,2.8997,2.9442,2.9568,2.993,3.1074,3.129,3.0006,3.2776,3.4509,3.4509,3.4723,3.4884,3.495,3.507,3.5164,3.5191,3.5191,3.5124,3.4976,3.5137,3.4963,3.4509,3.4509,3.4375,0.0,3.376,3.3614,3.3601,3.3467,3.3307,0.0,0.0,0.0,0.0,0.0,3.2009,3.1545,0.0,0.0,0.0,0.0,0.0,0.0,0.0,0.8001,0.8338,0.9257,1.2947,1.6093,1.763,2.3225,2.7011,2.7413,2.7678,2.5582,2.0304,1.475,1.171,1.1836,1.5855,1.9471,2.2441,2.6327,2.9771,3.2688,3.2735,3.2985,3.3398,3.3539,3.3594,3.36,3.36,3.3802,3.41,3.3757,3.3291,3.2742,3.2221,3.1353,3.0046,2.6782,2.5683,2.5741,2.4569,2.2505,2.0089,1.8701,0.0,0.0,0.0,0.0,0.0,0.0,0.0,0.0,0.0,0.0,0.0,0.0,0.0,0.0,0.0,0.0,0.0,0.0,0.0,0.0,0.0,0.0,0.0,0.0,1.8499,2.1794,2.8536,2.9577,2.9895,3.0549,3.2917,3.3551,3.1094,3.3071,3.3486,3.1042,3.3406,3.4949,3.4949,0.0,0.0,0.0,0.0,3.5538,3.5297,3.5257,3.5244,3.5244,3.5204,3.5057,3.4802,3.4802,3.4616,3.4296,3.4015,3.3894,3.3867,3.3547,3.3401,3.3387,3.3146,3.2889,3.2648,3.2648,3.2409,0.0,0.0,0.0,0.0,0.0,0.0,0.0,0.0,0.8001,0.83,0.913,1.2895,1.6249,1.8209,2.3293,2.7704,3.0533,2.9379,2.5823,1.9462,1.4634,1.2416,1.3328,1.6811,2.0298,2.367,2.7264,3.0441,3.324,3.3572,3.3621,3.3418,3.4397,3.485,3.4852,3.4852,3.4902,3.4965,3.4883,3.4515,3.3962,3.3842,3.2437,3.0202,2.8328,2.7646,2.7743,2.8053,2.773,2.6663,2.3732,2.2961,2.2682,1.9473,0.0,0.0,0.0,0.0,0.0,0.0,0.0,0.0,0.0,0.0,0.0,0.0,0.0,0.0,0.0,0.0,0.0,0.0,0.0,0.0,1.7802,2.1237,2.5087,2.9914,3.2729,3.436,3.4504,3.5245,3.5538,3.5015,3.5444,3.5524,3.5002,3.551,3.5845,3.5845,3.5952,0.0,3.5926,3.5992,3.5992,3.5926,3.5658,3.5525,3.5511,0.0,0.0,3.4802,3.4802,3.4616,3.4296,3.4015,3.3894,3.3867,3.3547,3.3401,3.3388,3.3334,3.3159,3.2917,3.2917,3.2571,3.2091,0.0,0.0,0.0,0.0,0.0,0.0,0.0,0.8001,0.8215,0.8825,1.3248,1.6926,1.8446,2.2914,2.6669,2.8861,2.6809,2.2931,1.7129,1.4295,1.3903,1.6254,1.995,2.3433,2.6628,3.0049,3.2544,3.4056,3.4216,3.4303,3.4308,3.4922,3.5199,3.5204,3.5205,3.5205,3.5219,3.5524,3.5523,3.5322,3.4909,3.3894,3.2442,3.0961,3.0404,3.049,3.1117,3.1161,3.0456,2.7493,2.6517,2.6091,2.3514,2.1229,1.932,0.0,0.0,0.0,0.0,0.0,0.0,0.0,0.0,0.0,0.0,0.0,0.0,0.0,0.0,1.1402,1.2035,0.0,1.6974,2.1002,2.4859,2.8791,3.2919,3.5077,3.6152,3.5885,3.6126,3.6246,3.6113,3.622,3.6246,3.6113,3.622,3.6233,3.6113,3.622,3.63,3.63,3.6433,3.6433,3.63,3.6126,3.5898,3.5605,3.5458,3.5257,3.5003,3.5003,3.491,3.4736,3.4295,3.4108,3.4056,3.3588,3.3401,3.3401,3.3401,3.332,3.32,3.32,3.3019,3.2729,0.0,0.0,0.0,0.0,0.0,0.0,0.0,0.8001,0.8117,0.844,1.342,1.7282,1.8161,2.2025,2.4582,2.4685,2.216,1.9,1.5307,1.4815,1.6067,1.9234,2.3666,2.7182,2.9599,3.293,3.4763,3.4964,3.5028,3.5177,3.5429,3.5498,3.5524,3.5528,3.5534,3.5666,3.5911,3.6393,3.6531,3.6342,3.5779,3.5351,3.4963,3.3622,3.3006,3.291,3.3269,3.2995,3.2175,3.0247,2.9125,2.8326,2.7202,2.5386,2.3341,2.1717,2.009,0.0,0.0,0.0,0.0,0.0,0.0,0.0,0.0,0.0,1.145,1.2845,1.2784,1.3061,1.4919,1.7279,2.0398,2.486,2.8323,3.1801,3.5708,3.6726,3.6913,3.6487,3.662,3.6647,3.638,3.6594,3.662,3.6286,3.6566,3.6648,3.6367,3.662,3.674,3.674,3.6967,3.6966,3.674,3.6633,3.6326,3.5858,3.5752,3.5578,3.5364,3.5311,3.5284,3.5244,3.4643,3.4363,3.4269,3.3722,3.3456,3.3406,3.3389,3.3401,3.3401,3.3401,3.3403,3.3372,0.0,0.0,0.0,0.0,0.0,0.0,0.0,0.0,0.8019,0.8061,1.272,1.6292,1.6927,2.0359,2.1533,1.8825,1.6443,1.5444,1.6328,1.7701,1.9254,2.0959,2.6657,3.0141,3.0886,3.4178,3.5912,3.5939,3.6407,3.6522,3.6272,3.6575,3.6698,3.671,3.6709,3.7314,3.8308,3.8376,3.763,3.6419,3.6633,3.6515,3.6127,3.5232,3.4464,3.3801,3.3521,3.2487,3.1332,3.1644,3.0837,2.9729,2.9867,2.8627,2.6946,2.597,2.2946,1.9744,1.8991,1.5858,1.2817,1.2912,1.1785,1.1445,0.0,0.0,1.3783,1.9006,1.6777,1.5534,2.0931,2.0986,2.2209,2.8378,3.0485,3.2634,3.6301,3.7328,3.7674,3.7621,3.7635,3.7541,3.7289,3.7503,3.742,3.686,3.7328,3.7543,3.7263,3.7515,3.7648,3.7648,3.7674,3.7674,3.7648,3.7113,3.6819,3.6752,3.6273,3.6033,3.5992,3.5685,3.5551,3.5525,3.4977,3.4576,3.4283,3.3975,3.3675,3.3407,3.3394,3.3401,3.3401,3.3401,3.3403,3.3397,0.0,0.0,0.0,0.0,0.0,0.0,0.0,0.0,0.0,0.8002,1.1862,1.4716,1.4964,1.6924,1.7373,1.528,1.3829,1.3457,1.4438,1.8007,2.1359,2.4209,2.8976,3.2397,3.4199,3.5966,3.6928,3.7088,3.7314,3.7523,3.773,3.7151,3.7092,3.7432,3.7785,3.8222,3.8705,3.8706,3.807,3.7053,3.7152,3.6808,3.6181,3.5712,3.4608,3.3227,3.2627,3.0893,0.0,3.0612,3.0473,2.9751,3.0255,2.916,2.7522,2.6663,2.4534,2.1833,1.8853,1.7515,1.654,0.0,1.5264,1.6647,1.8481,1.8478,1.8877,2.1662,2.1076,2.0879,2.3646,2.5291,2.7192,0.0,3.2757,3.5057,3.6934,3.7422,3.7489,3.73,3.7141,3.7195,3.7581,3.7728,3.7702,3.7434,3.7835,3.7958,3.765,3.7742,3.7889,3.8091,3.8091,3.8091,3.8091,3.7648,3.7247,3.6899,3.6513,3.6246,3.6086,3.5752,3.5431,3.5124,3.4896,3.4602,3.4283,3.4053,3.3741,3.3396,3.3391,3.341,3.3401,3.3401,3.3409,3.3403,0.0,0.0,0.0,0.0,0.0,0.0,0.0,0.0,0.0,0.0,1.0828,1.3146,1.3967,1.4817,1.462,1.2848,1.2543,1.2929,1.406,1.8961,2.3668,2.7845,3.1715,3.4816,3.7059,3.7609,3.7956,3.8169,3.825,3.853,3.893,3.8,3.7824,3.8307,3.8581,3.8689,3.8708,3.8696,3.8236,3.7488,3.7432,3.6888,3.6033,3.5484,3.3983,3.2079,3.1299,2.9101,2.6851,2.8767,2.896,2.8521,2.9189,2.8572,2.7399,2.6426,2.4656,2.2367,1.9543,1.9181,0.0,1.7762,1.9034,2.1035,2.254,2.2825,2.3354,2.5434,2.5272,2.5312,2.7224,2.9219,3.101,3.2269,3.4877,3.6928,3.745,3.737,3.7074,3.6606,3.6099,3.6099,3.6901,3.7328,3.7581,3.7674,3.8065,3.8186,3.7942,3.8008,3.8169,3.8399,3.8411,3.8411,3.8411,3.8105,3.7676,3.7153,3.6888,3.6594,3.6313,3.5925,3.5444,3.4909,3.4909,3.4776,3.4536,3.4397,3.4158,3.3861,3.3525,3.3605,3.3868,3.3527,3.3401,3.3401,0.0,0.0,0.0,0.0,0.0,0.0,0.0,0.0,0.0,0.0,0.0,0.0,0.0,1.5222,1.4258,1.1408,1.2337,1.4181,1.6802,2.1625,2.662,3.162,3.5311,3.7684,3.8607,3.8916,3.9045,3.906,3.9383,3.9545,3.9559,3.934,3.934,3.9515,3.8945,3.8698,3.8695,3.8698,3.8238,3.7488,3.7432,3.6888,3.5939,3.4495,3.2541,3.0468,2.9663,2.7349,2.4913,2.6415,2.635,2.5766,2.6633,2.7094,0.0,2.5879,2.2864,2.0337,2.2223,0.0,1.9127,2.2341,2.2581,2.2931,2.6345,2.5721,2.6068,3.1884,2.9235,2.753,3.3008,3.2412,3.2147,3.5427,3.6752,3.7462,3.7742,3.7274,3.6606,3.5738,3.4656,3.4215,0.0,3.6139,3.706,3.7396,3.7958,3.8306,3.8292,3.853,3.8676,3.8689,3.8689,3.8689,3.8689,3.8411,3.8105,3.7768,3.7503,3.7195,3.6859,3.634,3.5752,3.519,3.519,3.5177,3.5177,3.5171,3.5161,3.5032,3.386,3.4127,3.4994,3.383,3.3401,3.3401,0.0,0.0,0.0,0.0,0.0,0.0,0.0,0.0,0.0,0.0,0.0,0.0,0.0,0.0,0.0,0.0,1.1195,1.2465,1.5324,2.0854,2.5658,2.933,3.4571,3.7609,3.8089,3.8985,3.9515,3.9702,4.004,4.0202,4.0202,4.0129,4.0129,4.0187,3.9975,3.9677,3.9296,3.9298,3.8571,3.7391,3.6912,3.6246,3.5391,3.4308,3.2061,2.9324,0.0,2.5006,2.2148,2.3881,2.4017,2.3603,2.4525,2.4601,2.4142,2.2931,2.2522,2.2376,2.2004,0.0,2.4527,2.5587,2.7166,2.8975,3.0911,3.102,3.1315,3.3326,3.2071,3.1152,3.2861,3.287,3.3201,3.4952,3.6259,3.7181,3.7489,3.7167,3.6299,3.467,3.4122,0.0,0.0,0.0,0.0,3.698,3.7635,3.8065,3.8292,3.8731,3.8968,3.8968,3.8968,3.8968,3.8968,3.8288,3.7915,3.7781,3.7301,3.6927,3.6619,3.626,3.5872,3.5458,3.5284,3.5191,3.5204,3.5211,3.5205,3.5163,3.4756,3.4355,3.3964,3.3552,3.3405,3.3401,0.0,0.0,0.0,0.0,0.0,0.0,0.0,0.0,0.0,0.0,0.0,0.0,0.0,0.0,0.0,0.0,0.0,1.1631,1.5347,1.9708,2.4093,2.8471,3.2357,3.483,3.5738,3.6112,3.674,3.7634,3.7984,3.8504,3.9213,3.964,4.0084,4.047,3.9812,3.9324,3.8944,3.8731,3.785,3.6527,3.5391,3.4352,3.3319,3.1796,2.9526,0.0,2.5283,2.2767,2.045,2.175,2.1931,2.1721,2.2325,2.2328,2.2064,2.182,2.2356,2.3133,2.3681,2.5617,2.7764,2.8922,3.0861,3.2718,3.3681,3.3975,3.3975,3.3774,3.3172,3.2531,3.2047,3.2063,3.2599,3.3933,3.4923,3.5872,3.6928,3.6432,3.5458,3.4068,3.352,3.3093,0.0,0.0,0.0,3.6619,3.7207,3.7716,3.8266,3.8731,3.8968,3.8968,3.8968,3.8968,3.8968,3.8316,3.7863,3.7648,3.7141,3.6713,3.634,3.6193,3.5872,3.5445,3.5271,3.5191,3.519,3.52,3.5208,3.5163,3.4733,3.4074,3.3391,3.3398,3.3404,3.3401,0.0,0.0,0.0,0.0,0.0,0.0,0.0,0.0,0.0,0.0,0.0,0.0,0.0,0.0,0.0,0.0,0.0,0.0,1.6734,1.8364,2.2125,2.8888,2.9037,2.9891,3.1877,3.0925,3.134,3.3268,3.36,3.4723,3.6606,3.7824,3.9099,4.0277,3.8355,3.755,3.7642,3.7248,3.6369,3.5076,3.3012,3.1426,3.0039,2.7447,2.5361,2.3656,2.2231,2.0894,1.9867,2.0098,2.021,2.025,2.0277,2.054,2.1133,2.2612,2.2528,2.2871,2.7169,2.8202,2.8888,3.2246,3.352,3.4107,3.4682,3.4522,3.4069,3.3401,3.2545,3.1623,0.0,0.0,3.0503,3.2571,3.3025,3.3934,3.6219,3.5324,3.4309,0.0,0.0,0.0,0.0,0.0,0.0,3.6326,0.0,3.7301,3.8252,3.857,3.8714,3.8714,3.8714,3.8714,3.8714,3.8437,3.7998,3.7396,3.7074,3.6647,3.6139,3.6113,3.5778,3.5244,3.5204,3.5191,3.5191,3.5191,3.5184,3.506,3.3935,3.345,3.3428,3.3428,3.3427,3.3401,0.0,0.0,0.0,0.0,0.0,0.0,0.0,0.0,0.0,0.0,0.0,0.0,0.0,0.0,0.0,0.0,0.0,0.0,1.4994,1.7031,2.0127,2.4674,2.7145,2.8746,2.9486,3.0083,3.0751,3.1463,3.1555,3.1851,3.2384,3.3693,3.5798,3.8349,3.4815,3.423,3.6018,3.8532,3.8139,3.556,3.1967,3.005,2.9195,2.7642,2.5959,2.4305,2.363,2.1968,2.0071,1.9953,2.0332,2.0946,2.1403,2.2058,2.2979,2.4704,2.5828,2.7055,2.9477,3.089,3.2098,3.3898,3.4468,3.4602,3.4762,3.4189,3.3228,3.1758,3.0257,2.8716,0.0,0.0,0.0,3.1358,3.3495,0.0,3.6955,3.6633,0.0,3.4709,0.0,3.4014,3.3762,3.4056,0.0,0.0,3.6566,3.7102,3.824,3.8743,3.9008,3.9008,3.9008,3.9008,3.9008,3.8518,3.7998,3.7396,3.7301,3.7074,3.6673,3.6286,3.6019,3.5845,3.5404,3.5191,3.5191,3.5191,3.503,3.4747,3.4734,3.4347,3.3774,3.3838,3.3665,3.3401,0.0,0.0,0.0,0.0,0.0,0.0,0.0,0.0,0.0,0.0,0.0,0.0,0.0,0.0,0.0,0.0,0.0,0.0,0.0,1.498,1.7594,2.0869,2.3148,2.4713,2.551,2.5671,2.6339,2.7512,2.7512,2.8043,2.9058,2.9811,3.1012,3.2451,3.059,3.05,3.1912,3.4676,3.4598,0.0,0.0,2.6005,2.6927,2.5511,2.4171,2.2987,2.2411,2.1679,2.1034,2.1261,0.0,2.225,2.3233,2.4124,2.5192,2.7008,0.0,2.976,3.166,3.3039,3.4161,3.495,3.515,3.4883,3.3841,3.3001,3.176,2.9352,2.7666,0.0,2.4632,0.0,0.0,0.0,0.0,0.0,3.6727,3.674,3.6339,0.0,3.5618,0.0,3.511,3.5338,3.5872,0.0,3.6795,3.7182,3.824,3.8689,3.8913,3.8913,3.8913,3.8876,3.8743,3.8451,3.8065,3.7583,3.7583,3.7342,3.6899,3.6579,3.6246,3.5859,0.0,3.5311,3.5191,3.5191,3.507,3.4854,3.472,3.4373,3.3932,3.3785,3.3599,3.3401,0.0,0.0,0.0,0.0,0.0,0.0,0.0,0.0,0.0,0.0,0.0,0.0,0.0,0.0,0.0,0.0,0.0,0.0,0.0,0.0,1.5171,1.7704,1.8832,1.9997,2.129,2.0342,2.0847,2.2887,2.2887,2.3928,2.5926,2.5966,2.5629,2.5066,2.5977,2.6344,2.6347,2.7865,2.7942,2.6589,2.1462,2.1207,2.3741,0.0,2.1414,2.0994,2.0253,2.0777,2.2021,2.3243,2.3737,2.4084,2.5512,2.6593,2.7675,2.9497,3.0579,3.1649,3.3587,3.4709,3.5364,3.5551,3.5511,3.4817,3.2506,3.1371,2.9889,2.6717,0.0,2.3897,2.2743,2.3915,2.5835,2.8259,0.0,3.3267,3.6246,3.6393,3.6407,3.6953,3.678,3.654,3.634,3.654,3.6928,3.7529,3.7357,3.7557,3.8304,3.8611,3.8743,3.8689,3.8689,3.8599,3.8359,3.8345,3.8198,3.7875,3.7875,3.7541,3.6952,3.6927,3.6473,3.5712,0.0,0.0,3.5244,3.5204,3.5148,3.5009,3.4338,3.4006,3.3877,3.3533,3.3401,3.3401,0.0,0.0,0.0,0.0,0.0,0.0,0.0,0.0,0.0,0.0,0.8005,0.0,0.0,0.0,0.0,0.0,0.0,0.0,0.0,0.0,0.0,1.6216,1.8277,1.9522,1.9783,2.0006,2.033,2.0731,2.0731,2.0944,2.1344,2.163,2.146,2.0949,2.1446,2.1346,2.0792,2.1099,2.1114,2.0839,1.9806,1.9764,2.0271,1.9974,0.0,0.0,2.057,2.0613,2.14,2.449,2.6015,2.6821,2.8022,2.9183,3.0448,3.2211,3.3026,3.3653,3.495,3.5618,3.5885,3.5658,3.5057,3.3963,3.184,2.9991,0.0,0.0,2.3291,2.2084,2.0893,2.2874,2.5623,2.8465,3.1131,3.3947,3.7128,3.7114,3.698,0.0,0.0,0.0,0.0,0.0,0.0,0.0,0.0,0.0,3.8622,3.8876,3.8928,3.8717,3.8689,3.8676,3.8636,3.8636,3.8492,3.8212,3.8212,3.7905,3.7301,3.7034,3.6699,3.6313,0.0,0.0,3.5511,3.5297,3.4909,3.4467,3.4491,3.4091,3.3506,3.3427,3.3401,3.3401,0.0,0.0,0.0,0.0,0.0,0.0,0.0,0.0,0.0,0.0,0.9366,0.9745,0.0,0.0,0.0,0.0,0.0,0.0,0.0,0.0,0.0,0.0,0.0,0.0,1.9139,1.9398,1.9684,1.9998,0.0,1.9867,1.9985,2.0015,1.9897,1.9653,1.9843,1.9728,1.9404,1.9403,1.9397,1.9406,1.9402,1.9405,0.0,0.0,0.0,0.0,0.0,2.0353,2.1311,2.3967,2.654,2.8871,3.0196,3.1545,3.2826,3.3841,3.4429,3.5004,3.6005,3.6392,3.6432,3.6139,3.5071,3.3307,3.0312,0.0,0.0,0.0,2.1357,2.0636,1.9927,2.2054,0.0,2.6643,2.9072,3.1998,3.5672,3.5818,0.0,3.8049,3.8155,0.0,0.0,0.0,0.0,0.0,0.0,0.0,3.9159,3.9115,3.8982,3.8717,3.8689,3.8689,3.8689,3.8689,3.8636,3.8504,3.8504,3.8198,3.7595,3.7434,3.706,3.6487,0.0,0.0,3.5578,3.5311,3.503,3.475,3.4533,3.4212,3.3829,3.3521,3.3401,3.3401,0.0,0.0,0.0,0.0,0.0,0.0,0.0,0.8658,0.906,0.8808,1.0835,1.1552,0.9568,0.854,0.813,0.0,0.0,0.0,0.0,0.0,0.0,0.0,0.0,0.0,0.0,0.0,0.0,0.0,1.9474,0.0,0.0,0.0,0.0,0.0,0.0,1.9401,1.9401,1.9401,1.9401,0.0,0.0,0.0,0.0,0.0,0.0,0.0,0.0,2.0075,2.1135,2.313,2.6012,2.9037,3.065,3.264,3.4429,3.4575,3.5164,3.5952,3.6699,3.6953,3.6927,3.658,3.5003,3.2557,2.8917,2.6503,0.0,2.0784,1.9899,1.9667,1.9514,2.1323,2.3358,0.0,2.6957,2.9769,3.3937,3.451,3.5498,0.0,3.8622,0.0,0.0,0.0,0.0,0.0,0.0,0.0,3.9691,3.9261,3.8942,3.8781,3.8729,3.8689,3.8689,3.8689,3.8689,3.8689,3.8689,3.8423,3.7888,3.7835,3.738,3.6673,0.0,0.0,0.0,3.5338,3.5177,3.507,3.4589,3.4323,3.4149,3.3682,3.3455,3.3401,0.0,0.0,0.0,0.0,0.0,0.0,0.0,1.079,1.2507,1.1405,1.1509,1.2199,1.3573,1.0301,0.8017,0.0,0.0,0.0,0.0,0.0,0.0,0.0,0.0,0.0,0.0,0.0,0.0,0.0,0.0,0.0,0.0,0.0,0.0,0.0,0.0,0.0,0.0,1.9401,0.0,0.0,0.0,0.0,0.0,0.0,0.0,0.0,0.0,1.9879,2.0322,2.2917,2.4369,2.5436,2.7468,3.1167,3.4655,3.4135,0.0,0.0,3.6806,3.7128,3.7209,3.6633,3.4376,3.1476,2.8436,0.0,2.2793,2.034,1.9627,1.9501,1.972,2.0615,2.2223,2.5014,2.6557,2.8946,3.3359,3.4629,3.5805,3.7661,0.0,0.0,3.8689,0.0,0.0,0.0,0.0,0.0,0.0,3.9184,3.8836,3.906,3.8821,3.8689,3.8689,3.8689,3.8689,3.8689,3.8689,3.8544,3.8238,3.7944,3.7621,3.7275,0.0,0.0,0.0,3.5444,3.5057,3.4829,3.4789,3.4428,3.3934,3.3868,3.3654,3.3401,0.0,0.0,0.0,0.0,0.0,0.0,0.0,1.1375,1.3771,1.3289,1.3227,1.3503,1.4217,1.0526,0.7999,0.0,0.0,0.0,0.0,0.0,0.0,0.0,0.0,0.0,0.0,0.0,0.0,0.0,0.0,0.0,0.0,0.0,0.0,0.0,0.0,0.0,0.0,0.0,0.0,0.0,0.0,0.0,0.0,0.0,0.0,0.0,0.0,0.0,2.0343,2.1122,2.2614,2.4137,2.4244,2.7145,3.0833,0.0,3.4189,3.5939,3.6927,3.7422,3.7503,3.6887,3.4136,3.089,2.8286,0.0,2.2201,2.0214,1.9595,1.9428,1.9541,1.9973,2.0943,2.2836,2.3384,2.506,2.9321,3.0366,3.2064,3.5792,3.6901,0.0,0.0,0.0,0.0,0.0,0.0,0.0,0.0,3.9627,3.9132,3.8876,3.8769,3.8689,3.8689,3.8689,3.8689,3.8689,3.8689,3.8558,3.8292,3.8069,3.7774,3.7356,0.0,0.0,0.0,3.5444,3.5137,3.5017,3.4856,3.4642,3.4402,3.4087,3.3846,3.3707,0.0,0.0,0.0,0.0,0.0,0.0,0.7182,1.098,1.3168,1.2987,1.3906,1.4502,1.4326,1.1645,0.936,0.8108,0.0,0.0,0.0,0.0,0.0,0.0,0.0,0.0,0.0,0.0,0.0,0.0,0.0,0.0,0.0,0.0,0.0,0.0,0.0,0.0,0.0,0.0,0.0,0.0,0.0,0.0,0.0,0.0,0.0,0.0,0.0,0.0,0.0,0.0,0.0,2.26,2.1847,2.375,2.6891,3.0031,3.2664,3.487,3.6353,3.7128,3.7406,3.6913,3.3909,3.049,0.0,0.0,2.1809,2.014,1.9595,1.9401,1.9401,1.9614,2.016,2.1266,2.1553,2.297,2.6774,2.7759,2.9633,3.3788,0.0,0.0,0.0,0.0,0.0,0.0,0.0,0.0,0.0,3.9764,3.9313,3.8893,3.8758,3.8689,3.8689,3.8689,3.8689,3.8689,3.8689,3.8558,3.8292,3.8111,3.7721,3.7209,0.0,0.0,0.0,3.5404,3.5191,3.5177,3.499,3.4922,3.4853,3.4365,3.4058,3.3881,0.0,0.0,0.0,0.0,0.0,0.0,0.0,0.9561,1.0519,0.9921,1.2971,1.4963,1.437,1.4254,1.2555,0.8371,0.0,0.0,0.0,0.0,0.0,0.0,0.0,0.0,0.0,0.0,0.0,0.0,0.0,0.0,0.0,0.0,0.0,0.0,0.0,0.0,0.0,0.0,0.0,0.0,0.0,0.0,0.0,0.0,0.0,0.0,0.0,0.0,0.0,0.0,0.0,0.0,0.0,2.1743,2.3652,2.7199,3.052,3.3333,3.4817,3.6045,3.6833,3.6566,3.3627,3.0259,0.0,2.4752,2.1585,2.0107,1.9595,1.9401,1.9401,1.9614,2.0094,2.0968,2.2101,2.3919,2.6871,2.8273,2.976,0.0,0.0,0.0,0.0,0.0,0.0,0.0,0.0,0.0,0.0,3.9408,3.9306,3.9289,3.8907,3.8689,3.8689,3.8689,3.8689,3.8689,3.8689,3.8558,3.8292,3.7956,3.7474,0.0,0.0,0.0,0.0,3.5311,3.5191,3.5191,3.5204,3.5201,3.5154,3.474,3.4303,3.3854,0.0,0.0,0.0,0.0,0.0,0.0,0.0,0.8841,0.9842,1.0884,1.0591,1.0214,1.0016,1.1302,1.1053,0.8243,0.0,0.0,0.0,0.0,0.0,0.0,0.0,0.0,0.0,0.0,0.0,0.0,0.0,0.0,0.0,0.0,0.0,0.0,0.0,0.0,0.0,0.0,0.0,0.0,0.0,0.0,0.0,0.0,0.0,0.0,0.0,0.0,0.0,0.0,0.0,0.0,0.0,0.0,0.0,2.3293,2.7108,3.0503,3.162,3.2623,3.3132,3.2225,3.0009,2.7632,2.5966,2.3589,2.1355,2.0074,1.9595,1.9401,1.9401,1.9468,2.0069,2.1729,2.2303,2.3322,2.5483,0.0,0.0,3.1852,3.5418,0.0,0.0,0.0,0.0,0.0,0.0,0.0,0.0,3.937,3.8897,3.8893,3.8758,3.8689,3.8689,3.8689,3.8689,3.8689,3.8689,3.8558,3.8279,3.7815,0.0,0.0,0.0,0.0,0.0,3.5351,3.5191,3.5191,3.5191,3.5201,3.5141,3.476,3.4335,3.3945,0.0,0.0,0.0,0.0,0.0,0.0,0.0,0.8315,0.9047,1.0401,0.908,0.8004,0.8,0.9192,0.9454,0.8118,0.0,0.0,0.0,0.0,0.0,0.0,0.0,0.0,0.0,0.0,0.0,0.0,0.0,0.0,0.0,0.0,0.0,0.0,0.0,0.0,0.0,0.0,0.0,0.0,0.0,0.0,1.5209,0.0,0.0,0.0,0.0,0.0,0.0,0.0,0.0,0.0,0.0,0.0,0.0,0.0,2.3946,2.6794,2.8829,3.011,3.0658,2.9782,2.8019,2.6146,2.4755,2.2809,2.098,2.0,1.9595,1.9401,1.9401,1.9474,1.9962,2.1229,2.1804,2.2721,0.0,0.0,0.0,3.2278,0.0,0.0,0.0,0.0,0.0,0.0,0.0,0.0,0.0,0.0,3.8707,3.8689,3.8689,3.8689,3.8689,3.8596,3.8596,3.8689,3.8475,3.8276,3.8091,3.7522,0.0,0.0,0.0,0.0,0.0,3.5297,3.5191,3.5191,3.5191,3.5202,3.5107,3.4411,3.4132,3.408,0.0,0.0,0.0,0.0,0.0,0.0,0.0,0.0,0.0,0.0,0.8344,0.7997,0.8004,0.8,0.7994,0.0,0.0,0.0,0.0,0.0,0.0,0.0,0.0,0.0,0.0,0.0,0.0,2.0705,2.1341,2.2112,2.2992,0.0,0.0,0.0,0.0,0.0,0.0,0.0,0.0,0.0,0.0,1.7894,0.0,0.0,0.0,0.0,0.0,0.0,0.0,0.0,0.0,0.0,0.0,0.0,0.0,0.0,0.0,0.0,0.0,2.808,2.8909,2.8569,2.7041,2.5355,2.4182,2.2226,0.0,1.9893,1.9574,1.9401,1.9455,1.9627,1.9813,1.996,0.0,0.0,0.0,2.64,0.0,0.0,0.0,0.0,0.0,0.0,0.0,0.0,0.0,0.0,0.0,0.0,3.8682,3.8662,3.8662,3.8662,3.8676,3.8411,3.8426,3.8662,3.8075,3.7809,3.7797,3.7209,0.0,0.0,0.0,0.0,0.0,3.5191,3.5191,3.5191,3.5191,3.5204,3.5058,3.3941,3.3887,3.4268,0.0,0.0,0.0,0.0,0.0,0.0,0.0,0.0,0.0,0.0,0.8092,0.8,0.8002,0.8,0.8001,0.0,0.0,0.0,0.0,0.0,0.0,0.0,0.0,0.0,0.0,0.0,0.0,2.0705,2.1718,2.2792,2.3897,2.4044,0.0,0.0,0.0,0.0,0.0,0.0,0.0,0.0,1.9339,1.8057,0.0,0.0,0.0,0.0,1.8388,1.9213,0.0,0.0,0.0,0.0,0.0,0.0,0.0,0.0,2.03,2.0887,2.2026,0.0,2.3946,2.3465,2.2796,2.2058,0.0,2.0712,2.0159,0.0,0.0,1.9528,1.9939,1.9727,2.0009,0.0,0.0,0.0,2.4947,0.0,0.0,0.0,0.0,0.0,0.0,0.0,0.0,0.0,0.0,0.0,0.0,0.0,3.8562,3.8243,3.8229,3.8299,3.8399,3.8319,3.8319,3.8399,3.7982,3.7884,3.8007,3.7571,0.0,0.0,0.0,0.0,3.5191,3.5191,3.5191,3.5191,3.5191,3.5202,3.517,3.4887,3.4861,3.4845,0.0,0.0,0.0,0.0,0.0,0.0,0.0,0.0,0.0,0.0,0.0,0.0,0.0,0.0,0.0,0.0,0.0,0.0,0.0,0.0,0.0,0.0,0.0,0.0,0.0,0.0,0.0,0.0,0.0,2.3572,0.0,0.0,0.0,0.0,0.0,0.0,0.0,0.0,0.0,0.0,1.9348,0.0,0.0,0.0,0.0,0.0,1.7988,1.8876,0.0,2.0055,1.9502,1.8867,0.0,0.0,0.0,0.0,1.9727,1.9893,2.0195,2.1229,2.2084,2.1513,2.1229,2.0933,2.0344,2.0012,1.9754,0.0,0.0,1.9488,1.9773,1.9708,0.0,0.0,2.2336,0.0,0.0,0.0,0.0,0.0,0.0,0.0,0.0,0.0,0.0,0.0,0.0,0.0,0.0,0.0,3.8513,3.8108,3.8151,3.8155,3.8076,3.7958,3.7958,3.8065,3.7474,3.7416,3.7792,3.7072,0.0,0.0,0.0,0.0,3.5191,3.5191,3.5191,3.519,3.5202,3.5198,3.5193,3.5194,3.4843,3.4276,0.0,0.0,0.0,0.0,0.0,0.0,0.0,0.0,0.0,0.0,0.0,0.0,0.0,0.0,0.0,0.0,0.0,0.0,0.0,0.0,0.0,0.0,0.0,0.0,0.0,0.0,0.0,0.0,0.0,0.0,0.0,0.0,2.5056,0.0,0.0,0.0,0.0,0.0,0.0,0.0,1.9287,0.0,0.0,0.0,0.0,0.0,0.0,0.0,0.0,2.0529,2.0567,2.0269,2.0708,0.0,0.0,0.0,0.0,0.0,1.9941,2.105,2.1871,2.1109,2.0901,2.0754,2.0205,1.9727,1.9401,1.9401,0.0,1.9441,1.9575,1.9855,0.0,0.0,0.0,0.0,0.0,0.0,0.0,0.0,0.0,0.0,0.0,0.0,0.0,0.0,0.0,0.0,0.0,0.0,0.0,3.807,3.8169,3.8036,3.7676,3.7489,3.7517,3.7732,3.6929,3.6962,3.7646,3.6477,0.0,0.0,0.0,0.0,3.5191,3.5191,3.5191,3.5204,3.5198,3.509,3.4932,3.4932,3.4275,3.3409,0.0,0.0,0.0,0.0,0.0,0.0,0.0,0.0,0.0,0.0,0.0,0.0,0.0,0.0,0.0,0.0,0.0,0.0,0.0,0.0,0.0,0.0,0.0,0.0,0.0,0.0,0.0,0.0,0.0,0.0,2.6369,2.7859,2.662,0.0,0.0,0.0,0.0,0.0,0.0,1.9327,1.9374,0.0,0.0,0.0,0.0,0.0,0.0,0.0,0.0,1.9675,1.9907,2.0138,1.9767,0.0,0.0,0.0,0.0,0.0,2.0975,2.182,2.1961,2.0393,2.0,1.9927,0.0,0.0,1.9401,1.9401,1.9401,1.9636,2.0357,2.0953,2.1668,0.0,0.0,0.0,0.0,0.0,0.0,0.0,0.0,0.0,0.0,0.0,0.0,0.0,0.0,0.0,0.0,0.0,0.0,3.7861,3.7875,3.7607,3.7046,3.7289,3.7442,3.7544,3.7071,3.7428,3.8474,3.727,3.6271,0.0,0.0,3.5191,3.5191,3.5191,3.5191,3.5204,3.5198,3.458,3.3681,3.3673,3.3564,3.3395,0.0,0.0,0.0,0.0,0.0,0.0,0.0,0.0,0.0,0.0,0.0,0.0,0.0,0.0,0.0,0.0,0.0,0.0,0.0,0.0,0.0,0.0,0.0,0.0,0.0,0.0,0.0,0.0,0.0,2.672,2.8053,2.7074,2.5262,2.2735,0.0,0.0,0.0,0.0,0.0,1.9388,0.0,0.0,0.0,0.0,0.0,0.0,0.0,0.0,0.0,0.0,2.012,2.0428,2.0183,0.0,0.0,0.0,0.0,0.0,2.0225,2.0697,2.0914,2.058,2.0997,0.0,0.0,0.0,0.0,0.0,0.0,0.0,0.0,0.0,0.0,0.0,0.0,0.0,0.0,0.0,0.0,0.0,0.0,0.0,0.0,0.0,0.0,0.0,0.0,0.0,0.0,0.0,0.0,0.0,3.7763,3.7396,3.6899,3.7052,3.715,3.7167,3.668,3.6909,3.7688,3.6511,3.5695,3.5191,0.0,3.5191,3.5191,3.5191,3.5191,3.5203,3.5205,3.4458,3.3395,3.3408,3.3391,3.3395,0.0,0.0,0.0,0.0,0.0,0.0,0.0,0.0,0.0,0.0,0.0,0.0,0.0,0.0,0.0,0.0,0.0,0.0,0.0,0.0,0.0,0.0,0.0,0.0,0.0,0.0,2.0163,2.2925,2.6102,2.8457,2.9949,2.6724,2.4346,0.0,0.0,0.0,0.0,0.0,1.9401,1.9345,0.0,0.0,0.0,0.0,0.0,0.0,0.0,0.0,0.0,0.0,0.0,0.0,0.0,0.0,0.0,1.9774,1.9534,1.9568,1.9923,2.0162,2.0475,2.1141,0.0,0.0,0.0,0.0,0.0,0.0,0.0,0.0,0.0,2.3724,0.0,0.0,0.0,0.0,0.0,0.0,0.0,0.0,0.0,0.0,0.0,0.0,0.0,0.0,0.0,0.0,0.0,0.0,0.0,0.0,3.773,3.7361,3.6902,3.6895,3.691,3.691,3.6477,3.6353,3.6471,3.5602,3.5191,3.5191,3.5191,3.5191,3.5191,3.5191,3.5191,3.5203,3.52,3.4448,3.3401,3.3397,3.3396,3.3442,0.0,0.0,0.0,0.0,0.0,0.0,0.0,0.0,0.0,0.0,0.0,0.0,0.0,0.0,0.0,0.0,0.0,0.0,0.0,0.0,0.0,0.0,0.0,0.0,0.0,1.9811,2.2069,2.6889,2.9066,3.0629,3.1485,2.8502,2.5894,2.3621,0.0,0.0,0.0,0.0,1.9401,1.9245,1.7541,0.0,0.0,0.0,0.0,0.0,0.0,0.0,0.0,0.0,0.0,0.0,0.0,0.0,2.0224,2.0157,1.9979,2.0074,2.1438,2.1833,2.186,2.1927,2.097,0.0,2.2642,2.2288,0.0,2.3295,0.0,0.0,0.0,0.0,0.0,0.0,0.0,0.0,0.0,0.0,0.0,0.0,0.0,0.0,0.0,0.0,0.0,0.0,0.0,0.0,0.0,0.0,0.0,0.0,0.0,3.7502,3.6909,3.6897,3.6897,3.6897,3.6866,3.631,3.531,3.5244,3.5191,3.5191,3.5191,3.5191,3.5191,3.5191,3.5191,3.5203,3.52,3.4449,3.3404,3.3402,3.3402,3.3554,0.0,0.0,0.0,0.0,0.0,0.0,0.0,0.0,0.0,0.0,0.0,0.0,0.0,0.0,0.0,0.0,0.0,0.0,0.0,0.0,0.0,0.0,0.0,1.4887,1.8799,2.1803,2.502,2.8424,3.1007,3.1782,3.0816,2.7486,0.0,0.0,0.0,0.0,0.0,0.0,0.0,1.9794,1.8554,1.8304,0.0,0.0,0.0,0.0,0.0,0.0,0.0,0.0,1.9038,1.962,1.9451,1.9912,2.0441,2.0052,1.9872,1.992,2.0481,2.1178,2.1828,2.2164,2.2108,0.0,0.0,2.3692,2.4236,2.5898,0.0,0.0,0.0,0.0,0.0,0.0,0.0,0.0,0.0,0.0,0.0,0.0,0.0,0.0,0.0,0.0,0.0,0.0,0.0,0.0,0.0,0.0,0.0,0.0,0.0,3.7125,3.6895,3.6208,3.5845,3.5832,3.5831,3.5615,3.5191,3.5191,3.5191,3.5191,3.5191,3.5191,3.5191,3.5191,3.5189,3.5132,3.4373,3.38,3.3401,3.3401,3.3395,3.3465,0.0,0.0,0.0,0.0,0.0,0.0,0.0,0.0,0.0,0.0,0.0,0.0,0.0,0.0,0.0,0.0,0.0,0.0,0.0,0.0,0.0,0.0,0.0,1.4709,1.8163,2.3331,2.716,2.9508,3.2128,3.2265,3.0054,0.0,0.0,0.0,0.0,0.0,0.0,0.0,0.0,0.0,1.8735,1.839,0.0,0.0,0.0,0.0,0.0,0.0,0.0,0.0,1.8643,1.9238,1.929,1.9819,2.0376,2.0141,2.0013,1.9912,1.9819,2.0462,2.1285,2.1849,0.0,0.0,2.4918,2.5573,2.65,2.8535,0.0,0.0,0.0,0.0,0.0,0.0,0.0,0.0,0.0,0.0,0.0,0.0,0.0,0.0,0.0,0.0,0.0,0.0,0.0,0.0,0.0,0.0,0.0,0.0,0.0,0.0,3.6368,3.559,3.5192,3.5205,3.5205,3.5191,3.5204,3.5202,3.5203,3.5204,3.5202,3.5202,3.5202,3.52,3.4985,3.4546,3.3721,3.3402,3.3401,3.3401,3.3396,3.3403,0.0,0.0,0.0,0.0,0.0,0.0,0.0,0.0,0.0,0.0,0.0,0.0,0.0,0.0,0.0,0.0,0.0,0.0,0.0,0.0,0.0,0.0,0.0,1.5204,1.8877,2.4292,2.8169,3.0426,3.2398,3.2038,2.9414,2.7071,0.0,0.0,0.0,0.0,0.0,0.0,0.0,0.0,1.7614,1.7628,1.866,0.0,0.0,0.0,0.0,0.0,0.0,0.0,1.8269,1.8255,1.973,2.0004,1.9927,2.0523,2.046,2.0151,1.9872,1.9991,2.0357,2.0973,0.0,0.0,2.756,2.7967,2.8484,3.1154,0.0,0.0,0.0,0.0,0.0,0.0,0.0,0.0,0.0,0.0,0.0,0.0,0.0,0.0,0.0,0.0,0.0,0.0,0.0,0.0,0.0,0.0,0.0,0.0,0.0,0.0,3.5218,3.5205,3.5192,3.5204,3.5204,3.5191,3.5177,3.5185,3.5199,3.5204,3.5211,3.5181,3.518,3.5181,3.4483,3.3397,3.3397,3.3402,3.3401,3.3401,3.3401,3.3401,0.0,0.0,0.0,0.0,0.0,0.0,0.0,0.0,0.0,0.0,0.0,0.0,0.0,0.0,0.0,0.0,0.0,0.0,0.0,0.0,0.0,0.0,0.0,0.0,0.0,2.1875,2.7212,3.1595,3.157,2.99,0.0,0.0,0.0,2.2036,0.0,0.0,0.0,0.0,0.0,0.0,1.7454,1.7015,1.6901,0.0,0.0,0.0,0.0,0.0,0.0,0.0,0.0,0.0,1.9084,1.9938,2.0668,2.0426,2.0586,2.0679,1.9987,2.0622,0.0,2.2734,0.0,0.0,0.0,2.9766,0.0,0.0,0.0,0.0,0.0,0.0,0.0,0.0,0.0,0.0,0.0,0.0,0.0,0.0,0.0,0.0,0.0,0.0,0.0,0.0,0.0,0.0,0.0,0.0,0.0,0.0,0.0,0.0,3.5191,3.5205,3.519,3.5198,3.5191,3.4761,3.3954,3.4816,3.5192,3.5201,3.5197,3.4715,3.3937,3.3929,3.3719,3.3409,3.34,3.3393,3.3401,3.3401,3.3401,3.3403,0.0,0.0,0.0,0.0,0.0,0.0,0.0,0.0,0.0,0.0,0.8001,0.8001,0.0,0.0,0.0,0.0,0.0,0.0,0.0,0.0,0.8114,0.8369,1.089,1.3765,1.691,2.2187,2.6129,2.8596,0.0,0.0,0.0,0.0,0.0,2.2904,0.0,2.3843,0.0,0.0,0.0,1.7874,1.7646,1.7182,1.6624,0.0,0.0,0.0,0.0,0.0,0.0,0.0,0.0,0.0,1.8617,1.9424,2.0199,2.0079,2.022,2.0389,2.0216,2.0978,0.0,2.4031,2.6082,2.8425,3.1399,0.0,0.0,0.0,0.0,0.0,0.0,0.0,0.0,0.0,0.0,0.0,0.0,0.0,0.0,0.0,0.0,0.0,0.0,0.0,0.0,0.0,0.0,0.0,0.0,0.0,0.0,0.0,0.0,0.0,3.5191,3.5203,3.5198,3.5188,3.4713,3.4091,3.342,3.4157,3.4479,3.4477,3.4472,3.4069,3.3399,3.3392,3.3403,3.3401,3.3405,3.3401,3.3401,3.3401,3.3401,3.3403,0.0,0.0,0.7997,0.8001,0.0,0.0,0.0,0.0,0.0,0.0,0.8001,0.8001,0.0,0.0,0.0,0.0,0.0,0.0,0.0,0.0,0.8155,0.8499,1.0876,1.4887,2.066,2.3924,2.4708,2.298,2.5064,0.0,0.0,0.0,2.5697,2.5455,0.0,2.648,2.4422,2.4093,2.1582,1.7827,1.7991,1.7756,1.7276,1.696,0.0,0.0,0.0,0.0,0.0,0.0,0.0,0.0,1.8337,1.8737,1.9084,1.9639,1.9673,1.9728,2.0565,2.1274,2.2447,2.5086,2.7235,0.0,3.2855,3.4923,3.649,0.0,0.0,0.0,0.0,0.0,0.0,0.0,0.0,0.0,0.0,0.0,0.0,0.0,0.0,0.0,0.0,0.0,0.0,0.0,0.0,0.0,0.0,0.0,0.0,0.0,0.0,0.0,3.5193,3.5088,3.5044,0.0,3.3921,3.339,3.3395,3.3396,3.3401,3.3405,3.3399,3.3401,3.3401,3.3401,3.3401,3.3401,3.3401,3.3401,3.3401,3.3401,3.3401,3.3401,0.0,0.0,0.8004,0.8001,0.0,0.0,0.0,0.0,0.0,0.0,0.0,0.0,0.0,0.0,0.0,0.0,0.0,0.0,0.0,0.0,0.8202,0.8635,1.2843,1.6649,1.9806,2.137,2.163,2.0554,2.2636,0.0,0.0,0.0,0.0,2.456,0.0,2.5844,2.3219,2.247,2.0239,1.7218,1.7568,1.73,1.6717,1.7011,1.7529,0.0,0.0,0.0,0.0,0.0,0.0,0.0,1.8564,1.9178,1.9632,1.976,2.0241,2.0828,2.1274,2.2353,2.4017,2.6894,3.0174,3.3105,3.475,3.5792,3.6554,3.7053,0.0,0.0,0.0,0.0,0.0,0.0,0.0,0.0,0.0,0.0,0.0,0.0,0.0,0.0,0.0,0.0,0.0,0.0,0.0,0.0,0.0,0.0,0.0,0.0,0.0,3.5196,3.5194,3.4261,3.3792,0.0,3.3514,3.3407,3.3394,3.3406,3.3393,3.3411,3.3395,3.3404,3.3401,3.3401,3.3401,3.3401,3.3401,3.3401,3.3401,3.3401,3.3401,3.3403,0.0,0.0,0.0,0.0,0.0,0.0,0.0,0.0,0.0,0.0,0.0,0.0,0.0,0.0,0.0,0.0,0.0,0.0,0.0,0.0,0.0,0.0,1.4404,1.7158,1.9643,2.021,1.9972,1.8937,0.0,0.0,0.0,0.0,0.0,2.5304,0.0,2.5814,2.3281,2.2541,2.0373,1.7474,1.7866,1.7692,1.7184,1.7345,1.774,1.8223,1.8123,0.0,0.0,0.0,0.0,0.0,0.0,0.0,1.9225,1.9513,2.0021,2.0735,2.1903,2.3393,2.5564,2.9506,0.0,3.4549,3.5418,3.5965,3.638,3.6659,0.0,0.0,0.0,0.0,0.0,0.0,0.0,0.0,0.0,0.0,0.0,0.0,0.0,0.0,0.0,0.0,0.0,0.0,0.0,0.0,0.0,0.0,0.0,0.0,3.4337,3.4346,3.434,3.3711,3.3399,3.3401,3.3401,3.3396,3.3401,3.3397,3.3396,3.3401,3.3401,3.3401,3.3401,3.3401,3.3401,3.3401,3.3401,3.3401,3.3401,3.3401,3.3401,3.3402,0.0,0.0,0.0,0.0,0.0,0.0,0.0,0.0,0.0,0.0,0.0,0.0,0.0,0.0,0.0,0.0,0.0,0.0,0.0,0.0,0.0,0.0,1.5588,1.7329,1.99,1.9807,1.9211,0.0,0.0,0.0,0.0,0.0,0.0,2.6423,0.0,2.5791,2.3741,2.2818,2.0751,1.8107,1.8546,1.8435,1.7984,0.0,0.0,0.0,1.8171,1.7876,1.7615,1.7682,0.0,0.0,0.0,0.0,1.8684,1.9241,1.9587,2.0221,2.2158,2.432,2.7161,3.1822,3.3867,0.0,3.5458,3.5805,3.6086,3.6366,0.0,0.0,0.0,0.0,0.0,0.0,0.0,0.0,0.0,0.0,0.0,0.0,0.0,0.0,0.0,0.0,0.0,0.0,0.0,0.0,3.4905,3.4895,3.4436,3.3431,3.3405,3.3401,3.3407,3.3407,3.3401,3.3401,3.3401,3.3401,3.3401,3.3401,3.3401,3.3401,3.3401,3.3401,3.3401,3.3401,3.3401,3.3401,3.3401,3.3401,3.3401,3.3401,3.3401,3.3401,0.0,0.0,0.0,0.0,0.0,0.0,0.0,0.0,0.0,0.0,0.8001,0.8001,0.0,0.8001,0.8001,0.8001,0.818,0.8301,0.8301,0.0,0.0,1.4646,1.6228,1.8138,2.0525,1.9835,1.9232,0.0,0.0,0.0,0.0,0.0,0.0,2.6383,0.0,0.0,2.3661,2.1488,1.9869,1.8817,1.9393,1.9138,0.0,0.0,0.0,0.0,0.0,0.0,0.0,1.7996,1.8037,0.0,0.0,0.0,1.8917,1.9287,1.9587,2.0088,2.1408,2.4909,2.8965,3.2183,3.3681,3.459,0.0,0.0,3.5765,0.0,0.0,0.0,0.0,0.0,0.0,0.0,0.0,0.0,0.0,0.0,0.0,0.0,0.0,0.0,0.0,0.0,0.0,0.0,0.0,0.0,3.3691,3.3646,3.3564,3.3411,3.3401,3.3407,3.3404,3.3404,3.3404,3.3401,3.3401,3.3401,3.3401,3.3401,3.3401,3.3401,3.3401,3.3401,3.3401,3.3401,3.3401,3.3401,3.3401,3.3401,3.3401,3.3401,3.3401,3.3401,0.0,0.0,0.0,0.0,0.0,0.0,0.0,0.0,0.0,0.0,0.0,0.8001,0.8001,0.8001,0.8001,0.8001,0.8255,0.8444,0.8519,1.016,1.2066,1.4199,1.5767,1.7494,1.9424,1.8918,1.8536,0.0,0.0,0.0,0.0,2.3946,2.5167,0.0,0.0,0.0,0.0,0.0,1.9358,1.9206,1.9467,0.0,0.0,0.0,0.0,0.0,0.0,0.0,0.0,0.0,0.0,0.0,1.8763,0.0,0.0,0.0,1.9708,2.0679,2.3696,2.6396,2.92,3.265,3.3788,3.4296,3.5177,3.5378,3.5431,0.0,0.0,0.0,0.0,0.0,0.0,0.0,0.0,0.0,0.0,0.0,0.0,0.0,0.0,0.0,0.0,0.0,0.0,0.0,0.0,3.3971,3.3441,3.3406,3.3412,3.3412,3.3405,3.3401,3.3401,3.3401,3.3401,3.3401,3.3401,3.3401,3.3401,3.3401,3.3401,3.3401,3.3401,3.3401,3.3401,3.3401,3.3401,3.3401,3.3401,3.3401,3.3401,3.3401,3.3401,3.3401,0.0,0.0,0.0,0.0,0.0,0.0,0.0,0.0,0.0,0.0,0.0,0.8001,0.8001,0.0,0.0,0.0,0.8336,0.856,0.8696,1.0572,1.2282,1.3614,1.5416,1.6969,1.8243,1.8036,0.0,0.0,0.0,0.0,2.4209,2.4516,2.5915,0.0,2.5388,0.0,0.0,0.0,0.0,0.0,0.0,0.0,0.0,0.0,0.0,0.0,0.0,0.0,0.0,0.0,0.0,0.0,0.0,0.0,0.0,0.0,0.0,2.0813,2.4564,2.6473,2.8259,3.1782,3.3119,3.38,3.4669,0.0,3.5097,0.0,0.0,0.0,0.0,0.0,0.0,0.0,0.0,0.0,0.0,0.0,0.0,0.0,0.0,0.0,0.0,0.0,0.0,0.0,0.0,3.3408,3.3392,3.3395,3.3401,3.3401,3.3401,3.3401,3.3401,3.3401,3.3401,3.3401,3.3401,3.3401,3.3401,3.3401,3.3401,3.3401,3.3401,3.3401,3.3401,3.3401,3.3401,3.3401,3.3401,3.3401,3.3401,3.3401,3.3401,3.3401,0.0,0.0,0.0,0.0,0.0,0.0,0.0,0.0,0.0,0.0,0.0,0.8001,0.8001,0.8001,0.808,0.8267,0.8417,0.856,0.8696,1.1219,1.2816,1.3037,1.568,0.0,1.7642,0.0,0.0,0.0,0.0,0.0,2.4213,2.5373,2.7593,3.0499,2.7808,2.5836,2.4408,0.0,0.0,0.0,0.0,0.0,0.0,0.0,0.0,0.0,0.0,0.0,0.0,0.0,0.0,0.0,0.0,0.0,0.0,0.0,0.0,0.0,2.174,2.371,2.5902,2.8596,3.098,3.2902,3.3773,0.0,0.0,0.0,0.0,0.0,0.0,0.0,0.0,0.0,0.0,0.0,0.0,0.0,0.0,0.0,0.0,0.0,0.0,0.0,0.0,0.0,0.0,3.3392,3.339,3.3401,3.3401,3.3401,3.3401,3.3401,3.3401,3.3401,3.3401,3.3401,3.3401,3.3401,3.3401,3.3401,3.3401,3.3401,3.3401,3.3401,3.3401,3.3401,3.3401,3.3401,3.3401,3.3401,3.3401,3.3401,3.3401,3.3401,0.0,0.0,0.0,0.0,0.0,0.0,0.0,0.0,0.0,0.0,0.0,0.0,0.0,0.8194,0.8255,0.841,0.8547,0.8689,0.8818,1.152,1.3136,1.319,1.5934,1.7495,1.7602,0.0,0.0,0.0,0.0,2.0367,2.3959,2.4743,2.6426,2.8722,2.6637,2.5508,2.4942,2.1376,0.0,0.0,0.0,0.0,0.0,0.0,0.0,0.0,0.0,0.0,0.0,0.0,0.0,0.0,0.0,0.0,0.0,0.0,0.0,1.9816,2.1737,2.2797,2.4133,2.7365,2.9526,3.1154,3.2235,3.352,3.4482,0.0,0.0,0.0,0.0,0.0,0.0,0.0,0.0,0.0,0.0,0.0,0.0,0.0,0.0,0.0,0.0,0.0,0.0,0.0,0.0,0.0,3.3401,3.3401,3.3401,3.3401,3.3401,3.3401,3.3401,3.3401,3.3401,3.3401,3.3401,3.3401,3.3401,3.3401,3.3401,3.3401,3.3401,3.3401,3.3401,3.3401,3.3401,3.3401,3.3401,3.3401,3.3401,3.3401,3.3395,3.3403,0.0,0.0,0.0,0.0,0.0,0.4904,0.0,0.0,0.0,0.0,0.0,0.0,0.0,0.0,0.8417,0.8553,0.8689,0.8947,0.9374,1.1844,1.3442,1.3794,1.624,1.7602,1.7602,0.0,0.0,0.0,0.0,0.0,0.0,2.3981,2.5535,2.7612,2.5451,2.509,0.0,0.0,0.0,2.0945,0.0,0.0,2.0241,0.0,0.0,0.0,0.0,0.0,0.0,0.0,0.0,0.0,0.0,0.0,0.0,0.0,0.0,0.0,2.1149,2.1822,2.2961,2.64,2.7923,2.9136,3.1219,3.2437,3.3241,0.0,0.0,0.0,0.0,0.0,0.0,0.0,0.0,0.0,0.0,0.0,0.0,0.0,0.0,0.0,0.0,0.0,0.0,0.0,0.0,0.0,3.3401,3.3401,3.3401,3.3401,3.3401,3.3401,3.3401,3.3395,3.3392,3.3392,3.3392,3.3392,3.3392,3.3399,3.3401,3.3401,3.3401,3.3401,3.3401,3.3401,3.3401,3.3401,3.3401,3.3401,3.3401,3.3401,3.3487,3.3588,0.0,0.4192,0.7768,0.7768,0.5688,0.4918,0.0,0.0,0.0,0.0,0.0,0.0,0.0,0.0,0.0,0.8716,0.8886,0.939,1.0351,1.2258,1.3796,1.4765,1.6594,1.7595,1.7608,0.0,0.0,0.0,0.0,0.0,0.0,0.0,2.5096,2.7428,2.4604,2.476,2.7111,0.0,2.5172,2.4008,0.0,2.1414,2.1301,0.0,0.0,0.0,2.233,2.1881,0.0,0.0,0.0,0.0,0.0,0.0,0.0,0.0,0.0,0.0,0.0,0.0,0.0,2.5443,2.6072,2.6894,3.0642,3.1061,3.1034,0.0,0.0,0.0,0.0,0.0,0.0,0.0,0.0,0.0,0.0,0.0,0.0,0.0,0.0,0.0,0.0,0.0,0.0,0.0,0.0,3.3401,3.3401,3.3401,3.3401,3.3401,3.3401,3.3401,3.3401,3.337,3.3372,3.3398,3.3359,3.3359,3.3398,3.3367,3.3388,3.3401,3.3401,3.3401,3.3401,3.3401,3.3401,3.3401,3.3401,3.3401,3.3401,3.3401,3.3665,3.3946,0.0,0.1192,0.2213,0.2215,0.3406,0.5269,0.0,0.0,0.0,0.0,0.0,0.0,0.0,0.0,0.0,0.936,1.0359,1.0891,1.0631,1.3249,1.486,1.4941,1.6657,1.7689,0.0,0.0,0.0,0.0,0.0,0.0,0.0,0.0,0.0,0.0,2.424,2.4301,2.4266,2.2136,0.0,0.0,2.1309,2.1577,0.0,0.0,0.0,0.0,0.0,2.2898,0.0,0.0,2.1902,2.1184,0.0,0.0,0.0,0.0,0.0,0.0,1.9488,0.0,0.0,0.0,0.0,0.0,2.6189,2.7261,2.8553,0.0,0.0,0.0,0.0,0.0,0.0,0.0,0.0,0.0,0.0,0.0,0.0,0.0,0.0,0.0,0.0,0.0,0.0,0.0,3.3404,3.3401,3.3401,3.3401,3.3401,3.3401,3.3401,3.3401,3.3401,3.257,3.258,3.3381,3.2555,3.2606,3.3394,3.2997,3.3025,3.3401,3.3401,3.3401,3.3401,3.3401,3.3401,3.3401,3.3401,3.3401,3.3401,3.3401,3.3748,3.4137,0.0,0.1805,0.3417,0.3666,0.5162,0.6866,0.0,0.0,0.0,0.0,0.0,0.0,0.0,0.0,0.0,0.0,1.0953,1.1759,1.1664,1.4011,1.5598,1.6058,1.7173,1.7903,0.0,0.0,0.0,0.0,0.0,0.0,0.0,0.0,0.0,0.0,2.241,2.2588,0.0,0.0,0.0,0.0,2.2058,0.0,0.0,2.3442,2.3817,0.0,0.0,0.0,2.4409,2.3857,2.2939,0.0,0.0,0.0,0.0,0.0,0.0,0.0,0.0,0.0,0.0,0.0,0.0,0.0,2.4867,2.5539,2.648,0.0,0.0,0.0,0.0,0.0,0.0,0.0,0.0,0.0,0.0,0.0,0.0,0.0,0.0,0.0,0.0,0.0,0.0,3.3401,3.3401,3.3401,3.3401,3.3401,3.3401,3.3401,3.3401,3.3401,3.3401,3.2745,3.2629,3.3064,3.2619,3.2632,3.3064,3.2973,3.3103,3.3401,3.3401,3.3401,3.3401,3.3401,3.3401,3.3401,3.3401,3.3401,3.3402,3.3409,3.3627,3.3948,0.0,0.4492,0.7851,0.8792,0.8962,0.0,0.0,0.0,0.0,0.0,0.0,0.0,0.0,0.0,0.0,0.0,1.1219,1.2383,1.2995,1.473,0.0,0.0,0.0,0.0,0.0,0.0,0.0,0.0,0.0,0.0,0.0,0.0,0.0,0.0,1.9981,2.0349,0.0,0.0,0.0,2.2128,2.3509,2.4071,0.0,0.0,2.6156,0.0,2.6369,2.6226,2.5655,2.4756,2.3474,0.0,0.0,0.0,0.0,0.0,2.0024,0.0,0.0,0.0,0.0,0.0,0.0,0.0,2.5073,2.4877,2.473,2.7322,0.0,0.0,0.0,0.0,0.0,0.0,0.0,0.0,0.0,0.0,0.0,0.0,0.0,0.0,0.0,3.3374,3.3387,3.3333,3.337,3.3397,3.3401,3.3399,3.3399,3.3401,3.3401,3.3401,3.3401,3.3357,3.3111,3.2689,3.3109,3.3084,3.2689,3.3115,3.3336,3.3401,3.3401,3.3401,3.3401,3.3401,3.3401,3.3401,3.3401,3.3401,3.339,3.3392,3.3479,3.3755,0.6442,0.5544,0.5735,0.8774,0.0,0.0,0.0,0.0,0.0,0.0,0.0,0.0,0.0,0.0,0.0,0.0,0.0,1.3941,1.3286,0.0,0.0,0.0,0.0,0.0,0.0,0.0,0.0,0.0,0.0,0.0,0.0,0.0,0.0,0.0,1.9413,1.9602,0.0,0.0,0.0,2.2074,2.2845,0.0,2.5928,2.6262,2.6938,2.7657,2.7505,2.7542,2.7496,0.0,2.5134,2.3848,0.0,0.0,0.0,0.0,0.0,0.0,0.0,0.0,0.0,0.0,0.0,0.0,2.2236,2.245,2.3305,0.0,0.0,0.0,0.0,0.0,0.0,0.0,0.0,0.0,0.0,0.0,0.0,0.0,0.0,0.0,0.0,3.328,3.3276,3.2944,3.3226,3.3405,3.3399,3.34,3.3399,3.34,3.3401,3.3401,3.3401,3.3083,3.3031,3.3232,3.2902,3.2929,3.3232,3.2909,3.2999,3.3401,3.3401,3.3401,3.3401,3.3401,3.3401,3.3401,3.3401,3.3401,3.339,3.3392,3.4017,3.488,0.7799,0.7162,0.7077,0.9099,0.0,0.0,0.0,0.0,0.0,0.0,0.0,0.0,0.0,0.0,0.0,0.0,0.0,0.0,0.0,0.0,0.0,0.0,0.0,0.0,0.0,0.0,0.0,0.0,0.0,0.0,0.0,0.0,0.0,0.0,0.0,0.0,0.0,0.0,2.0796,2.1526,2.3616,0.0,2.667,2.7418,2.8059,2.8575,2.8406,2.8457,2.8307,2.6406,2.5732,0.0,0.0,2.2632,2.2672,0.0,2.1336,2.148,0.0,0.0,0.0,2.1964,0.0,0.0,0.0,2.1969,2.2295,2.4258,2.428,0.0,0.0,0.0,0.0,0.0,0.0,0.0,0.0,0.0,0.0,0.0,0.0,0.0,0.0,3.2917,3.2877,3.2571,3.289,3.2937,3.2574,3.3087,3.3397,3.3409,3.2848,3.2828,3.3387,3.2831,3.2836,3.3401,3.2998,3.3011,3.3388,3.3115,3.3141,3.3401,3.3401,3.3401,3.3401,3.3401,3.3401,3.3401,3.3401,3.3401,3.3391,3.3398,3.4163,3.5205,0.7737,0.8471,0.8961,0.9405,0.0,0.0,0.0,0.0,0.0,0.0,0.0,0.0,0.0,0.0,0.0,0.0,0.0,0.0,0.0,0.0,0.0,0.0,1.9017,1.9251,0.0,0.0,0.0,0.0,0.0,0.0,0.0,0.0,0.0,0.0,0.0,0.0,0.0,0.0,0.0,2.1646,0.0,2.6085,2.6407,2.8179,2.881,2.8785,2.9012,2.9103,2.8756,2.652,0.0,2.6527,2.3963,2.3759,0.0,0.0,0.0,0.0,0.0,0.0,0.0,0.0,0.0,2.2335,0.0,0.0,0.0,2.3389,0.0,0.0,0.0,0.0,0.0,0.0,0.0,0.0,0.0,0.0,0.0,0.0,0.0,0.0,0.0,3.2047,3.2012,3.2228,3.2462,3.236,3.185,3.2612,3.3069,3.3062,3.2286,3.227,3.3054,3.2693,3.274,3.319,3.3107,3.316,3.3321,3.3387,3.3401,3.3401,3.3401,3.3401,3.3401,3.3401,3.3401,3.3401,3.3401,3.3401,3.3404,3.3401,3.4153,3.5206,0.8244,0.8417,0.8723,0.9309,0.0,0.0,0.0,0.0,0.0,0.0,0.0,0.0,0.0,0.0,0.0,0.0,0.0,0.0,1.9744,0.0,0.0,0.0,0.0,0.0,1.9017,1.9226,0.0,0.0,0.0,0.0,0.0,0.0,0.0,0.0,1.9065,0.0,0.0,0.0,2.1574,0.0,2.5399,2.5248,0.0,2.7229,2.8115,2.7989,2.9069,2.9443,2.9323,0.0,2.7936,2.7402,0.0,2.5678,0.0,0.0,0.0,0.0,0.0,0.0,0.0,0.0,2.4957,0.0,0.0,0.0,2.2546,2.2005,0.0,0.0,0.0,0.0,0.0,0.0,0.0,0.0,0.0,0.0,0.0,0.0,0.0,0.0,0.0,0.0,3.016,3.1987,3.1932,3.1935,3.2223,3.2011,3.1886,3.188,3.2286,3.2299,3.1896,3.2812,3.2988,3.2442,3.3058,3.324,3.3052,3.3293,3.3401,3.3401,3.3401,3.3401,3.3401,3.3401,3.3401,3.3401,3.3401,3.3401,3.3404,3.3407,3.416,3.5204,0.8322,0.8533,0.8892,0.9422,0.0,0.0,0.0,0.0,0.0,0.0,0.0,0.0,0.0,0.0,0.0,0.0,0.0,0.0,0.0,0.0,0.0,0.0,0.0,0.0,0.0,1.982,1.9639,0.0,1.9338,0.0,0.0,0.0,0.0,0.0,1.9325,0.0,2.025,0.0,0.0,0.0,0.0,0.0,0.0,2.8409,2.9385,2.9347,3.0018,3.0037,2.9521,0.0,2.7941,0.0,0.0,0.0,0.0,0.0,0.0,0.0,0.0,0.0,0.0,0.0,0.0,0.0,0.0,0.0,2.2131,0.0,0.0,0.0,0.0,0.0,0.0,0.0,0.0,0.0,0.0,0.0,0.0,0.0,0.0,0.0,0.0,0.0,0.0,0.0,0.0,3.087,3.1898,3.1779,3.1707,3.1696,3.1952,3.213,3.2218,3.235,3.2598,3.2948,3.2815,3.2936,3.324,3.3348,3.3401,3.3401,3.3401,3.3401,3.3401,3.3401,3.3401,3.3401,3.3401,3.3401,3.3442,3.3782,3.4241,3.4726,0.8424,0.0,0.0,0.0,0.0,0.0,0.0,0.0,0.0,0.0,0.0,0.0,1.903,2.0483,0.0,0.0,0.0,2.2523,0.0,0.0,0.0,0.0,0.0,0.0,0.0,0.0,0.0,2.0084,1.97,0.0,0.0,0.0,0.0,0.0,0.0,2.0407,2.0877,0.0,0.0,2.3807,2.4203,2.5709,2.7834,2.8896,2.991,3.0745,3.0598,3.0377,2.9924,2.8515,2.8471,0.0,2.6654,0.0,0.0,0.0,0.0,0.0,2.5978,0.0,0.0,0.0,0.0,0.0,0.0,0.0,0.0,0.0,0.0,0.0,0.0,0.0,0.0,0.0,0.0,0.0,0.0,0.0,0.0,0.0,0.0,0.0,0.0,0.0,0.0,0.0,0.0,0.0,3.0867,3.1126,3.1372,3.1685,3.1708,3.1915,3.2348,3.2076,3.2441,3.339,3.2856,3.2818,3.3244,3.3349,3.3401,3.3401,3.3401,3.3401,3.3401,3.3401,3.3401,3.3401,3.3401,3.3401,3.3468,3.4014,3.4294,3.4454,0.8662,0.8798,0.0,0.0,0.0,0.0,0.0,0.0,0.0,0.0,0.0,0.0,0.0,0.0,0.0,0.0,0.0,2.6193,2.7071,0.0,2.1862,0.0,0.0,0.0,0.0,0.0,2.0058,1.9806,1.98,0.0,0.0,0.0,0.0,0.0,0.0,2.1534,2.2415,2.3612,2.5438,2.7559,2.7896,2.9243,3.0726,0.0,2.8658,3.1516,3.0345,0.0,0.0,3.0704,3.0312,0.0,0.0,0.0,0.0,0.0,0.0,0.0,0.0,0.0,0.0,0.0,0.0,0.0,0.0,0.0,2.3968,0.0,0.0,0.0,0.0,0.0,0.0,0.0,0.0,0.0,0.0,0.0,0.0,0.0,0.0,0.0,0.0,0.0,0.0,0.0,0.0,0.0,2.8965,2.9646,3.0481,3.1661,3.1709,3.1712,3.1738,3.2285,3.2848,3.3402,3.3375,3.3173,3.2825,3.323,3.3401,3.3401,3.3401,3.3401,3.3401,3.3401,3.3401,3.3401,3.3401,3.3401,3.3454,3.3864,3.4261,3.4647,0.0,0.0,0.0,0.0,0.0,0.0,0.0,1.1351,0.0,0.0,0.0,0.0,0.0,0.0,3.0571,0.0,0.0,2.8996,2.7959,2.636,0.0,0.0,0.0,2.1065,0.0,0.0,2.0753,2.0659,0.0,1.9709,1.9996,2.009,2.027,0.0,0.0,2.2136,0.0,0.0,0.0,0.0,0.0,3.116,3.1943,0.0,0.0,3.1279,3.1136,3.0711,0.0,3.1129,3.1266,3.1018,3.064,2.969,2.8638,2.8136,2.8307,0.0,0.0,0.0,3.0036,2.7575,0.0,0.0,0.0,0.0,0.0,0.0,0.0,0.0,0.0,0.0,0.0,0.0,0.0,0.0,0.0,0.0,0.0,0.0,0.0,0.0,0.0,0.0,0.0,0.0,0.0,0.0,0.0,2.8876,2.9673,3.0482,3.1282,3.169,3.1699,3.1896,3.21,3.2276,3.3047,3.333,3.3191,3.3335,3.3401,3.3401,3.3401,3.3401,3.3401,3.3401,3.3401,3.3401,3.3401,3.3401,3.3455,3.4001,3.428,3.448,0.9254,0.0,0.0,0.0,0.0,0.0,0.0,0.0,0.0,0.0,2.3416,0.0,3.1858,0.0,3.3751,0.0,3.2913,3.1672,3.0452,2.9095,0.0,2.2827,2.2655,0.0,0.0,0.0,0.0,0.0,0.0,2.0009,2.0008,2.0353,2.062,2.0876,0.0,2.285,2.4071,0.0,2.7931,0.0,0.0,3.1849,0.0,0.0,3.1254,0.0,0.0,3.1205,3.0655,3.1438,3.1703,3.1707,3.1695,3.0596,2.9253,2.891,2.8857,2.8964,2.9244,3.0172,0.0,0.0,2.8257,0.0,0.0,0.0,0.0,0.0,0.0,0.0,0.0,0.0,0.0,0.0,0.0,0.0,0.0,0.0,0.0,0.0,0.0,0.0,0.0,0.0,0.0,0.0,0.0,0.0,0.0,0.0,2.8594,2.9446,3.0633,3.1405,3.1699,3.1706,3.1702,3.1711,3.2865,3.3409,3.3405,3.3399,3.3401,3.3401,3.3401,3.3401,3.3401,3.3401,3.3401,3.3401,3.3401,3.3401,3.3468,3.4082,3.4443,3.4683,0.0,0.0,0.0,0.0,1.0169,0.0,0.0,0.0,1.9436,0.0,2.6911,3.0977,3.4966,3.515,3.5086,3.5304,3.4609,0.0,3.438,3.2133,0.0,0.0,2.5917,2.5302,2.4055,0.0,0.0,0.0,0.0,0.0,2.0253,2.05,2.0789,2.1165,2.2604,0.0,2.4413,2.7351,2.9128,3.0076,3.1221,3.1528,3.1239,3.1226,0.0,3.1698,3.17,3.1711,3.1691,3.1702,3.1699,3.1695,3.171,3.0906,3.0001,2.9999,2.973,2.949,2.9862,3.0415,3.0583,2.9437,0.0,0.0,0.0,0.0,2.893,0.0,0.0,0.0,0.0,0.0,0.0,0.0,0.0,0.0,0.0,0.0,0.0,0.0,0.0,0.0,0.0,0.0,0.0,0.0,0.0,0.0,0.0,0.0,2.7345,2.8591,2.9862,3.0896,3.1687,3.1699,3.1703,3.1705,3.2804,3.3349,3.3399,3.3393,3.3401,3.3401,3.3401,3.3401,3.3401,3.3401,3.3401,3.3401,3.3401,3.3415,3.3508,3.4096,3.4683,3.5191,0.957,0.9803,1.0477,0.0,1.1178,1.0588,0.0,0.0,0.0,0.0,2.8975,3.3267,3.7621,3.7861,3.7553,3.7173,3.676,0.0,0.0,0.0,0.0,3.2656,3.1854,3.0026,2.7127,2.4859,0.0,2.6379,0.0,0.0,2.0891,2.1845,2.1866,2.1142,2.2123,2.3269,2.4675,2.7431,2.9475,3.0917,3.1475,3.1781,0.0,0.0,3.1622,3.1701,3.1709,3.1711,3.1691,3.1702,3.1699,3.1695,3.171,3.149,3.1245,3.1245,3.1168,3.104,3.0845,3.1339,3.1759,3.1158,3.074,3.0167,0.0,0.0,0.0,0.0,0.0,0.0,0.0,0.0,0.0,0.0,0.0,0.0,0.0,0.0,0.0,0.0,0.0,0.0,0.0,0.0,0.0,0.0,0.0,0.0,0.0,0.0,0.0,2.7624,2.9642,3.1037,3.1687,3.1699,3.1699,3.1702,3.1988,3.2576,3.3408,3.3399,3.3401,3.3401,3.3401,3.3401,3.3401,3.3401,3.3401,3.3401,3.3401,3.3668,3.4096,3.423,3.4683,3.5191,0.9785,0.0,0.0,1.3184,0.0,0.0,1.55,0.0,0.0,2.6785,3.1123,0.0,3.7295,3.8354,3.8758,3.848,3.7996,0.0,0.0,0.0,0.0,3.5892,3.4824,3.302,3.0532,2.866,0.0,2.6637,0.0,0.0,2.1889,2.2043,2.1743,2.112,2.1573,2.2922,2.5036,2.7825,2.978,3.1051,3.1356,0.0,0.0,3.1543,3.1407,3.1311,3.141,3.1554,3.17,3.1706,3.1699,3.1709,3.1704,3.1697,3.1705,3.1692,3.1702,3.1649,3.1421,3.1921,3.2454,3.2232,3.2054,3.1704,3.0847,3.102,3.1142,0.0,0.0,0.0,0.0,0.0,0.0,0.0,0.0,0.0,0.0,0.0,0.0,0.0,0.0,0.0,0.0,0.0,0.0,0.0,0.0,0.0,0.0,0.0,0.0,2.7408,2.9364,3.0819,3.1687,3.1699,3.1696,3.1708,3.2209,3.2782,3.3403,3.3398,3.3401,3.3401,3.3401,3.3401,3.3401,3.3401,3.3401,3.3401,3.3401,3.3826,3.4426,3.4426,3.4761,3.5191,0.0,0.0,0.0,0.0,0.0,0.0,0.0,2.4157,0.0,2.9262,0.0,3.6099,3.6165,3.7968,3.9209,0.0,0.0,3.8358,3.8676,3.8695,3.822,3.7173,3.5887,3.4701,3.3659,3.2506,0.0,0.0,0.0,0.0,2.2635,2.1586,2.1097,2.1101,2.1101,2.2733,0.0,2.8278,2.9918,3.0784,3.1076,3.1226,3.1278,3.1278,3.1117,3.0942,3.1112,3.1376,3.1622,3.1674,3.1699,3.1712,3.1788,3.1766,3.1699,3.17,3.1805,3.1919,3.1928,3.2389,3.2874,3.2889,3.3139,3.3201,3.244,3.2276,3.2205,3.197,3.1246,0.0,0.0,0.0,0.0,0.0,0.0,0.0,0.0,0.0,0.0,0.0,0.0,0.0,0.0,0.0,0.0,0.0,0.0,0.0,0.0,0.0,0.0,2.7493,2.8986,0.0,3.2139,0.0,3.1919,3.1937,3.2929,3.3398,3.3402,3.3394,3.3401,3.3401,3.3401,3.3401,3.3401,3.3401,3.3401,3.3401,3.3404,3.3866,3.4529,3.4647,3.4906,3.5191,0.0,0.0,0.0,0.0,0.0,2.4324,2.8456,2.9693,3.066,3.2138,3.5925,0.0,3.9169,3.9398,3.9533,3.9547,3.9169,0.0,0.0,0.0,0.0,3.839,3.6329,3.5094,3.4892,3.3719,3.0798,0.0,0.0,0.0,0.0,2.1208,2.1096,2.1097,2.1108,2.3269,2.702,2.8292,0.0,3.0589,3.1033,3.137,3.162,3.162,3.158,3.1554,3.1582,3.1428,3.1259,3.1583,3.1699,3.1788,3.2284,3.2098,3.1701,3.1698,3.2367,3.3099,3.3099,3.3207,3.3289,3.3293,3.3349,3.3361,3.3201,3.3161,3.3154,3.3116,3.2508,3.1791,3.122,0.0,0.0,0.0,0.0,0.0,0.0,0.0,0.0,0.0,0.0,0.0,0.0,0.0,0.0,0.0,0.0,0.0,0.0,0.0,0.0,0.0,2.8435,0.0,0.0,0.0,3.3104,3.3103,3.3304,3.3394,3.3409,3.3399,3.3401,3.3401,3.3401,3.3401,3.3401,3.3401,3.3401,3.3389,3.3403,3.3682,3.4194,3.485,3.5133,3.5191,0.0,0.0,0.0,0.0,0.0,0.0,0.0,3.4046,0.0,3.4418,3.6199,3.7648,3.7942,3.8945,3.9599,3.9599,3.9288,3.9043,3.8912,3.8591,3.8345,3.8236,3.6855,0.0,3.5216,0.0,3.1407,2.7331,0.0,0.0,0.0,0.0,0.0,2.1125,2.1751,2.3473,0.0,0.0,0.0,2.9815,3.0994,3.1567,3.1727,3.2047,3.1967,3.1739,3.2047,3.1849,3.1441,3.1635,3.1699,3.1751,3.2029,3.2143,3.2225,3.251,3.2963,3.3406,3.3405,3.3401,3.339,3.3399,3.3401,3.3401,3.3401,3.34,3.3328,3.3043,3.2698,3.2115,3.0996,2.787,0.0,0.0,0.0,0.0,0.0,0.0,0.0,0.0,0.0,0.0,0.0,0.0,0.0,0.0,0.0,0.0,0.0,0.0,0.0,0.0,0.0,0.0,0.0,0.0,0.0,3.3401,3.3392,3.3406,3.3401,3.3401,3.3401,3.3401,3.3401,3.3401,3.3401,3.3401,3.3401,3.3403,3.3405,3.3709,3.4246,3.4943,3.5199,3.5191,0.0,1.6536,0.0,0.0,2.741,0.0,0.0,3.6887,3.8196,3.6566,3.6633,3.6861,3.6928,3.8518,3.9625,3.968,3.9328,3.91,3.91,3.8458,3.799,3.775,3.6974,3.6127,3.5216,3.4019,3.1686,0.0,0.0,0.0,0.0,0.0,0.0,0.0,0.0,0.0,0.0,0.0,2.8063,2.9688,3.0996,3.168,3.198,3.2381,3.2263,3.1953,3.2433,3.2288,3.1886,3.1886,3.1834,3.1781,3.1781,3.2076,3.2528,3.3093,3.3331,3.3403,3.3392,3.3401,3.3401,3.3401,3.3401,3.3401,3.3401,3.34,3.3216,3.255,3.2419,3.2073,3.0959,2.8586,0.0,0.0,0.0,0.0,0.0,0.0,0.0,0.0,0.0,0.0,0.0,0.0,0.0,0.0,0.0,0.0,0.0,0.0,0.0,0.0,0.0,3.001,3.0974,0.0,3.4341,0.0,3.3403,3.3401,3.3401,3.3401,3.3401,3.3401,3.3401,3.3401,3.3401,3.3401,3.3401,3.3389,3.3402,3.3848,3.4556,3.5018,3.5198,3.5191,0.0,0.0,0.0,0.0,0.0,0.0,0.0,3.7166,3.8993,3.8806,3.9062,3.9358,3.961,3.961,3.9691,3.9945,3.942,3.91,3.91,3.8473,3.7935,3.7532,3.6129,3.5301,3.5205,3.4014,3.169,0.0,0.0,0.0,0.0,0.0,0.0,0.0,0.0,0.0,0.0,2.4609,2.8401,3.1404,3.1041,3.1606,3.2663,3.2412,3.2407,3.2527,3.2581,3.2554,3.2514,3.2514,3.2302,3.2064,3.2064,3.1934,3.1928,3.264,3.3108,3.3399,3.3396,3.3401,3.3401,3.3401,3.3401,3.3401,3.3401,3.34,3.3092,3.2007,3.1782,3.1742,3.1606,3.075,2.9444,0.0,0.0,0.0,0.0,0.0,0.0,0.0,0.0,0.0,0.0,0.0,0.0,0.0,0.0,0.0,0.0,0.0,0.0,2.4026,0.0,2.9403,3.1598,3.2912,0.0,3.3395,3.3396,3.3401,3.3401,3.3401,3.3401,3.3401,3.3401,3.3401,3.3401,3.3401,3.3401,3.3401,3.3403,3.4095,3.5111,3.519,3.5206,3.5191,0.0,0.0,0.0,0.0,0.0,0.0,0.0,3.8141,3.9034,3.8876,3.9115,3.9423,3.9731,3.9346,3.9251,3.9717,3.9209,3.8928,3.91,3.8549,3.8,3.7513,3.6675,3.6218,3.6215,3.5073,3.3435,0.0,0.0,0.0,0.0,0.0,0.0,0.0,0.0,2.2026,2.3828,2.7103,2.9737,3.169,3.1439,3.2068,3.315,3.3004,3.2815,3.2648,3.2957,3.2864,3.2594,3.2594,3.2369,3.2143,3.2342,3.2184,3.2065,3.2727,3.2973,3.309,3.3334,3.3401,3.3401,3.3401,3.3401,3.3401,3.3401,3.34,3.327,3.2814,3.219,3.1705,3.1702,3.1439,3.0855,0.0,0.0,0.0,0.0,0.0,0.0,0.0,0.0,0.0,0.0,0.0,0.0,0.0,0.0,0.0,0.0,0.0,0.0,2.4838,0.0,2.9155,3.1137,3.2411,3.3167,3.3398,3.3404,3.3401,3.3401,3.3401,3.3401,3.3401,3.3401,3.3401,3.3401,3.3401,3.3401,3.3402,3.3399,3.3693,3.4206,3.4925,3.5197,3.5191,2.7938,0.0,3.0569,0.0,3.5578,3.6139,3.8117,3.8743,3.8916,3.8714,3.8861,3.91,3.9423,3.9077,3.8982,3.9412,3.8982,3.8783,3.8968,3.8544,3.8079,3.7599,3.7152,0.0,3.6764,3.5734,3.4607,3.3395,2.8203,0.0,0.0,0.0,0.0,0.0,2.2716,2.4772,2.7589,2.9935,3.1418,3.2207,3.2203,3.2678,3.34,3.3402,3.316,3.2877,3.3267,3.3159,3.2836,3.2836,3.2623,3.2358,3.2423,3.2356,3.2356,3.2838,3.2881,3.2845,3.3282,3.3401,3.3401,3.3401,3.3401,3.3401,3.3401,3.3391,3.3405,3.3398,3.2757,3.2159,3.1981,3.1811,3.1613,0.0,0.0,0.0,0.0,0.0,0.0,0.0,0.0,2.2854,2.1496,0.0,0.0,0.0,0.0,0.0,0.0,0.0,0.0,0.0,0.0,0.0,0.0,3.2265,3.2963,3.3401,3.3401,3.3401,3.3401,3.3401,3.3401,3.3401,3.3401,3.3401,3.3401,3.3401,3.3401,3.3402,3.3401,3.34,3.3549,3.4744,3.5198,3.5191,3.0094,3.252,3.4964,3.7354,3.8025,3.8345,3.8651,3.8689,3.8689,3.8689,3.8689,3.8809,3.9074,3.91,3.91,3.9115,3.8861,3.8689,3.8689,3.8451,3.8159,0.0,0.0,3.6746,3.641,3.5604,3.4611,3.3393,0.0,0.0,2.4511,0.0,2.1749,2.3027,2.6553,2.8758,3.0005,3.2359,3.3369,3.3378,3.3377,3.3397,3.3399,3.3394,3.3401,3.3388,3.3401,3.3401,3.3388,3.3388,3.3213,3.2891,3.2291,3.2329,3.2648,3.2917,3.2809,3.2728,3.3253,3.3401,3.3401,3.3401,3.3401,3.3401,3.3401,3.3401,3.3396,3.3402,3.339,3.3222,3.2692,3.2108,3.17,3.1695,0.0,0.0,0.0,0.0,0.0,0.0,2.4942,2.3897,2.2168,0.0,0.0,0.0,0.0,0.0,0.0,0.0,0.0,2.2048,2.5478,0.0,3.2541,3.259,3.2876,3.3401,3.3401,3.3401,3.3401,3.3401,3.3401,3.3401,3.3401,3.3401,3.3401,3.3401,3.3401,3.3401,3.3401,3.3406,3.3548,3.4749,3.5205,3.5191,3.3836,3.5309,3.6701,3.7635,3.8236,3.8596,3.8689,3.8689,3.8689,3.8689,3.8689,3.8729,3.8821,3.8993,3.91,0.0,3.902,3.8968,0.0,3.8731,3.8343,3.7821,3.7616,3.7155,3.641,3.5872,3.5282,3.4629,0.0,0.0,0.0,2.6293,2.6561,2.7758,2.9703,3.1209,3.2335,3.3072,3.34,3.3399,3.3401,3.3406,3.3393,3.3399,3.3401,3.3401,3.3401,3.3401,3.3374,3.3187,3.3187,3.32,3.2838,3.2784,3.2931,3.3187,3.3213,3.3173,3.3348,3.3401,3.3401,3.3401,3.3401,3.3401,3.3401,3.3401,3.3399,3.3407,3.3402,3.3348,3.3187,3.2992,3.2594,3.1827,0.0,0.0,0.0,0.0,0.0,0.0,2.3607,2.2744,0.0,2.2021,0.0,0.0,0.0,0.0,0.0,0.0,0.0,0.0,2.7514,0.0,3.258,3.2687,3.2963,3.3401,3.3401,3.3401,3.3401,3.3401,3.3401,3.3401,3.3401,3.3401,3.3401,3.3401,3.3395,3.3391,3.3391,3.3403,3.3551,3.4746,3.5211,3.5191,3.5845,3.6633,3.7342,3.7728,3.8223,3.8584,3.8674,3.8689,3.8689,3.8689,3.8689,3.8689,3.8689,3.8942,0.0,3.91,3.91,0.0,3.91,3.885,3.8489,3.801,3.7875,3.7424,3.661,0.0,0.0,3.5194,3.3995,3.2282,3.0153,3.0155,3.0525,3.1243,3.2006,3.2734,3.3399,3.3403,3.3405,3.3401,3.3401,3.3401,3.3401,3.3401,3.3401,3.3401,3.3401,3.3401,3.3374,3.3212,3.3253,3.3361,3.32,3.3159,3.3173,3.3348,3.3334,3.328,3.3374,3.3401,3.3401,3.3401,3.3401,3.3401,3.3401,3.3401,3.3401,3.3401,3.3392,3.3409,3.3409,3.3403,3.3024,3.1888,0.0,2.9852,0.0,0.0,0.0,0.0,0.0,0.0,0.0,2.2948,0.0,0.0,0.0,0.0,0.0,0.0,0.0,2.6233,2.7984,0.0,3.2573,3.2879,3.3158,3.3401,3.3401,3.3401,3.3401,3.3401,3.3401,3.3401,3.3401,3.3401,3.3401,3.3401,3.3398,3.3461,3.3894,3.4088,3.4176,3.492,3.5199,3.5191,3.6353,3.6766,0.0,0.0,3.8117,0.0,3.8689,3.8729,3.8729,3.8729,3.8717,3.8689,3.8689,3.8942,3.91,3.91,0.0,0.0,0.0,3.8836,3.857,3.8279,3.7969,0.0,3.6899,3.619,3.5591,3.5163,3.3985,3.3397,3.3394,3.3394,3.3405,3.3396,3.3401,3.3403,3.3401,3.3394,3.3401,3.3401,3.3401,3.3401,3.3401,3.3401,3.3401,3.3401,3.3401,3.3401,3.3401,3.3401,3.3401,3.3401,3.3401,3.3401,3.3401,3.3401,3.3213,3.3079,3.3321,3.3401,3.3401,3.3401,3.3401,3.3401,3.3401,3.3401,3.3401,3.3401,3.3401,3.3401,3.3401,3.3399,3.3053,3.1992,3.0809,2.9479,2.7965,0.0,0.0,0.0,0.0,0.0,0.0,2.4525,2.5148,0.0,0.0,0.0,0.0,0.0,2.5487,2.7068,2.7345,2.9122,3.2564,3.314,3.3408,3.3401,3.3401,3.3401,3.3401,3.3401,3.3401,3.3401,3.3401,3.3401,3.3401,3.3401,3.3398,3.3511,3.4636,3.5133,3.5208,3.5168,3.5186,3.5191,0.0,0.0,3.7702,3.8105,3.8599,3.8928,3.9008,3.9008,3.9008,3.9008,3.8821,3.8689,3.8689,3.8942,3.91,3.91,3.91,3.9008,3.8809,3.8743,3.8477,3.7944,3.7835,3.742,3.662,3.6219,3.5605,3.473,3.3843,3.3409,3.3404,3.3404,3.3394,3.3399,3.3397,3.3404,3.3395,3.3399,3.3401,3.3401,3.3401,3.3401,3.3401,3.3401,3.3401,3.3401,3.3401,3.3401,3.3401,3.3401,3.3401,3.3401,3.3401,3.3401,3.3401,3.3401,3.336,3.332,3.3374,3.3401,3.3401,3.3401,3.3401,3.3401,3.3401,3.3401,3.3401,3.3401,3.3401,3.3401,3.3401,3.3399,3.3309,3.3038,3.2024,3.0823,2.9539,2.7321,0.0,0.0,2.4967,2.4882,2.461,2.4949,2.5184,0.0,0.0,0.0,0.0,2.5929,2.7017,2.826,2.8936,3.0354,3.2578,3.314,3.3408,3.3401,3.3401,3.3401,3.3401,3.3401,3.3401,3.3401,3.3401,3.3401,3.3401,3.3401,3.3398,3.3422,3.3716,3.4384,3.5155,3.4868,3.495,3.5191,3.7034,3.7609,3.8091,3.8266,3.8743,3.906,3.8942,3.902,3.91,3.91,3.8876,3.8743,3.8876,3.8901,3.8913,3.8913,3.902,3.9034,3.8901,3.8769,3.8542,3.8236,3.7942,3.7581,3.71,3.6433,3.5631,3.4678,3.4104,3.3673,3.3395,3.3395,3.3405,3.3399,3.3399,3.3408,3.3401,3.3401,3.3401,3.3401,3.3401,3.3401,3.3401,3.3401,3.3401,3.3401,3.3401,3.3401,3.3401,3.3401,3.3401,3.3401,3.3401,3.3401,3.3401,3.3401,3.3401,3.3401,3.3401,3.3401,3.3401,3.3401,3.3401,3.3401,3.3401,3.3401,3.3401,3.3401,3.3401,3.3401,3.3401,3.3399,3.3398,3.34,3.199,3.0084,2.7802,2.6512,0.0,2.5745,2.596,2.6108,2.6108,2.6583,2.6734,2.6356,0.0,0.0,2.5777,2.7038,2.8145,2.8953,2.9575,3.0769,3.2574,3.3131,3.3391,3.3401,3.3401,3.3401,3.3401,3.3401,3.3401,3.3401,3.3401,3.3401,3.3401,3.3401,3.3398,3.3397,3.3397,3.4023,3.4907,3.4685,3.4858,3.5191,3.7382,3.7863,3.8252,3.8345,3.8769,3.902,3.8809,3.8953,3.91,3.91,3.8876,3.8781,3.9008,3.8836,3.8689,3.8689,3.8916,3.9034,3.9034,3.8821,3.8676,3.8636,3.8103,3.7768,3.7676,3.6594,3.5631,3.4802,3.4554,3.4122,3.3535,3.3626,3.3674,3.3667,3.3474,3.3405,3.3408,3.3406,3.3405,3.3405,3.3405,3.3404,3.3401,3.3401,3.3401,3.3401,3.3401,3.3401,3.3401,3.3401,3.3401,3.3401,3.3401,3.3401,3.3401,3.3401,3.3401,3.3401,3.3401,3.3401,3.3401,3.3401,3.3401,3.3401,3.3401,3.3401,3.3401,3.3401,3.3401,3.3401,3.3401,3.3409,3.3347,3.317,3.1019,2.8187,2.4823,0.0,2.5618,2.6318,2.7002,2.7546,2.7847,2.869,2.8827,2.7844,2.8112,2.7846,0.0,2.7998,2.9105,2.9887,2.9918,3.081,3.2703,3.318,3.3401,3.3401,3.3401,3.3401,3.3401,3.3401,3.3401,3.3401,3.3401,3.3401,3.3401,3.3401,3.3396,3.3394,3.3394,3.3866,3.4553,3.4553,3.4831,3.5191,3.7581,3.7809,3.8036,3.8542,3.8901,3.91,3.9034,3.9074,3.91,3.91,3.8876,3.8731,3.8769,3.8714,3.8689,3.8689,3.8743,3.8769,3.8769,3.8714,3.8596,3.8373,3.7996,3.7567,3.706,3.6139,3.5391,3.4802,3.4972,3.4759,3.418,3.4684,3.4929,3.4887,3.3848,3.34,3.3404,3.3398,3.3394,3.3394,3.3394,3.3401,3.3401,3.3401,3.3401,3.3401,3.3401,3.3401,3.3401,3.3401,3.3401,3.3401,3.3401,3.3401,3.3401,3.3401,3.3401,3.3401,3.3401,3.3401,3.3401,3.3401,3.3401,3.3401,3.3401,3.3401,3.3401,3.3401,3.3401,3.3401,3.3401,3.3409,3.3077,3.2122,2.9141,2.6056,2.3524,0.0,2.4108,2.6155,2.7382,2.8713,3.0349,3.0357,3.017,2.9936,2.9272,2.8598,2.7953,2.8578,3.0124,3.2676,3.09,3.0992,3.3259,3.3362,3.3401,3.3401,3.3401,3.3401,3.3401,3.3401,3.3401,3.3401,3.3401,3.3401,3.3401,3.3401,3.3403,3.3405,3.3405,3.3791,3.435,3.435,3.471,3.5191,3.7688,3.7958,3.8198,3.8636,3.8913,3.9045,3.8916,3.9008,3.9152,3.9343,3.9089,3.8982,3.9159,3.9022,3.8861,3.8717,3.8689,3.8689,3.8689,3.857,3.8426,3.8306,3.7837,3.7301,3.6699,3.6153,3.5658,3.5231,3.5202,3.5055,3.479,3.5078,3.5192,3.5187,3.4623,3.4013,3.3432,3.4091,3.438,3.4302,3.3656,3.3395,3.3401,3.3401,3.3401,3.3401,3.3401,3.3401,3.3401,3.3401,3.3401,3.3401,3.3401,3.3401,3.344,3.3614,3.3535,3.3401,3.3401,3.3401,3.3401,3.3401,3.3401,3.3454,3.3627,3.3534,3.3441,3.3627,3.3534,3.3401,3.3401,3.3408,3.28,3.1017,2.8837,0.0,0.0,2.343,2.47,2.7089,2.8124,2.9238,3.0794,3.137,3.1487,3.113,3.0093,2.9111,2.8252,2.8427,3.0043,3.3302,3.2359,3.2308,3.3388,3.3401,3.3401,3.3401,3.3401,3.3406,3.3401,3.3405,3.3393,3.3401,3.3405,3.3401,3.3401,3.3401,3.3407,3.3426,3.3757,3.399,3.416,3.4459,3.4843,3.5191,3.7849,3.8117,3.8385,3.8651,3.8876,3.8942,3.8729,3.8876,3.9089,3.9358,3.9169,3.91,3.9358,3.9169,3.8913,3.8714,3.8689,3.8676,3.8611,3.8345,3.8212,3.8306,3.765,3.7021,3.6419,3.6126,3.5832,3.5511,3.5311,3.5191,3.5191,3.5191,3.5189,3.5197,3.5208,3.4695,3.3885,3.4803,3.505,3.4698,3.3779,3.3404,3.3401,3.3401,3.3401,3.3401,3.3401,3.3401,3.3402,3.3393,3.3404,3.3402,3.3406,3.3404,3.3467,3.38,3.3736,3.3538,3.3521,3.3521,3.3521,3.3521,3.3467,3.3494,3.3827,3.3641,3.3468,3.3721,3.3587,3.3401,3.3401,3.3403,3.2804,3.1004,0.0,0.0,0.0,2.4537,2.6328,2.8734,2.9619,3.0392,3.131,3.2244,3.2594,3.2128,3.112,3.008,2.9074,2.9017,3.0358,3.3315,3.3399,3.3401,3.3401,3.3401,3.3401,3.3401,3.3405,3.3399,3.3405,3.369,3.3678,3.3405,3.3407,3.3401,3.3401,3.3401,3.3398,3.3473,3.4213,3.4409,3.4319,3.4646,3.495,3.5191,3.8159,3.8279,3.8385,3.8651,3.8731,3.8714,3.8689,3.8714,3.8743,3.8769,3.8743,3.8743,3.8769,3.8743,3.8714,3.8689,3.8689,3.8582,3.8348,3.801,3.7984,3.8292,3.7422,3.6673,3.6139,3.5819,3.5498,3.5231,3.5204,3.5191,3.5191,3.5191,3.5204,3.5203,3.5211,3.5141,3.5075,3.5154,3.456,3.3524,3.3447,3.3401,3.3401,3.3401,3.3401,3.3401,3.3401,3.3401,3.3404,3.3392,3.3401,3.3404,3.3405,3.34,3.3467,3.38,3.3927,3.3931,3.3883,3.3867,3.3867,3.3867,3.3627,3.3494,3.3827,3.3641,3.3401,3.3428,3.3427,3.3401,3.3401,3.3392,3.3342,3.3169,0.0,0.0,2.5281,2.6476,2.8815,3.1162,3.2422,3.3109,3.3198,3.3282,3.3327,3.3276,3.2721,3.2118,3.1482,3.1435,3.2043,3.3359,3.3399,3.3401,3.3401,3.3401,3.3401,3.3401,3.3403,3.339,3.3441,3.4562,3.4458,3.3403,3.3402,3.3401,3.3401,3.3401,3.3398,3.3524,3.4674,3.512,3.5063,3.475,3.4858,3.5191,3.7904,3.8157,3.8385,3.8651,3.8689,3.8689,3.8689,3.8689,3.8769,3.8928,3.8942,3.8942,3.8942,3.8942,3.8876,3.8717,3.8689,3.8599,3.8319,3.8172,3.7904,3.7448,3.7288,3.6941,3.6353,3.6059,3.5765,3.5445,3.5284,3.5191,3.5191,3.5191,3.5191,3.5204,3.5202,3.5201,3.5148,3.4406,3.3817,3.3403,3.3404,3.3394,3.3402,3.3399,3.3397,3.3404,3.3395,3.3396,3.3392,3.3401,3.3902,3.445,3.407,3.3876,3.3862,3.4323,3.4591,3.4699,3.4509,3.4033,3.3679,3.4057,3.3935,3.3841,3.4335,3.4202,3.4016,3.4228,3.3974,3.3708,3.3708,3.3541,3.3393,3.3397,0.0,2.9388,2.7152,2.8866,3.0967,3.2555,3.3135,3.341,3.3401,3.3397,3.3396,3.339,3.3209,3.2992,3.2767,3.2748,3.2942,3.3388,3.3401,3.3393,3.3403,3.3393,3.3393,3.3403,3.3399,3.3793,3.4509,3.4224,3.3841,3.339,3.339,3.339,3.339,3.339,3.34,3.3524,3.474,3.5204,3.5175,3.503,3.5071,3.5191,3.8008,3.8198,3.8359,3.8544,3.857,3.857,3.857,3.8651,3.8769,3.8953,3.8968,3.8968,3.8968,3.8968,3.8901,3.8731,3.8624,3.8451,3.8157,3.8065,3.773,3.7088,3.7289,3.7116,3.6513,3.6326,3.6073,3.5752,3.5565,3.5431,3.5338,3.5338,3.5284,3.5191,3.5191,3.5203,3.5149,3.4317,3.3742,3.3391,3.3404,3.3406,3.3389,3.3401,3.3629,3.3919,3.3542,3.3634,3.3966,3.3975,3.4519,3.5125,3.4714,3.4404,3.4262,3.4631,3.4963,3.5164,3.4976,3.4367,3.3893,3.4338,3.4242,3.4161,3.4682,3.4536,3.4363,3.4602,3.4309,3.3963,3.378,3.3563,3.3409,3.3398,3.1389,2.982,2.9829,3.1218,3.2508,3.3321,3.3396,3.34,3.34,3.3401,3.3401,3.3401,3.3401,3.3401,3.3401,3.3393,3.3407,3.3401,3.3398,3.3407,3.3401,3.3784,3.3769,3.3397,3.3396,3.3826,3.4614,3.3785,3.3606,3.3945,3.3566,3.3401,3.3439,3.381,3.396,3.4058,3.4881,3.5199,3.5191,3.5191,3.5191,3.5191,3.8567,3.8492,3.8306,3.8306,3.8306,3.8306,3.8306,3.8518,3.8689,3.8689,3.8689,3.8689,3.8689,3.8689,3.8689,3.8689,3.8451,3.8157,3.7821,3.7541,3.7396,3.7396,3.7396,3.7116,3.6513,3.65,3.6366,3.6099,3.6099,3.5939,3.5605,3.5605,3.5458,3.5204,3.5204,3.5201,3.5208,3.5208,3.4506,3.341,3.3397,3.3403,3.3401,3.3402,3.4147,3.5033,3.3831,3.4184,3.5204,3.5191,3.52,3.5205,3.5204,3.492,3.4606,3.4606,3.4898,3.5191,3.5191,3.4911,3.4646,3.4763,3.4549,3.4389,3.4722,3.4549,3.4309,3.4309,3.4309,3.4126,3.3513,3.3409,3.3406,3.3397,3.34,3.3399,3.3409,3.34,3.3398,3.3405,3.3403,3.3401,3.3401,3.3401,3.3401,3.3401,3.3401,3.3401,3.3401,3.3403,3.3404,3.3415,3.34,3.3394,3.3407,3.4593,3.4598,3.341,3.3395,3.3406,3.3415,3.3407,3.4054,3.5123,3.3931,3.3407,3.351,3.471,3.5197,3.5208,3.5208,3.5199,3.5191,3.5191,3.5191,3.5191,3.7996,3.8198,3.8306,3.8306,3.8466,3.8518,3.8319,3.8518,3.8689,3.8689,3.8689,3.8689,3.8689,3.8689,3.8689,3.8689,3.8451,3.8157,3.7821,3.7728,3.7595,3.741,3.7396,3.7116,3.6513,3.65,3.6366,3.6099,3.6099,3.6059,3.5952,3.5952,3.5778,3.5485,3.5485,3.5391,3.5175,3.4909,3.4734,3.4599,3.3741,3.3403,3.3402,3.3393,3.3625,3.3997,3.45,3.4893,3.5204,3.52,3.5201,3.5199,3.5201,3.5123,3.5018,3.5018,3.5111,3.5191,3.5191,3.5111,3.5031,3.507,3.4856,3.4736,3.5017,3.5004,3.4937,3.4937,3.4789,3.4603,3.4419,3.4064,3.3722,3.3441,3.3401,3.3396,3.3405,3.3394,3.3409,3.3407,3.3398,3.3401,3.3401,3.3399,3.3404,3.3404,3.3404,3.3404,3.3404,3.3408,3.3794,3.4645,3.3843,3.3808,3.4642,3.5021,3.5019,3.4638,3.3796,3.3842,3.4628,3.3795,3.4051,3.5189,3.4826,3.4652,3.4685,3.5043,3.5195,3.5202,3.5202,3.519,3.5191,3.5191,3.5191,3.5191,3.7929,3.7969,3.801,3.8266,3.833,3.833,3.8306,3.8518,3.8689,3.8689,3.8689,3.8689,3.8689,3.8689,3.8689,3.8689,3.833,3.7969,3.7661,3.7529,3.7368,3.7209,3.7195,3.7034,3.6673,3.6659,3.658,3.6407,3.6407,3.6313,3.6099,3.6099,3.5872,3.5445,3.5445,3.5351,3.5191,3.4951,3.4988,3.5141,3.4407,3.4105,3.4103,3.4107,3.4108,3.4198,3.4936,3.5187,3.52,3.5203,3.5191,3.5191,3.5191,3.5191,3.5191,3.5191,3.5191,3.5191,3.5191,3.5191,3.5191,3.5191,3.507,3.5003,3.5151,3.5191,3.5191,3.5191,3.507,3.4923,3.4829,3.4616,3.4339,3.3935,3.4012,3.4114,3.4107,3.3696,3.34,3.3393,3.3406,3.3406,3.3406,3.3399,3.3594,3.408,3.3671,3.3389,3.3389,3.3854,3.4449,3.5175,3.4484,3.4462,3.5181,3.5205,3.5205,3.5181,3.4462,3.4495,3.5161,3.3941,3.4056,3.5168,3.4708,3.4765,3.5205,3.5197,3.5201,3.5191,3.5191,3.5191,3.5191,3.5191,3.5191,3.5191,3.8105,3.7771,3.7583,3.8119,3.801,3.7944,3.8212,3.8504,3.8689,3.8676,3.8689,3.8689,3.8676,3.8689,3.8689,3.8676,3.8129,3.7676,3.7368,3.71,3.6926,3.6899,3.6899,3.6899,3.6899,3.6899,3.6899,3.6899,3.6899,3.6659,3.618,3.618,3.5845,3.5284,3.5284,3.5244,3.5191,3.5191,3.5201,3.5195,3.5195,3.5203,3.5206,3.5206,3.52,3.5195,3.5195,3.52,3.5191,3.5191,3.5191,3.5191,3.5191,3.5191,3.5191,3.5191,3.5191,3.5191,3.5191,3.5191,3.5191,3.5191,3.5191,3.5191,3.5191,3.5191,3.5191,3.5191,3.5191,3.5137,3.4883,3.5039,3.5075,3.4701,3.4959,3.5192,3.5204,3.4246,3.3561,3.3561,3.3561,3.3561,3.3561,3.3561,3.4013,3.5126,3.4168,3.3562,3.3562,3.4603,3.519,3.5206,3.5199,3.5202,3.5195,3.5202,3.5202,3.5195,3.5202,3.5198,3.5153,3.4059,3.4163,3.5141,3.4032,3.4189,3.5203,3.5204,3.5191,3.5191,3.5191,3.5191,3.5191,3.5191,3.5191,3.5191,3.7517,3.749,3.745,3.7583,3.7932,3.8131,3.7944,3.8357,3.8622,3.8411,3.857,3.8624,3.8411,3.857,3.8624,3.8413,3.8036,3.7567,3.7046,3.7195,3.7167,3.6913,3.6899,3.6899,3.6899,3.6899,3.6899,3.6899,3.6899,3.6833,3.6726,3.6726,3.6433,3.5899,3.5899,3.5645,3.5191,3.5191,3.5203,3.5202,3.5202,3.5202,3.5201,3.5201,3.5202,3.5202,3.5202,3.5203,3.5191,3.5191,3.5191,3.5191,3.5191,3.5191,3.5191,3.5191,3.5191,3.5191,3.5191,3.5191,3.5191,3.5191,3.5191,3.5191,3.5191,3.5191,3.5191,3.5191,3.5191,3.5177,3.5124,3.5163,3.5163,3.5083,3.5135,3.5199,3.5205,3.4969,3.481,3.4814,3.48,3.48,3.48,3.4809,3.4917,3.5178,3.4956,3.4813,3.4813,3.5062,3.521,3.5201,3.5203,3.5204,3.5202,3.519,3.519,3.5202,3.5204,3.5201,3.5191,3.4925,3.4949,3.5195,3.4924,3.4965,3.5198,3.5202,3.5191,3.5191,3.5191,3.5191,3.5191,3.5191,3.5191,3.5191,3.7329,3.7275,3.7301,3.7758,3.7958,3.8103,3.821,3.8504,3.8596,3.8333,3.853,3.8596,3.8319,3.8544,3.8636,3.8504,3.8076,3.7676,3.7354,3.7221,3.7074,3.6913,3.6899,3.6966,3.7141,3.698,3.6899,3.6899,3.6899,3.6766,3.6526,3.6526,3.6219,3.5672,3.5672,3.5498,3.5191,3.5191,3.5191,3.5191,3.5191,3.5191,3.5191,3.5191,3.5191,3.5191,3.5191,3.5191,3.5191,3.5191,3.5191,3.5191,3.5191,3.5191,3.5191,3.5191,3.5191,3.5191,3.5191,3.5191,3.5191,3.5191,3.5191,3.5191,3.5191,3.5191,3.5191,3.5191,3.5191,3.5191,3.5191,3.5191,3.5191,3.5191,3.5191,3.5203,3.52,3.52,3.5199,3.5194,3.5194,3.5194,3.5194,3.5211,3.52,3.52,3.52,3.52,3.52,3.52,3.5201,3.5204,3.5191,3.5191,3.5191,3.5191,3.5191,3.5191,3.5191,3.5203,3.52,3.5203,3.5201,3.5194,3.5202,3.5203,3.52,3.519,3.5191,3.5191,3.5191,3.5191,3.5191,3.5191,3.5191,3.5191,3.7342,3.7207,3.7301,3.8079,3.8036,3.8049,3.857,3.8636,3.853,3.8252,3.8411,3.8437,3.8172,3.8345,3.8475,3.8475,3.7968,3.7648,3.7648,3.7181,3.6899,3.6899,3.6899,3.7034,3.7301,3.7034,3.6926,3.698,3.6926,3.6647,3.618,3.618,3.5845,3.5271,3.5271,3.5244,3.5191,3.5191,3.5191,3.5191,3.5191,3.5191,3.5191,3.5191,3.5191,3.5191,3.5191,3.5191,3.5191,3.5191,3.5191,3.5191,3.5191,3.5191,3.5204,3.5191,3.5204,3.5204,3.5205,3.5204,3.5191,3.5191,3.5191,3.5191,3.5191,3.5191,3.5191,3.5191,3.5191,3.5191,3.5191,3.5191,3.5191,3.5191,3.5191,3.5191,3.5191,3.5191,3.5191,3.5191,3.5191,3.5191,3.5191,3.5191,3.5191,3.5191,3.5191,3.5191,3.5191,3.5191,3.5191,3.5191,3.5191,3.5191,3.5191,3.5191,3.5191,3.5191,3.5191,3.5191,3.5191,3.5191,3.5191,3.5191,3.5191,3.5191,3.5191,3.5191,3.5191,3.5191,3.5191,3.5191,3.5191,3.5191,3.5191,3.5191,3.7396,3.7541,3.7728,3.7849,3.8065,3.8266,3.8333,3.8345,3.8238,3.7915,3.7888,3.7823,3.7557,3.7557,3.7583,3.7583,3.7233,3.702,3.702,3.6953,3.6899,3.6899,3.6899,3.6912,3.6966,3.6912,3.7034,3.7329,3.7034,3.674,3.6447,3.6447,3.6126,3.5551,3.5551,3.5418,3.5191,3.5191,3.5191,3.5191,3.5191,3.5191,3.5191,3.5191,3.5191,3.5191,3.5191,3.5191,3.5191,3.5191,3.5191,3.5191,3.5191,3.5191,3.5204,3.5192,3.5205,3.5204,3.5205,3.5192,3.5191,3.5191,3.5191,3.5191,3.5191,3.5191,3.5191,3.5191,3.5191,3.5191,3.5191,3.5191,3.5191,3.5191,3.5191,3.5191,3.5191,3.5191,3.5191,3.5191,3.5191,3.5191,3.5191,3.5191,3.5191,3.5191,3.5191,3.5191,3.5191,3.5191,3.5191,3.5191,3.5191,3.5191,3.5191,3.5191,3.5191,3.5191,3.5191,3.5191,3.5191,3.5191,3.5191,3.5191,3.5191,3.5191,3.5191,3.5191,3.5191,3.5191,3.5191,3.5191,3.5191,3.5191,3.5191,3.5191,3.7396,3.7609,3.7849,3.8051,3.8198,3.8345,3.8504,3.8518,3.8343,3.7861,3.7956,3.7904,3.745,3.7529,3.7621,3.7621,3.7342,3.7181,3.7181,3.6994,3.6899,3.6899,3.6899,3.698,3.7181,3.6994,3.706,3.7396,3.706,3.6699,3.6286,3.6433,3.6179,3.5605,3.5605,3.5458,3.5191,3.5191,3.5191,3.5191,3.5191,3.5191,3.5191,3.5191,3.5191,3.5191,3.5191,3.5191,3.5191,3.5191,3.5191,3.5257,3.5603,3.5471,3.5192,3.5203,3.5658,3.6017,3.5365,3.5192,3.5191,3.5191,3.5191,3.5191,3.5191,3.5191,3.5191,3.5191,3.5191,3.5191,3.5191,3.5191,3.5191,3.5191,3.5191,3.5191,3.5191,3.5191,3.5191,3.5191,3.5191,3.5191,3.5191,3.5191,3.5191,3.5191,3.5191,3.5191,3.5191,3.5191,3.5191,3.5191,3.5191,3.5191,3.5191,3.5191,3.5191,3.5191,3.5191,3.5191,3.5191,3.5191,3.5191,3.5191,3.5191,3.5191,3.5191,3.5191,3.5191,3.5191,3.5191,3.5191,3.5191,3.5191,3.5191,3.5191]}]]